[[{"header":{"parameterUnit":"m.s-1","parameterCategory":1,"la1":30.6,"la2":29.2853,"lo1":-89.7004,"lo2":-87.6739,"dy":0.0162,"dx":0.0183,"nx":112,"ny":82,"refTime":"2023-06-08T06:00:00:Z","depth":0,"parameterNumber":2,"parameterNumberName":"U-component_of_WINDS"},"data":[0.0,0.0,0.0,0.0,0.0,0.0,0.0,0.0,0.0,0.0,0.0,0.0,0.0,0.0,0.0,0.0,0.0,0.0,0.0,0.0,0.0,0.0,0.0,0.0,0.0,0.0,0.0,0.0,0.0,0.0,0.0,0.0,0.0,0.0,0.0,0.0,0.0,0.0,0.0,0.0,0.0,0.0,0.0,0.0,0.0,0.0,0.0,0.0,0.0,0.0,0.0,0.0,0.0,0.0,0.0,0.0,0.0,0.0,0.0,0.0,0.0,0.0,0.0,0.0,0.0,0.0,0.0,0.0,0.0,0.0,0.0,0.0,0.0,0.0,0.0,0.0,0.0,0.0,0.0,0.0,0.0,0.0,0.0,0.0,0.0,0.0,0.0,0.0,0.0,0.0,-2.8955,-2.9484,-2.9941,-3.0206,-3.0206,-3.0206,-3.017,-3.0098,0.0,0.0,0.0,0.0,0.0,0.0,0.0,0.0,0.0,0.0,0.0,0.0,0.0,0.0,0.0,0.0,0.0,0.0,0.0,0.0,0.0,0.0,0.0,0.0,0.0,0.0,0.0,0.0,0.0,0.0,0.0,0.0,0.0,0.0,0.0,0.0,0.0,0.0,0.0,0.0,0.0,0.0,0.0,0.0,0.0,0.0,0.0,0.0,0.0,0.0,0.0,0.0,0.0,0.0,0.0,0.0,0.0,0.0,0.0,0.0,0.0,0.0,0.0,0.0,0.0,0.0,0.0,0.0,0.0,0.0,0.0,0.0,0.0,0.0,0.0,0.0,0.0,0.0,0.0,0.0,0.0,0.0,0.0,0.0,0.0,0.0,0.0,0.0,0.0,0.0,0.0,0.0,0.0,0.0,0.0,0.0,0.0,0.0,0.0,0.0,0.0,0.0,0.0,0.0,-3.005,-3.0621,-3.0711,-3.0802,-3.0802,-3.0802,-3.0567,-3.0122,0.0,0.0,0.0,0.0,0.0,0.0,0.0,0.0,0.0,0.0,0.0,0.0,0.0,0.0,0.0,0.0,0.0,0.0,0.0,0.0,0.0,0.0,0.0,0.0,0.0,0.0,0.0,0.0,0.0,0.0,0.0,0.0,0.0,0.0,0.0,0.0,0.0,0.0,0.0,0.0,0.0,0.0,0.0,0.0,0.0,0.0,0.0,0.0,0.0,0.0,0.0,0.0,0.0,0.0,0.0,0.0,0.0,0.0,0.0,0.0,0.0,0.0,0.0,0.0,0.0,0.0,0.0,0.0,0.0,0.0,0.0,0.0,0.0,0.0,0.0,0.0,0.0,0.0,0.0,0.0,0.0,0.0,0.0,0.0,0.0,0.0,0.0,0.0,0.0,0.0,0.0,0.0,0.0,0.0,0.0,0.0,0.0,0.0,0.0,0.0,0.0,0.0,0.0,-3.0194,-3.0645,-3.0855,-3.1175,-3.1344,-3.1344,-3.1344,-3.1247,-3.0995,-3.0983,0.0,0.0,0.0,0.0,0.0,0.0,0.0,0.0,0.0,0.0,0.0,0.0,0.0,0.0,0.0,0.0,0.0,0.0,0.0,0.0,0.0,0.0,0.0,0.0,0.0,0.0,0.0,0.0,0.0,0.0,0.0,0.0,0.0,0.0,0.0,0.0,0.0,0.0,0.0,0.0,0.0,0.0,0.0,0.0,0.0,0.0,0.0,0.0,0.0,0.0,0.0,0.0,0.0,0.0,0.0,0.0,0.0,0.0,0.0,0.0,0.0,0.0,0.0,0.0,0.0,0.0,0.0,0.0,0.0,0.0,0.0,0.0,0.0,0.0,0.0,0.0,0.0,0.0,0.0,0.0,0.0,0.0,0.0,0.0,0.0,0.0,0.0,0.0,0.0,0.0,0.0,0.0,0.0,0.0,0.0,0.0,0.0,0.0,0.0,0.0,0.0,0.0,-3.0862,-3.1103,-3.1103,-3.1464,-3.1705,-3.1705,-3.1705,-3.1705,-3.1705,-3.1705,0.0,0.0,0.0,0.0,0.0,0.0,0.0,0.0,0.0,0.0,0.0,0.0,0.0,0.0,0.0,0.0,0.0,0.0,0.0,0.0,0.0,0.0,0.0,0.0,0.0,0.0,0.0,0.0,0.0,0.0,0.0,0.0,0.0,0.0,0.0,0.0,0.0,0.0,0.0,0.0,0.0,0.0,0.0,0.0,0.0,0.0,0.0,0.0,0.0,0.0,0.0,0.0,0.0,0.0,0.0,0.0,0.0,0.0,0.0,0.0,0.0,0.0,0.0,0.0,0.0,0.0,0.0,0.0,0.0,0.0,0.0,0.0,0.0,0.0,0.0,0.0,0.0,0.0,0.0,0.0,0.0,0.0,0.0,0.0,0.0,0.0,0.0,0.0,0.0,0.0,0.0,0.0,0.0,0.0,0.0,0.0,0.0,0.0,0.0,0.0,0.0,0.0,-3.1633,-3.1657,-3.1657,-3.1681,-3.1705,-3.1705,-3.1705,-3.1705,-3.1705,-3.1705,0.0,0.0,0.0,0.0,0.0,0.0,0.0,0.0,0.0,0.0,0.0,0.0,0.0,0.0,0.0,0.0,0.0,0.0,0.0,0.0,0.0,0.0,0.0,0.0,0.0,0.0,0.0,0.0,0.0,0.0,0.0,0.0,0.0,0.0,0.0,0.0,0.0,0.0,0.0,0.0,0.0,0.0,0.0,0.0,0.0,0.0,0.0,0.0,0.0,0.0,0.0,0.0,0.0,0.0,0.0,0.0,0.0,0.0,0.0,0.0,0.0,0.0,0.0,0.0,0.0,0.0,0.0,0.0,0.0,0.0,0.0,0.0,0.0,0.0,0.0,0.0,0.0,0.0,0.0,0.0,0.0,0.0,0.0,0.0,0.0,0.0,0.0,0.0,0.0,0.0,0.0,0.0,0.0,0.0,0.0,0.0,0.0,0.0,0.0,0.0,0.0,0.0,-3.1705,-3.1705,-3.1705,-3.1705,-3.1705,-3.1705,-3.1705,-3.1705,-3.1705,0.0,0.0,0.0,0.0,0.0,0.0,0.0,0.0,0.0,0.0,0.0,0.0,0.0,0.0,0.0,0.0,0.0,0.0,0.0,0.0,0.0,0.0,0.0,0.0,0.0,0.0,0.0,0.0,0.0,0.0,0.0,0.0,0.0,0.0,0.0,0.0,0.0,0.0,0.0,0.0,0.0,0.0,0.0,0.0,0.0,0.0,0.0,0.0,0.0,0.0,0.0,0.0,0.0,0.0,0.0,0.0,0.0,0.0,0.0,0.0,0.0,0.0,0.0,0.0,0.0,0.0,0.0,0.0,0.0,0.0,0.0,0.0,0.0,0.0,0.0,0.0,0.0,0.0,0.0,0.0,0.0,0.0,0.0,0.0,0.0,0.0,0.0,0.0,0.0,0.0,0.0,0.0,0.0,0.0,0.0,0.0,0.0,0.0,0.0,0.0,0.0,0.0,-3.1705,-3.1862,-3.1925,-3.1925,-3.2126,-3.2163,-3.1994,-3.1925,-3.1898,-3.1717,0.0,0.0,0.0,0.0,0.0,0.0,0.0,0.0,0.0,0.0,0.0,0.0,0.0,0.0,0.0,0.0,0.0,0.0,0.0,0.0,0.0,0.0,0.0,0.0,0.0,0.0,0.0,0.0,0.0,0.0,0.0,0.0,0.0,0.0,0.0,0.0,0.0,0.0,0.0,0.0,0.0,0.0,0.0,0.0,0.0,0.0,0.0,0.0,0.0,0.0,0.0,0.0,0.0,0.0,0.0,0.0,0.0,0.0,0.0,0.0,0.0,0.0,0.0,0.0,0.0,0.0,0.0,0.0,0.0,0.0,0.0,0.0,0.0,0.0,0.0,0.0,0.0,0.0,0.0,0.0,0.0,0.0,0.0,0.0,0.0,0.0,0.0,0.0,0.0,0.0,0.0,0.0,0.0,0.0,0.0,0.0,0.0,0.0,0.0,0.0,0.0,0.0,-3.1729,-3.2166,-3.2515,-3.2515,-3.2971,-3.308,-3.2551,-3.2515,-3.2274,0.0,0.0,0.0,0.0,0.0,0.0,0.0,0.0,0.0,0.0,0.0,0.0,0.0,0.0,0.0,0.0,0.0,0.0,0.0,0.0,0.0,0.0,0.0,0.0,0.0,0.0,0.0,0.0,0.0,0.0,0.0,0.0,0.0,0.0,0.0,0.0,0.0,0.0,0.0,0.0,0.0,0.0,0.0,0.0,0.0,0.0,0.0,0.0,0.0,0.0,0.0,0.0,0.0,0.0,0.0,0.0,0.0,0.0,0.0,0.0,0.0,0.0,0.0,0.0,0.0,0.0,0.0,0.0,0.0,0.0,0.0,0.0,0.0,0.0,0.0,0.0,0.0,0.0,0.0,0.0,0.0,0.0,0.0,0.0,0.0,0.0,0.0,0.0,0.0,0.0,0.0,0.0,0.0,0.0,0.0,0.0,0.0,0.0,0.0,0.0,0.0,0.0,0.0,-3.2767,-3.2959,-3.3056,-3.3056,-3.32,-3.3224,-3.3068,-3.3056,-3.2984,-3.2815,0.0,0.0,0.0,0.0,0.0,0.0,0.0,0.0,0.0,0.0,0.0,0.0,0.0,0.0,0.0,0.0,0.0,0.0,0.0,0.0,0.0,0.0,0.0,0.0,0.0,0.0,0.0,0.0,0.0,0.0,0.0,0.0,0.0,0.0,0.0,0.0,0.0,0.0,0.0,0.0,0.0,0.0,0.0,0.0,0.0,0.0,0.0,0.0,0.0,0.0,0.0,0.0,0.0,0.0,0.0,0.0,0.0,0.0,0.0,0.0,0.0,0.0,0.0,0.0,0.0,0.0,0.0,0.0,0.0,0.0,0.0,0.0,0.0,0.0,0.0,0.0,0.0,0.0,0.0,0.0,0.0,0.0,0.0,0.0,0.0,0.0,0.0,0.0,0.0,0.0,0.0,0.0,0.0,0.0,0.0,0.0,0.0,0.0,0.0,0.0,0.0,0.0,-3.3248,-3.3464,-3.3585,-3.3585,-3.3777,-3.3813,-3.3609,-3.3585,-3.3501,-3.3308,0.0,0.0,0.0,0.0,0.0,0.0,0.0,0.0,0.0,0.0,0.0,0.0,0.0,0.0,0.0,0.0,0.0,0.0,0.0,0.0,0.0,0.0,0.0,0.0,0.0,0.0,0.0,0.0,0.0,0.0,0.0,0.0,0.0,0.0,0.0,0.0,0.0,0.0,0.0,0.0,0.0,0.0,0.0,0.0,0.0,0.0,0.0,0.0,0.0,0.0,0.0,0.0,0.0,0.0,0.0,0.0,0.0,0.0,0.0,0.0,0.0,0.0,0.0,0.0,0.0,0.0,0.0,0.0,0.0,0.0,0.0,0.0,0.0,0.0,0.0,0.0,0.0,0.0,0.0,0.0,0.0,0.0,0.0,0.0,0.0,0.0,0.0,0.0,0.0,0.0,0.0,0.0,0.0,0.0,0.0,0.0,0.0,0.0,0.0,0.0,0.0,0.0,-3.3428,-3.3837,-3.4066,-3.4066,-3.4498,-3.4583,-3.4102,-3.4066,-3.3874,-3.3464,0.0,0.0,0.0,0.0,0.0,0.0,0.0,0.0,0.0,0.0,0.0,0.0,0.0,0.0,0.0,0.0,0.0,0.0,0.0,0.0,0.0,0.0,0.0,0.0,0.0,0.0,0.0,0.0,0.0,0.0,0.0,0.0,0.0,0.0,0.0,0.0,0.0,0.0,0.0,0.0,0.0,0.0,0.0,0.0,0.0,0.0,0.0,0.0,0.0,0.0,0.0,0.0,0.0,0.0,0.0,0.0,0.0,0.0,0.0,0.0,-2.2996,-2.2516,0.0,0.0,0.0,0.0,0.0,0.0,0.0,0.0,0.0,0.0,0.0,0.0,0.0,0.0,0.0,0.0,0.0,0.0,0.0,0.0,0.0,0.0,0.0,0.0,0.0,0.0,0.0,0.0,0.0,0.0,0.0,0.0,0.0,0.0,0.0,0.0,0.0,0.0,0.0,0.0,-3.4451,-3.4546,-3.4619,-3.4619,-3.4715,-3.4727,-3.4619,-3.4619,-3.457,-3.4511,-3.4499,0.0,0.0,0.0,0.0,0.0,0.0,0.0,0.0,0.0,0.0,0.0,0.0,0.0,0.0,0.0,0.0,0.0,0.0,0.0,0.0,0.0,0.0,0.0,0.0,0.0,0.0,0.0,0.0,0.0,0.0,0.0,0.0,0.0,0.0,0.0,0.0,0.0,0.0,0.0,0.0,0.0,0.0,0.0,0.0,0.0,0.0,0.0,0.0,0.0,0.0,0.0,0.0,0.0,0.0,0.0,0.0,0.0,0.0,0.0,-2.376,-2.3264,0.0,0.0,0.0,0.0,0.0,0.0,0.0,0.0,0.0,0.0,0.0,0.0,0.0,0.0,0.0,0.0,0.0,0.0,0.0,0.0,0.0,0.0,0.0,0.0,0.0,0.0,0.0,0.0,0.0,0.0,0.0,0.0,0.0,0.0,0.0,0.0,0.0,0.0,0.0,0.0,-3.4751,-3.4775,-3.4775,-3.4775,-3.4775,-3.4775,-3.4775,-3.4775,-3.4775,-3.4775,-3.4775,0.0,0.0,0.0,0.0,0.0,0.0,0.0,0.0,0.0,0.0,0.0,0.0,0.0,0.0,0.0,0.0,0.0,0.0,0.0,0.0,0.0,0.0,0.0,0.0,0.0,0.0,0.0,0.0,0.0,0.0,0.0,0.0,0.0,0.0,0.0,0.0,0.0,0.0,0.0,0.0,0.0,0.0,0.0,0.0,0.0,0.0,0.0,0.0,0.0,0.0,0.0,0.0,0.0,-2.3937,-2.3875,-2.4054,-2.5215,-2.581,-2.5898,-2.4738,-2.4351,-2.4528,-2.5019,0.0,0.0,0.0,0.0,0.0,0.0,0.0,0.0,0.0,0.0,0.0,0.0,0.0,0.0,0.0,0.0,0.0,0.0,0.0,0.0,0.0,0.0,-3.2629,-3.2629,-3.3052,-3.3051,-3.1798,0.0,0.0,0.0,0.0,0.0,0.0,0.0,0.0,0.0,0.0,0.0,-3.4775,-3.4775,-3.4775,-3.4775,-3.4775,-3.4775,-3.4775,-3.4775,-3.4775,-3.4775,-3.4775,-3.4775,0.0,0.0,0.0,0.0,0.0,0.0,0.0,0.0,0.0,0.0,0.0,0.0,0.0,0.0,0.0,0.0,0.0,0.0,0.0,0.0,0.0,0.0,0.0,0.0,0.0,0.0,0.0,0.0,0.0,0.0,0.0,0.0,-2.1696,-2.1696,0.0,0.0,0.0,0.0,0.0,0.0,0.0,0.0,0.0,0.0,0.0,0.0,0.0,-2.3979,-2.5179,-2.541,-2.5434,-2.5247,-2.66,-2.6871,-2.6203,-2.707,-2.7853,-2.857,-2.7621,0.0,-2.6237,-2.6907,0.0,0.0,0.0,0.0,0.0,0.0,0.0,0.0,0.0,0.0,0.0,0.0,0.0,0.0,0.0,0.0,0.0,0.0,0.0,0.0,0.0,0.0,-3.3191,-3.3191,-3.3574,-3.3874,-3.366,-3.3443,-3.3284,-3.3191,-3.3586,-3.3922,0.0,0.0,0.0,0.0,0.0,0.0,-3.4775,-3.4775,-3.4775,-3.4775,-3.4775,-3.4775,-3.4775,-3.4775,-3.4775,-3.4775,-3.4775,-3.4775,-3.4775,-3.4775,0.0,0.0,0.0,0.0,0.0,0.0,0.0,0.0,0.0,0.0,0.0,0.0,0.0,0.0,0.0,0.0,0.0,0.0,0.0,0.0,0.0,0.0,0.0,0.0,0.0,0.0,0.0,0.0,0.0,-2.2052,-2.2176,-2.1731,-2.2631,-2.2952,0.0,0.0,0.0,0.0,0.0,0.0,0.0,0.0,0.0,-2.7369,-2.6486,-2.6616,-2.8035,-2.7402,-2.732,-2.79,-2.8156,-2.8225,-2.8145,-2.8931,-2.9506,-2.9884,-2.9914,-2.9732,-2.931,-2.8705,-2.8046,-2.7457,0.0,0.0,0.0,0.0,-2.8591,-2.8688,-2.9326,-2.9515,-2.9435,-2.9796,0.0,0.0,0.0,0.0,0.0,0.0,0.0,-3.3358,-3.3358,-3.3755,-3.415,-3.415,-3.4318,-3.4438,-3.4438,-3.4306,-3.415,-3.415,-3.433,-3.4438,-3.4438,-3.4631,0.0,0.0,0.0,-3.4775,-3.4775,-3.5039,-3.5268,-3.5268,-3.5533,-3.5593,-3.5292,-3.5268,-3.5148,-3.4799,-3.4775,-3.4775,-3.4775,-3.4775,-3.4775,0.0,0.0,0.0,0.0,0.0,0.0,0.0,0.0,0.0,0.0,0.0,0.0,0.0,0.0,0.0,0.0,0.0,0.0,0.0,0.0,0.0,0.0,0.0,0.0,0.0,0.0,0.0,0.0,-2.2269,-2.2469,-2.1932,-2.3178,-2.3654,0.0,0.0,0.0,0.0,0.0,0.0,-2.7186,-2.7327,-2.8049,-2.9522,-2.8622,-2.8826,-3.0396,-2.9328,-2.9137,-2.9995,-2.9829,-2.9796,-2.9966,-3.0558,-3.0937,-3.1199,-3.1512,-3.1782,-3.1873,-3.0349,-2.955,-2.9334,-2.988,-3.0111,-3.0101,-3.0101,-3.0345,-3.0588,-3.0588,-3.0579,-3.0591,-3.0727,-3.1147,-3.154,-3.154,0.0,0.0,0.0,0.0,-3.4223,-3.4353,-3.4734,-3.5015,-3.5196,-3.5232,-3.5232,-3.5232,-3.5232,-3.5148,-3.4835,-3.4775,-3.4775,-3.4775,-3.4775,0.0,-3.4955,0.0,-3.5027,-3.5208,-3.5581,-3.5821,-3.5821,-3.617,-3.6242,-3.5857,-3.5821,-3.5653,-3.5256,-3.51,-3.4979,-3.4979,-3.4847,-3.4775,-3.4775,0.0,0.0,0.0,0.0,0.0,0.0,0.0,0.0,0.0,0.0,0.0,0.0,0.0,0.0,0.0,0.0,0.0,0.0,0.0,0.0,0.0,0.0,0.0,0.0,0.0,0.0,0.0,0.0,0.0,-2.2245,-2.2713,0.0,0.0,0.0,0.0,-2.5402,-2.7566,-2.8922,-2.8943,-2.8256,-2.8763,-3.0743,-2.9371,-2.9373,-3.1043,-3.1011,-3.0824,-3.0494,-3.2083,-3.248,-3.1682,-3.1736,-3.2168,-3.2941,-3.2114,-3.2287,-3.2918,-3.1894,-3.0812,-2.9747,-2.9798,-2.9874,-2.9921,-2.9921,-3.07,-3.172,-3.172,-3.1655,-3.1719,-3.221,-3.2677,-3.3078,-3.3078,-3.3487,0.0,0.0,-3.4311,-3.4895,-3.5399,-3.5519,-3.5701,-3.6206,-3.6326,-3.6326,-3.6326,-3.6326,-3.6026,-3.4979,-3.4775,-3.4775,-3.4775,0.0,-3.4955,-3.5497,-3.5581,-3.5761,-3.6266,-3.635,-3.6362,-3.6362,-3.6386,-3.6398,-3.6362,-3.6362,-3.6362,-3.6326,-3.5857,-3.5581,-3.5581,-3.5051,-3.4775,-3.4775,-3.4775,0.0,0.0,0.0,0.0,0.0,0.0,0.0,0.0,0.0,0.0,0.0,0.0,0.0,0.0,0.0,0.0,0.0,0.0,0.0,0.0,0.0,0.0,0.0,0.0,0.0,0.0,0.0,0.0,-2.4634,-2.5852,0.0,-2.5809,-2.7213,-2.8072,-2.7776,-2.889,-2.9876,-3.0691,-3.0747,-3.1236,-3.2274,-3.1802,-3.1902,-3.2825,-3.2836,-3.3114,-3.3529,-3.4157,-3.4443,-3.452,-3.452,-3.4645,-3.4939,-3.4645,-3.4917,-3.5502,-3.5146,-3.3779,-3.1971,-3.2337,-3.2498,-3.2601,-3.2948,-3.3356,-3.3722,-3.3722,-3.3696,-3.3794,-3.4303,-3.4622,-3.4824,-3.5129,-3.5381,-3.5532,-3.5532,-3.5695,-3.5881,-3.6074,-3.6122,-3.617,-3.6362,-3.6411,-3.6411,-3.6411,-3.6411,-3.629,-3.5918,-3.5845,-3.5845,-3.5845,-3.5845,-3.5905,-3.6098,-3.6122,-3.6194,-3.6386,-3.6699,-3.6904,-3.6904,-3.7216,-3.7276,-3.694,-3.6904,-3.6771,-3.6423,-3.623,-3.6122,-3.6122,-3.5617,-3.5328,-3.5328,-3.5004,-3.4775,0.0,0.0,0.0,0.0,0.0,0.0,0.0,0.0,0.0,0.0,0.0,0.0,0.0,0.0,0.0,0.0,0.0,0.0,0.0,0.0,0.0,0.0,0.0,0.0,0.0,0.0,-2.5728,-2.6125,-2.7562,-2.8246,-2.7559,-2.8751,-2.9579,-2.9579,-3.0393,-3.1245,-3.2036,-3.259,-3.3082,-3.3541,-3.3704,-3.4021,-3.4524,-3.4524,-3.484,-3.5463,-3.5463,-3.5638,-3.6023,-3.6187,-3.6302,-3.6302,-3.6522,-3.6857,-3.7189,-3.7189,-3.6185,-3.4699,-3.4764,-3.4691,-3.4594,-3.4959,-3.5166,-3.5322,-3.5115,-3.5166,-3.5374,-3.5528,-3.5734,-3.5939,-3.6297,-3.6411,-3.6411,-3.6411,-3.6411,-3.6447,-3.6627,-3.6675,-3.6711,-3.6892,-3.694,-3.694,-3.694,-3.694,-3.694,-3.694,-3.6651,-3.6411,-3.6411,-3.6411,-3.6471,-3.6639,-3.6675,-3.6735,-3.6916,-3.724,-3.7457,-3.7457,-3.7769,-3.7841,-3.7493,-3.7457,-3.7312,-3.6952,-3.6771,-3.6675,-3.6675,-3.6158,-3.5797,-3.5617,-3.5051,-3.4871,-3.5051,0.0,0.0,0.0,0.0,0.0,0.0,0.0,0.0,0.0,0.0,0.0,0.0,0.0,0.0,0.0,0.0,0.0,0.0,0.0,0.0,0.0,0.0,0.0,-2.4534,-2.5632,-2.6681,-2.6749,-2.7509,-2.8056,-2.8077,-2.958,-3.0568,-3.0568,-3.2188,-3.3168,-3.3168,-3.3584,-3.4087,-3.4556,-3.5004,-3.5474,-3.6045,-3.6045,-3.6056,-3.6009,-3.6009,-3.6067,-3.6067,-3.6682,-3.6959,-3.7016,-3.7565,-3.7849,-3.7849,-3.7849,-3.7895,-3.7779,-3.6746,-3.6089,-3.5674,-3.5726,-3.6034,-3.6456,-3.5932,-3.6086,-3.6405,-3.588,-3.6098,-3.6507,-3.6507,-3.6507,-3.6507,-3.6507,-3.6507,-3.6627,-3.7132,-3.7264,-3.7397,-3.7914,-3.8034,-3.8034,-3.8034,-3.8034,-3.8034,-3.8034,-3.7204,-3.6495,-3.6459,-3.6459,-3.6627,-3.7144,-3.7216,0.0,-3.7914,-3.7986,-3.7986,-3.7986,-3.7986,-3.7986,-3.7986,-3.7986,-3.7986,-3.7986,-3.7505,-3.7216,-3.7216,-3.6711,-3.6182,-3.5653,-3.5087,-3.5136,-3.5641,0.0,0.0,0.0,0.0,0.0,0.0,0.0,0.0,0.0,0.0,0.0,0.0,0.0,0.0,0.0,0.0,0.0,0.0,0.0,0.0,0.0,0.0,-2.8438,-2.6941,-2.7703,-2.888,-3.0095,-3.0456,-3.0884,-3.1622,-3.2081,-3.2402,-3.2402,-3.3465,-3.413,-3.413,-3.4917,-3.543,-3.5561,-3.5692,-3.5998,-3.6489,-3.65,-3.6664,-3.6992,-3.6992,-3.7231,-3.7647,-3.7825,-3.8168,-3.8649,-3.8813,-3.9163,-3.9557,-3.9557,-3.9576,-3.9584,-3.8451,-3.7961,-3.788,-3.834,-3.8611,-3.8677,-3.8557,-3.8623,-3.8677,-3.8557,-3.8611,-3.8719,-3.8719,-3.8719,-3.8719,-3.8719,-3.8719,-3.8755,-3.89,-3.8948,-3.8984,-3.9128,-3.9164,-3.9164,-3.9164,-3.9164,-3.9164,-3.9164,-3.8924,-3.8479,-3.7685,-3.7553,-3.7601,-3.7745,-3.7769,0.0,-3.7962,-3.7986,-3.7986,-3.7986,-3.7986,-3.7986,-3.7986,-3.7986,-3.7986,-3.7986,-3.7841,-3.7769,-3.7769,-3.7264,-3.6723,-3.6194,-3.605,-3.6038,0.0,0.0,0.0,0.0,0.0,0.0,0.0,0.0,0.0,0.0,0.0,0.0,0.0,0.0,0.0,0.0,0.0,0.0,0.0,0.0,0.0,0.0,-2.9461,-2.99,-2.9374,-2.9796,-3.0503,-3.1462,-3.1979,-3.2448,-3.3059,-3.3442,-3.3683,-3.3683,-3.4578,-3.5124,-3.5124,-3.5856,-3.6271,-3.6271,-3.6457,-3.6697,-3.6981,-3.6981,-3.7232,-3.7736,-3.7495,-3.7747,-3.8287,-3.8287,-3.8645,-3.9308,-3.9591,-4.006,-4.0641,-4.0641,-4.0648,0.0,0.0,0.0,0.0,0.0,-3.9609,-3.9609,-3.9609,-3.9609,-3.9609,-3.9609,-3.9609,-3.9609,-3.9609,-3.9609,-3.9609,-3.9609,-3.9609,-3.9609,-3.9609,-3.9609,-3.9609,-3.9609,-3.9609,-3.9609,-3.9609,-3.9609,-3.9609,-3.9609,-3.9609,0.0,-3.8767,-3.8659,-3.8659,-3.8659,-3.8659,-3.8659,-3.8659,-3.8659,-3.8659,-3.8659,-3.8659,-3.8659,-3.8659,-3.8659,0.0,0.0,0.0,-3.8226,-3.7986,-3.7469,0.0,0.0,0.0,-3.6519,-3.6735,-3.6519,0.0,0.0,-3.5485,-3.5485,0.0,0.0,0.0,0.0,0.0,0.0,0.0,0.0,0.0,0.0,0.0,0.0,0.0,0.0,0.0,0.0,-3.0712,-3.1171,-3.1706,-3.1837,-3.187,-3.187,-3.2678,-3.331,-3.3354,-3.4196,-3.4799,-3.4799,-3.5643,-3.6158,-3.6158,0.0,0.0,0.0,0.0,-3.7566,-3.7616,-3.7566,-3.7736,-3.8287,-3.7796,-3.7867,-3.8406,-3.8466,-3.8882,-3.9532,-4.006,-4.0641,-4.1184,-4.1184,-4.1184,-4.1136,-4.0667,-4.0198,-3.9789,-3.9789,-3.9789,-3.9789,-3.9789,0.0,0.0,-3.9789,-3.9789,-3.9789,-3.9789,-3.9789,-3.9789,-3.9789,-3.9789,-3.9789,-3.9789,-3.9789,-3.9789,-3.9789,-3.9789,-3.9789,-3.9789,-3.9789,-3.9789,-3.9789,-3.9789,-3.9789,-3.9789,-3.9681,-3.9609,-3.9609,-3.9609,-3.9609,-3.9609,-3.9609,-3.9609,-3.9609,0.0,0.0,-3.9609,-3.9609,-3.9405,-3.8936,-3.8912,-3.8683,-3.8178,-3.7721,-3.7661,-3.807,-3.7156,-3.6879,-3.7276,-3.6807,-3.6579,-3.6579,-3.6459,-3.6411,0.0,0.0,0.0,0.0,0.0,0.0,0.0,0.0,0.0,0.0,0.0,0.0,0.0,0.0,0.0,-3.1214,-3.1422,-3.1782,-3.2656,-3.3126,-3.3377,-3.3377,-3.389,-3.4392,-3.4753,-3.5765,-3.6463,-3.6463,-3.6952,-3.7286,-3.7286,-3.7766,-3.7974,-3.7974,-3.8063,-3.8406,-3.8942,-3.8406,-3.8167,-3.8287,0.0,0.0,-3.9119,-3.9579,-4.0176,-4.0838,-4.0942,-4.1057,-4.1184,-4.1184,-4.1184,-4.1172,-4.1076,-4.0968,-4.0872,-4.0872,-4.0872,-4.0872,-4.0872,-4.0872,-4.0872,-4.0872,-4.0872,-4.0872,-4.0872,-4.0872,0.0,-4.0872,-4.0872,-4.0872,-4.0872,-4.0872,-4.0872,-4.0872,-4.0872,-4.0872,-4.0872,-4.0872,-4.0872,-4.0872,-4.0872,-4.0872,-4.0872,-4.0174,-3.9609,-3.9609,-3.9609,-3.9609,-3.9609,-3.9609,-3.9609,-3.9609,-3.9609,-3.9609,-3.9609,-3.9609,-3.9561,-3.9453,-3.9453,-3.9405,-3.9296,-3.92,-3.8984,-3.8659,-3.8455,-3.8178,-3.7829,-3.7733,-3.7673,-3.7661,-3.6795,-3.6411,0.0,0.0,0.0,0.0,0.0,0.0,0.0,0.0,0.0,0.0,0.0,-2.9915,0.0,0.0,-3.116,-3.1891,-3.2197,-3.2707,-3.3763,-3.3856,-3.3989,-3.456,-3.4746,-3.5274,-3.642,-3.6993,-3.74,-3.7747,-3.8165,-3.8449,-3.8449,-3.8687,-3.8823,-3.8823,-3.8823,-3.8942,-3.9308,-3.8942,-3.8942,-3.9226,-3.9297,-3.9473,-3.9767,-3.9767,-4.0118,-4.0699,-4.0699,-4.0884,-4.1184,-4.1184,-4.1184,-4.1184,-4.1184,-4.1184,-4.1184,-4.1184,-4.1184,-4.1184,-4.1184,-4.1184,-4.1184,-4.1184,-4.1184,-4.1184,-4.1184,-4.1184,-4.1184,-4.1184,-4.1184,-4.1184,-4.1184,-4.1184,-4.1184,-4.1184,-4.1184,-4.1184,-4.1184,-4.1184,-4.1184,-4.1184,-4.1184,-4.1184,-4.1184,-4.0739,-4.0391,-4.0391,-4.0391,-4.0391,-4.0391,-4.0391,-4.0391,-4.0391,-4.0391,-4.0391,-4.0391,-4.015,-4.0006,-4.0006,-3.9753,-3.9609,-3.9609,-3.9609,-3.9477,-3.9224,-3.9212,-3.908,-3.8791,-3.8791,-3.8791,-3.8779,-3.825,-3.7709,0.0,0.0,0.0,0.0,0.0,0.0,0.0,0.0,-3.0239,-2.9859,-3.0244,-3.0729,-3.1002,-3.1534,-3.2123,-3.2715,-3.3175,-3.3754,-3.4685,-3.4613,-3.4802,-3.5846,-3.5679,-3.6158,-3.7782,-3.802,-3.8327,-3.8862,-3.9243,-3.9473,-3.9473,-3.9473,-3.9473,-3.9473,-3.9473,-3.9532,-3.9661,-3.9532,-3.9708,-4.0223,-3.9826,-3.9942,-4.0317,-3.9977,-4.0153,-4.0704,-4.0704,-4.1008,-4.1485,-4.1485,-4.1485,-4.1485,-4.1485,-4.1485,-4.1473,-4.1256,-4.1184,-4.1184,-4.1184,-4.1184,-4.1184,-4.1184,-4.1184,-4.1184,-4.1184,-4.1184,-4.1184,-4.1184,-4.1184,-4.1184,-4.1184,-4.1184,-4.1184,-4.1184,-4.1184,-4.1184,-4.1184,-4.1184,-4.1184,-4.1184,-4.1184,-4.1184,-4.1184,-4.1184,-4.1184,-4.1184,-4.1184,-4.1184,-4.1184,-4.1184,-4.1184,-4.1184,-4.1184,-4.1184,-4.1184,-4.0787,-4.0547,-4.0547,-4.015,-3.991,-3.991,-3.991,-3.9862,-3.9765,-3.9765,-3.9705,-3.9609,-3.9609,-3.9609,-3.9609,-3.9609,-3.914,-2.928,-2.9941,-3.0747,-3.1292,-3.107,-3.087,0.0,0.0,-3.0886,-3.0838,-3.1569,-3.2105,-3.1607,-3.2358,-3.3313,-3.4305,-3.4506,-3.4708,-3.5232,-3.6124,-3.6924,-3.7461,-3.7065,-3.7199,-3.8401,-3.9372,-3.9966,-4.0024,-4.0071,-4.0106,-4.0106,-4.0106,-4.0106,-4.0106,-4.0106,-4.0409,-4.1,-4.0409,-4.0106,-4.0235,-4.0769,-4.0949,-4.0916,-4.1459,-4.2016,-4.252,-4.252,-4.2579,-4.2651,-4.2651,-4.2651,-4.2651,-4.2651,-4.2651,-4.253,-4.1533,-4.1184,-4.1184,-4.1184,-4.1184,-4.1184,-4.1184,-4.1184,-4.1184,-4.1184,-4.1184,-4.1184,-4.1184,-4.1184,-4.1184,-4.1184,-4.1184,-4.1184,-4.1184,-4.1184,-4.1184,-4.1184,-4.1184,-4.1184,-4.1184,-4.1184,-4.1184,-4.1184,-4.1184,-4.1184,-4.1184,-4.1184,-4.1184,-4.1184,-4.1184,-4.1184,-4.1184,-4.1184,-4.1184,-4.1184,-4.1136,-4.11,-4.11,-4.104,-4.1004,-4.1004,-4.1004,-4.0787,-4.0319,-4.0306,-4.0078,-3.9609,-3.9609,-3.9609,-3.9609,-3.9609,-3.9549,-2.9677,-3.0771,-3.1793,0.0,-3.1982,-3.2276,-3.2171,-3.224,-3.2216,-3.1925,-3.2662,-3.3179,-3.263,-3.3652,-3.4581,0.0,-3.5233,-3.5922,-3.6732,-3.6996,-3.7657,-3.9137,-3.8777,-3.8861,-3.9985,-4.0163,-4.0351,-4.0757,-4.0757,-4.0757,-4.0757,-4.0757,-4.0757,-4.0757,-4.0757,-4.0942,-4.1184,-4.0942,-4.0923,-4.128,-4.1525,-4.1801,-4.2067,-4.2364,-4.2614,-4.2819,-4.2819,-4.2819,-4.2819,-4.2819,-4.2819,-4.2819,-4.2819,-4.2819,-4.2771,-4.2325,-4.2157,-4.2157,-4.2157,-4.2157,-4.2157,-4.2157,-4.2157,-4.2157,-4.2157,-4.2157,-4.2157,-4.2157,-4.2157,-4.2157,-4.2157,-4.2157,-4.2157,-4.2157,-4.2157,-4.2157,-4.2157,-4.2157,-4.2157,-4.2157,-4.2157,-4.2157,-4.2157,-4.2157,-4.2157,-4.2157,-4.1581,-4.1184,-4.1184,-4.1184,-4.1184,-4.1184,-4.1184,-4.1184,-4.1184,-4.1184,-4.1184,-4.1184,-4.1184,-4.1184,-4.1184,-4.1184,-4.1076,-4.086,-4.086,-4.0739,-4.0523,-4.0523,-4.0523,-4.0523,-4.0523,-4.0523,-3.0567,-3.1601,-3.2442,-3.2178,-3.2711,-3.3207,-3.2995,-3.3207,-3.333,-3.2989,-3.3746,-3.4294,-3.3724,-3.4806,-3.5638,-3.5381,-3.6036,-3.682,-3.7782,-3.7859,-3.8404,-3.9989,-4.0045,-4.0283,-4.1148,-4.0769,-4.0711,-4.1184,-4.1184,-4.1184,-4.1184,-4.1184,-4.1184,-4.1184,-4.1184,-4.1184,-4.1184,-4.1329,-4.1593,-4.1978,-4.2122,-4.2459,-4.2976,-4.3132,-4.3192,-4.3192,-4.3192,-4.3192,-4.3192,-4.3192,-4.3192,-4.3192,-4.3192,-4.3192,-4.3192,-4.3192,-4.3012,-4.2819,-4.2819,-4.2819,-4.2819,-4.2819,-4.2819,-4.2819,-4.2819,-4.2819,-4.2819,-4.2819,-4.2819,-4.2819,-4.2819,-4.2819,-4.2819,-4.2819,-4.2819,-4.2819,-4.2819,-4.2819,-4.2819,-4.2819,-4.2819,-4.2819,-4.2819,-4.2819,-4.2819,-4.2819,-4.2169,-4.1617,-4.1617,-4.1617,-4.1617,-4.1617,-4.1617,-4.1617,-4.1617,-4.1485,-4.1401,-4.1401,-4.1256,-4.1184,-4.1184,-4.1184,-4.1184,-4.1184,-4.1184,-4.1184,-4.1184,-4.1184,-4.1184,-4.1184,-4.1184,-4.1184,-3.2142,-3.2466,-3.2623,-3.3116,-3.3256,-3.3337,-3.3827,-3.3992,-3.3967,-3.3967,-3.4788,-3.5372,-3.4843,-3.5585,-3.6414,-3.6972,-3.7066,-3.7265,-3.7825,-3.8852,-3.9487,-3.9559,-4.0481,-4.116,0.0,-4.1184,-4.1184,-4.1184,-4.1184,-4.1184,-4.1184,-4.1184,-4.1184,-4.1184,-4.1184,-4.1184,-4.1184,-4.1689,-4.1954,-4.1978,-4.2554,-4.3,-4.3505,-4.3997,-4.4237,-4.4237,-4.4237,-4.4237,-4.4237,-4.4237,-4.4237,-4.4237,-4.4237,-4.4237,-4.4237,-4.4237,-4.3649,-4.2819,-4.2819,-4.2819,-4.2819,-4.2819,-4.2819,-4.2819,-4.2819,-4.2819,-4.2819,-4.2819,-4.2819,-4.2819,-4.2819,-4.2819,-4.2819,-4.2819,-4.2819,-4.2819,-4.2819,-4.2819,-4.2819,-4.2819,-4.2819,-4.2819,-4.2819,-4.2819,-4.2819,-4.2819,-4.2795,-4.2771,-4.2771,-4.2771,-4.2771,-4.2771,-4.2771,-4.2771,-4.2771,-4.2301,-4.2012,-4.2012,-4.1473,-4.1184,-4.1184,-4.1184,-4.1184,-4.1184,-4.1184,-4.1184,-4.1184,-4.1184,-4.1184,-4.1184,-4.1184,-4.1184,-3.2298,-3.3008,-3.3514,-3.3694,-3.4031,-3.4317,-3.451,-3.4546,-3.4531,-3.4531,-3.5372,-3.5941,-3.5425,-3.6454,-3.7346,-3.7162,-3.7453,-3.803,-3.8926,-3.9378,-3.9878,-4.0571,-4.0961,0.0,0.0,0.0,0.0,-4.1184,-4.1184,-4.1184,-4.1184,-4.1184,-4.1184,-4.1184,-4.1184,-4.1353,-4.1701,-4.1882,-4.2315,-4.3,-4.3553,-4.3902,-4.4009,-4.4201,-4.4285,-4.4285,-4.4285,-4.4285,-4.4285,-4.4285,-4.4285,-4.4285,-4.4285,-4.4285,-4.4285,-4.4285,-4.4057,-4.3818,-4.3818,-4.3818,-4.3818,-4.3818,-4.3818,-4.3818,-4.3818,-4.3818,-4.3818,-4.3818,-4.3818,-4.3818,-4.3818,-4.3818,-4.3818,-4.3818,-4.3818,-4.3818,-4.3818,-4.3818,-4.3818,-4.3818,-4.3818,-4.3818,-4.3818,-4.3818,-4.3818,-4.3818,-4.3216,-4.2819,-4.2819,-4.2819,-4.2819,-4.2819,-4.2819,-4.2819,-4.2819,-4.2651,-4.2554,-4.2554,-4.2386,-4.2074,-4.1725,-4.1701,-4.1533,-4.1196,-4.1184,-4.1184,-4.1184,-4.1184,-4.1184,-4.1184,-4.1184,-4.1184,-3.2851,-3.349,-3.4042,-3.4234,-3.4534,-3.4775,-3.4775,-3.4775,-3.4775,-3.4775,-3.5521,-3.6081,-3.5928,-3.686,-3.7652,-3.7471,-3.7773,-3.8359,-3.9453,-3.9609,-4.0006,-4.1052,-4.1184,-4.1184,0.0,0.0,0.0,-4.1184,-4.1184,-4.1184,-4.1184,-4.1184,-4.1184,-4.1184,-4.1365,-4.1629,-4.1978,-4.2339,-4.2952,-4.3818,-4.4117,-4.4285,-4.4285,-4.4285,-4.4285,-4.4285,-4.4285,-4.4285,-4.4285,-4.4285,-4.4285,-4.4285,-4.4285,-4.4285,-4.4285,-4.4285,-4.4285,-4.4285,-4.4285,-4.4285,-4.4285,-4.4285,-4.4285,-4.4285,-4.4285,-4.4285,-4.4285,-4.4285,-4.4285,-4.4285,-4.4285,-4.4285,-4.4285,-4.4285,-4.4285,-4.4285,-4.4285,-4.4285,-4.4285,-4.4285,-4.4285,-4.4285,-4.4285,-4.4285,-4.4285,-4.4285,-4.377,-4.3325,-4.3325,-4.3325,-4.3325,-4.3325,-4.3325,-4.3325,-4.3325,-4.3144,-4.3024,-4.3024,-4.2916,-4.2675,-4.2325,-4.2313,-4.2145,-4.1749,-4.1557,-4.1473,-4.1473,-4.128,-4.1184,-4.1184,-4.1184,-4.1184,-3.373,-3.4018,-3.415,-3.4655,-3.4775,-3.4775,-3.4775,-3.4775,-3.4775,-3.4775,-3.5244,-3.5773,0.0,0.0,-3.736,-3.7866,-3.7962,-3.8359,-3.9453,-3.9609,-4.0006,0.0,0.0,0.0,0.0,0.0,0.0,-4.1184,0.0,-4.1184,-4.1184,-4.1184,-4.1196,-4.122,-4.1713,-4.199,-4.205,-4.3048,-4.3818,-4.4285,-4.4285,-4.4285,-4.4285,-4.4285,-4.4285,-4.4285,-4.4285,-4.4285,-4.4285,-4.4285,-4.4285,-4.4285,-4.4285,-4.4285,-4.4285,-4.4285,-4.4285,-4.4285,-4.4285,-4.4285,-4.4285,-4.4285,-4.4285,-4.4285,-4.4285,-4.4285,-4.4285,-4.4285,-4.4285,-4.4285,-4.4285,-4.4285,-4.4285,-4.4285,-4.4285,-4.4285,-4.4285,-4.4285,-4.4285,-4.4285,-4.4285,-4.4285,-4.4285,-4.4285,-4.4285,-4.4285,-4.4285,-4.4285,-4.4285,-4.4285,-4.4285,-4.4285,-4.4285,-4.4285,-4.4285,-4.3854,-4.3553,-4.3553,-4.3108,-4.2891,-4.2855,-4.2855,-4.2843,-4.2819,-4.2325,-4.2061,-4.1978,-4.1473,-4.1208,-4.1184,-4.1184,-4.1184,-3.3922,-3.4282,-3.4619,-3.4751,-3.4775,-3.4775,-3.4775,-3.4775,-3.4775,-3.4775,-3.5244,-3.5653,0.0,0.0,0.0,-3.7372,-3.7721,0.0,-3.9453,-3.9609,0.0,-4.1052,0.0,-4.1184,-4.1184,-4.1184,0.0,0.0,-4.1184,-4.1184,-4.1184,-4.1184,-4.1365,-4.1761,-4.1906,-4.2339,-4.3108,-4.3794,-4.4141,-4.4285,-4.4285,-4.4285,-4.4285,-4.4285,-4.4285,-4.4285,-4.4285,-4.4285,-4.4285,-4.4285,-4.4285,-4.4285,-4.4285,-4.4285,-4.4285,-4.4285,-4.4285,-4.4285,-4.4285,-4.4285,-4.4285,-4.4285,-4.4285,-4.4285,-4.4285,-4.4285,-4.4285,-4.4285,-4.4285,-4.4285,-4.4285,-4.4285,-4.4285,-4.4285,-4.4285,-4.4285,-4.4285,-4.4285,-4.4285,-4.4285,-4.4285,-4.4285,-4.4285,-4.4285,-4.4285,-4.4285,-4.4285,-4.4285,-4.4285,-4.4285,-4.4285,-4.4285,-4.4285,-4.4285,-4.4285,-4.4153,-4.4069,-4.4069,-4.3949,-4.3758,-4.3337,-4.3325,-4.3144,-4.2831,-4.2687,-4.2422,-4.1978,-4.1834,-4.1569,-4.1184,-4.1184,-4.1184,-3.4282,-3.4546,-3.4775,-3.4775,-3.4775,-3.4775,-3.4775,-3.4775,-3.4775,-3.4775,-3.5015,0.0,0.0,0.0,0.0,0.0,0.0,0.0,-3.9417,-3.9609,-4.0006,0.0,-4.1184,0.0,-4.1184,-4.1184,-4.1184,0.0,-4.1184,-4.1184,-4.1184,-4.1184,-4.1425,-4.1954,-4.2253,-4.282,-4.3866,-4.4129,-4.4285,-4.4285,-4.4285,-4.4285,-4.4285,-4.4285,-4.4285,-4.4285,-4.4285,-4.4285,-4.4285,-4.4285,-4.4285,-4.4285,-4.4285,-4.4285,-4.4285,-4.4285,-4.4285,-4.4285,-4.4285,-4.4285,-4.4285,-4.4285,-4.4285,-4.4285,-4.4285,-4.4285,-4.4285,-4.4285,-4.4285,-4.4285,-4.4285,-4.4285,-4.4285,-4.4285,-4.4285,-4.4285,-4.4285,-4.4285,-4.4285,-4.4285,-4.4285,-4.4285,-4.4285,-4.4285,-4.4285,-4.4285,-4.4285,-4.4285,-4.4285,-4.4285,-4.4285,-4.4285,-4.4285,-4.4285,-4.4285,-4.4285,-4.4285,-4.4285,-4.4285,-4.4141,-4.389,-4.3878,-4.3746,-4.3457,-4.3216,-4.294,-4.2651,-4.2194,-4.1822,-4.1521,-4.1293,-4.1184,-3.4655,-3.4775,-3.4775,-3.4775,-3.4775,-3.4775,-3.4775,-3.4775,-3.4775,-3.4775,0.0,-3.4919,-3.5425,-3.5569,-3.5942,-3.6928,0.0,-3.7757,-3.9381,-3.9609,-4.0006,-4.1052,-4.1184,-4.1184,-4.1184,-4.1184,-4.1184,-4.1184,-4.1184,-4.1184,-4.1184,-4.1244,-4.1557,-4.2158,-4.2687,-4.3409,-4.4273,-4.4285,-4.4285,-4.4285,-4.4285,-4.4285,-4.4285,-4.4285,-4.4285,-4.4285,-4.4285,-4.4285,-4.4285,-4.4285,-4.4285,-4.4285,-4.4285,-4.4285,-4.4285,-4.4285,-4.4285,-4.4285,-4.4285,-4.4285,-4.4285,-4.4285,-4.4285,-4.4285,-4.4285,-4.4285,-4.4285,-4.4285,-4.4285,-4.4285,-4.4285,-4.4285,-4.4285,-4.4285,-4.4285,-4.4285,-4.4285,-4.4285,-4.4285,-4.4285,-4.4285,-4.4285,-4.4285,-4.4285,-4.4285,-4.4285,-4.4285,-4.4285,-4.4285,-4.4285,-4.4285,-4.4285,-4.4285,-4.4285,-4.4285,-4.4285,-4.4285,-4.4285,-4.4285,-4.4285,-4.4285,-4.4285,-4.4285,-4.4285,-4.3866,-4.3589,-4.3505,-4.2543,-4.2038,-4.2012,-4.1425,-4.1184,-3.4751,-3.4775,-3.4775,-3.4775,-3.4775,-3.4775,-3.4775,-3.4775,0.0,0.0,0.0,-3.4811,-3.4895,-3.5328,0.0,-3.6447,0.0,0.0,0.0,0.0,-4.0006,0.0,0.0,0.0,0.0,0.0,0.0,0.0,-4.1184,-4.1184,-4.1184,-4.1605,-4.2267,-4.3216,-4.3782,-4.4093,-4.4285,-4.4285,-4.4285,-4.4285,-4.4285,-4.4285,-4.4285,-4.4285,-4.4285,-4.4285,-4.4285,0.0,-4.4285,-4.4285,-4.4285,-4.4285,-4.4285,-4.4285,-4.4285,-4.4285,-4.4285,-4.4285,-4.4285,-4.4285,-4.4285,-4.4285,-4.4285,-4.4285,-4.4285,-4.4285,-4.4285,-4.4285,-4.4285,-4.4285,-4.4285,-4.4285,-4.4285,-4.4285,-4.4285,-4.4285,-4.4285,-4.4285,-4.4285,-4.4285,-4.4285,-4.4285,-4.4285,-4.4285,-4.4285,-4.4285,-4.4285,-4.4285,-4.4285,-4.4285,-4.4285,-4.4285,-4.4285,-4.4285,-4.4285,-4.4285,-4.4285,-4.4285,-4.4285,-4.4285,-4.4285,-4.4285,-4.4285,-4.4285,-4.4189,-4.3913,-4.3505,-4.2916,-4.2458,-4.2012,-4.1425,-4.1184,-3.4775,-3.4775,-3.4775,-3.4775,-3.4775,-3.4775,-3.4775,0.0,0.0,0.0,-3.4595,-3.4691,-3.4414,0.0,0.0,0.0,0.0,0.0,0.0,0.0,0.0,0.0,0.0,0.0,0.0,0.0,0.0,0.0,-4.1184,-4.1184,-4.1184,-4.1942,-4.2735,-4.3493,-4.3997,-4.4285,-4.4285,-4.4285,-4.4285,-4.4285,-4.4285,-4.4285,-4.4285,-4.4285,-4.4285,-4.4285,-4.4285,-4.4285,-4.4285,-4.4285,-4.4285,-4.4285,-4.4285,-4.4285,-4.4285,-4.4285,-4.4285,-4.4285,-4.4285,-4.4285,-4.4285,-4.4285,-4.4285,-4.4285,-4.4285,-4.4285,-4.4285,-4.4285,-4.4285,-4.4285,-4.4285,-4.4285,-4.4285,-4.4285,-4.4285,-4.4285,-4.4285,-4.4285,-4.4285,-4.4285,-4.4285,-4.4285,-4.4285,-4.4285,-4.4285,-4.4285,-4.4285,-4.4285,-4.4285,-4.4285,-4.4285,-4.4285,-4.4285,-4.4285,-4.4285,-4.4285,-4.4285,-4.4285,-4.4285,-4.4285,-4.4285,-4.4285,-4.4285,-4.4285,-4.4285,-4.4153,-4.3877,-4.3144,-4.2687,-4.2422,-4.1557,-4.1184,-3.4751,-3.4775,-3.4775,-3.4775,-3.4775,-3.4751,-3.4631,-3.4619,0.0,0.0,-3.421,-3.4402,-3.4054,0.0,0.0,0.0,0.0,0.0,0.0,0.0,0.0,0.0,0.0,0.0,0.0,0.0,0.0,0.0,-4.1184,-4.128,-4.1509,-4.2374,-4.3048,-4.3673,-4.4057,-4.4285,-4.4285,-4.4285,-4.4285,-4.4285,-4.4285,-4.4285,-4.4285,-4.4285,-4.4285,-4.4285,-4.4285,-4.4285,-4.4285,-4.4285,-4.4285,-4.4285,-4.4285,-4.4285,-4.4285,-4.4285,-4.4285,-4.4285,-4.4285,-4.4285,-4.4285,-4.4285,-4.4285,-4.4285,-4.4285,-4.4285,-4.4285,-4.4285,-4.4285,-4.4285,-4.4285,-4.4285,-4.4285,-4.4285,-4.4285,-4.4285,-4.4285,-4.4285,-4.4285,-4.4285,-4.4285,-4.4285,-4.4285,-4.4285,-4.4285,-4.4285,-4.4285,-4.4285,-4.4285,-4.4285,-4.4285,-4.4285,-4.4285,-4.4285,-4.4285,-4.4285,-4.4285,-4.4285,-4.4285,-4.4285,-4.4285,-4.4285,-4.4285,-4.4285,-4.4285,-4.4285,-4.4285,-4.3277,-4.2819,-4.2795,-4.1677,-4.1184,-3.4643,-3.4775,-3.4775,-3.4775,-3.4775,-3.4655,-3.4174,0.0,0.0,-3.3464,-3.3392,-3.3549,-3.3922,-3.403,0.0,0.0,0.0,0.0,0.0,0.0,0.0,0.0,0.0,0.0,0.0,0.0,0.0,0.0,-4.1184,-4.1605,-4.2627,-4.2771,-4.3228,-4.4177,-4.4261,-4.4285,-4.4285,-4.4285,-4.4285,-4.4285,-4.4285,-4.4285,-4.4285,-4.4285,-4.4285,-4.4285,-4.4285,-4.4285,0.0,-4.4285,-4.4285,-4.4285,-4.4285,-4.4285,-4.4285,-4.4285,-4.4285,-4.4285,-4.4285,-4.4285,-4.4285,-4.4285,-4.4285,-4.4285,-4.4285,-4.4285,-4.4285,-4.4285,-4.4285,-4.4285,-4.4285,-4.4285,-4.4285,-4.4285,-4.4285,-4.4285,-4.4285,-4.4285,-4.4285,-4.4285,-4.4285,-4.4285,-4.4285,-4.4285,-4.4285,-4.4285,-4.4285,-4.4285,-4.4285,-4.4285,-4.4285,-4.4285,-4.4285,-4.4285,-4.4285,-4.4285,-4.4285,-4.4285,-4.4285,-4.4285,-4.4285,-4.4285,-4.4285,-4.4285,-4.4285,-4.4285,-4.4285,-4.3277,-4.2819,-4.2795,-4.1677,-4.1184,-3.4246,-3.4534,-3.4775,-3.4775,-3.4546,-3.4246,-3.4042,0.0,0.0,-3.2923,-3.3068,-3.3356,-3.3549,-3.379,-3.4234,0.0,0.0,0.0,0.0,0.0,0.0,0.0,0.0,0.0,0.0,0.0,0.0,0.0,-4.1184,-4.1509,-4.2301,-4.2651,-4.3096,-4.3818,-4.4105,-4.4285,-4.4285,-4.4285,-4.4285,-4.4285,-4.4285,-4.4285,-4.4285,-4.4285,-4.4285,-4.4285,-4.4285,-4.4285,0.0,-4.4285,-4.4285,-4.4285,-4.4285,-4.4285,-4.4285,-4.4285,-4.4285,-4.4285,-4.4285,-4.4285,-4.4285,-4.4285,-4.4285,-4.4285,-4.4285,-4.4285,-4.4285,-4.4285,-4.4285,-4.4285,-4.4285,-4.4285,-4.4285,-4.4285,-4.4285,-4.4285,-4.4285,-4.4285,-4.4285,-4.4285,-4.4285,-4.4285,-4.4285,-4.4285,-4.4285,-4.4285,-4.4285,-4.4285,-4.4285,-4.4285,-4.4285,-4.4285,-4.4285,-4.4285,-4.4285,-4.4285,-4.4285,-4.4285,-4.4285,-4.4285,-4.4285,-4.4285,-4.4285,-4.4285,-4.4285,-4.4117,-4.3842,-4.3108,-4.2651,-4.2325,-4.1533,-4.1184,-3.3729,-3.409,-3.4378,-3.4378,-3.409,-3.373,0.0,0.0,0.0,-3.237,-3.2551,-3.2911,-3.3224,-3.3585,-3.3994,0.0,0.0,-3.623,0.0,0.0,0.0,0.0,0.0,0.0,0.0,0.0,0.0,0.0,-4.1184,-4.1341,-4.1713,-4.2301,-4.276,-4.3277,-4.3673,-4.3878,-4.3878,-4.3878,-4.395,-4.4033,-4.4033,-4.4129,-4.4285,-4.4285,-4.4285,-4.4285,-4.4285,-4.4285,0.0,-4.4285,-4.4285,-4.4285,-4.4285,-4.4285,-4.4285,-4.4285,-4.4285,-4.4285,-4.4285,-4.4285,-4.4285,-4.4285,-4.4285,-4.4285,-4.4285,-4.4285,-4.4285,-4.4285,-4.4285,-4.4285,-4.4285,-4.4285,-4.4285,-4.4285,-4.4285,-4.4285,-4.4285,-4.4285,-4.4285,-4.4285,-4.4285,-4.4285,-4.4285,-4.4285,-4.4285,-4.4285,-4.4285,-4.4285,-4.4285,-4.4285,-4.4285,-4.4285,-4.4285,-4.4285,-4.4285,-4.4285,-4.4285,-4.4285,-4.4285,-4.4285,-4.4285,-4.4285,-4.4285,-4.4285,-4.4129,-4.3902,-4.3505,-4.2856,-4.2398,-4.2012,-4.1425,-4.1184,-3.3008,-3.3308,-3.3308,-3.3308,-3.3308,-3.3164,0.0,0.0,-3.2346,-3.1837,-3.1717,-3.2054,-3.3092,-3.3296,-3.3633,-3.4655,0.0,0.0,0.0,0.0,0.0,0.0,0.0,0.0,0.0,0.0,0.0,0.0,-4.1184,0.0,-4.1196,-4.1701,-4.2218,-4.2807,-4.2831,-4.2843,-4.2843,-4.2843,-4.3024,-4.3517,-4.3517,-4.3806,-4.4285,-4.4285,-4.4285,-4.4285,-4.4285,-4.4285,0.0,-4.4285,-4.4285,-4.4285,-4.4285,-4.4285,-4.4285,-4.4285,-4.4285,-4.4285,-4.4285,-4.4285,-4.4285,-4.4285,-4.4285,-4.4285,-4.4285,-4.4285,-4.4285,-4.4285,-4.4285,-4.4285,-4.4285,-4.4285,-4.4285,-4.4285,-4.4285,-4.4285,-4.4285,-4.4285,-4.4285,-4.4285,-4.4285,-4.4285,-4.4285,-4.4285,-4.4285,-4.4285,-4.4285,-4.4285,-4.4285,-4.4285,-4.4285,-4.4285,-4.4285,-4.4285,-4.4285,-4.4285,-4.4285,-4.4285,-4.4285,-4.4285,-4.4285,-4.4285,-4.4285,-4.4285,-4.3806,-4.3517,-4.3505,-4.2483,-4.1978,-4.2012,-4.1425,-4.1184,-3.2126,-3.2719,-3.3284,-3.3284,-3.302,-3.2707,-3.2539,0.0,-3.1922,-3.1753,-3.1705,-3.2042,-3.3092,-3.3284,-3.3633,-3.4655,-3.5268,0.0,0.0,0.0,0.0,0.0,0.0,0.0,0.0,0.0,0.0,0.0,-4.1184,-4.1184,-4.1184,-4.1341,-4.1677,-4.2265,-4.2627,-4.2819,-4.2819,-4.2819,-4.2844,-4.3,-4.3,-4.3277,-4.377,-4.377,-4.3925,-4.4285,-4.4285,-4.4285,-4.4285,-4.4285,-4.4285,-4.4285,-4.4285,-4.4285,-4.4285,-4.4285,-4.4285,-4.4285,-4.4285,-4.4285,-4.4285,-4.4285,-4.4285,-4.4285,-4.4285,-4.4285,-4.4285,-4.4285,-4.4285,-4.4285,-4.4285,-4.4285,-4.4285,-4.4285,-4.4285,-4.4285,-4.4285,-4.4285,-4.4285,-4.4285,-4.4285,-4.4285,-4.4285,-4.4285,-4.4285,-4.4285,-4.4285,-4.4285,-4.4285,-4.4285,-4.4285,-4.4285,-4.4285,-4.4285,-4.4285,-4.4285,-4.4285,-4.4285,-4.4285,-4.4117,-4.3794,-4.377,-4.3613,-4.3265,-4.3096,-4.282,-4.2459,-4.2134,-4.1786,-4.1425,-4.1256,-4.1184,0.0,-3.1709,-3.2382,-3.2382,-3.2286,0.0,0.0,0.0,-3.1705,-3.1705,-3.1705,-3.2042,-3.3092,-3.3284,-3.3633,-3.4655,0.0,0.0,0.0,0.0,0.0,0.0,0.0,0.0,0.0,0.0,0.0,-4.1184,-4.1184,-4.1184,-4.1184,-4.1184,-4.1329,-4.1665,-4.199,-4.2229,-4.2229,-4.2229,-4.2325,-4.2518,-4.2518,-4.2735,-4.3228,-4.3228,-4.3517,-4.4034,-4.4034,-4.4093,0.0,-4.4285,-4.4285,-4.4285,-4.4285,-4.4285,-4.4285,-4.4285,-4.4285,-4.4285,-4.4285,-4.4285,-4.4285,-4.4285,-4.4285,-4.4285,-4.4285,-4.4285,-4.4285,-4.4285,-4.4285,-4.4285,-4.4285,-4.4285,-4.4285,-4.4285,-4.4285,-4.4285,-4.4285,-4.4285,-4.4285,-4.4285,-4.4285,-4.4285,-4.4285,-4.4285,-4.4285,-4.4285,-4.4285,-4.4285,-4.4285,-4.4285,-4.4201,-4.3997,-4.4034,-4.395,-4.377,-4.3926,-4.4034,-4.4034,-4.3854,-4.3589,-4.3241,-4.3228,-4.3084,-4.2831,-4.2627,-4.2303,-4.1978,-4.1774,-4.1509,-4.1184,-4.1184,-4.1184,0.0,0.0,0.0,0.0,0.0,0.0,0.0,0.0,0.0,-3.1705,-3.1705,-3.2042,-3.3092,-3.3284,-3.3633,0.0,0.0,0.0,0.0,0.0,0.0,0.0,0.0,0.0,0.0,0.0,0.0,-4.1184,-4.1184,-4.1184,-4.1184,-4.1184,-4.1184,-4.1184,-4.1184,-4.1184,-4.1184,-4.1184,-4.1425,-4.1918,-4.1918,-4.2194,-4.2759,-4.2759,-4.2976,0.0,-4.3457,-4.377,-4.4225,-4.4225,-4.4249,-4.4285,-4.4285,-4.4285,-4.4285,-4.4285,-4.4285,-4.4285,-4.4285,-4.4285,-4.4285,-4.4285,-4.4285,-4.4285,-4.4285,-4.4285,-4.4285,-4.4285,-4.4285,-4.4285,-4.4285,-4.4285,-4.4285,-4.4285,-4.4285,-4.4285,-4.4285,-4.4285,-4.4285,-4.4285,-4.4285,-4.4285,-4.4285,-4.4285,-4.4285,-4.4285,-4.4261,-4.4225,-4.4225,-4.4189,-4.3973,-4.3505,-4.3457,-4.3265,-4.2855,-4.3192,-4.3457,-4.3457,-4.3012,-4.2807,-4.2759,-4.2759,-4.2747,-4.2711,-4.2229,-4.1918,-4.1918,-4.1425,-4.1184,-4.1184,-4.1184,-4.1184,-2.8847,0.0,-3.0922,-3.0922,-3.1308,0.0,0.0,0.0,0.0,0.0,0.0,0.0,0.0,0.0,0.0,0.0,0.0,0.0,0.0,0.0,0.0,0.0,0.0,0.0,0.0,0.0,-4.1184,-4.1184,-4.1184,-4.1184,-4.1184,-4.1184,-4.1184,-4.1184,-4.1184,-4.1184,-4.1184,-4.1184,-4.1244,-4.1377,-4.1377,-4.1653,-4.2217,-4.2217,-4.2447,-4.294,-4.294,-4.3228,-4.3709,-4.3709,-4.3962,-4.4285,-4.4285,-4.4285,-4.4285,-4.4285,-4.4285,-4.4285,-4.4285,-4.4285,-4.4285,-4.4285,-4.4285,-4.4285,-4.4285,-4.4285,-4.4285,-4.4285,-4.4285,-4.4285,-4.4285,-4.4285,-4.4285,-4.4285,-4.4285,-4.4285,-4.4285,-4.4285,-4.4285,-4.4285,-4.4285,-4.4285,-4.4285,-4.4285,-4.4285,-4.4285,-4.3925,-4.3709,-4.3709,-4.3373,-4.3084,-4.3012,-4.294,-4.2952,-4.2831,-4.2928,-4.294,-4.294,-4.2891,-4.2639,-4.217,-4.2217,-4.2024,-4.1557,-4.1437,-4.1377,-4.1365,-4.1244,-4.1184,-4.1184,-4.1184,-4.1184,-2.851,-2.9484,-3.0506,-3.0506,-3.1139,-3.1705,0.0,0.0,0.0,0.0,0.0,0.0,0.0,0.0,0.0,0.0,0.0,0.0,0.0,0.0,0.0,0.0,0.0,0.0,0.0,0.0,-4.1184,-4.1184,-4.1184,-4.1184,-4.1184,-4.1184,-4.1184,-4.1184,-4.1184,-4.1184,-4.1184,-4.1184,-4.1184,-4.1184,-4.1184,-4.1329,-4.1605,-4.1605,-4.1906,-4.2458,-4.2458,-4.2687,-4.3168,-4.3168,-4.3349,-4.3625,-4.3625,-4.3758,-4.3901,-4.3901,-4.4069,-4.4285,-4.4285,-4.4285,-4.4285,-4.4285,-4.4285,-4.4285,-4.4285,-4.4285,-4.4285,-4.4285,-4.4285,-4.4285,-4.4285,-4.4285,-4.4225,-4.3961,-4.3901,-4.4011,-4.4257,-4.4305,-4.4135,-4.371,-4.3625,-4.3625,-4.3625,-4.3625,-4.3625,-4.3625,-4.3361,-4.3168,-4.3168,-4.2988,-4.2723,-4.2482,-4.2458,-4.2303,-4.2121,-4.2097,-4.2193,-4.2446,-4.2229,-4.1964,-4.1617,-4.1605,-4.1473,-4.1196,-4.1184,-4.1184,-4.1184,-4.1184,-4.1184,-4.1184,-4.1184,-4.1184,-2.851,-2.922,-2.9989,-3.0062,-3.0819,-3.1609,0.0,0.0,0.0,0.0,0.0,0.0,0.0,0.0,0.0,0.0,0.0,0.0,0.0,0.0,0.0,0.0,0.0,0.0,0.0,-4.1184,-4.1184,-4.1184,-4.1184,-4.1184,-4.1184,-4.1184,-4.1184,-4.1184,-4.1184,-4.1184,-4.1184,-4.1184,-4.1184,-4.1184,-4.1184,-4.1184,-4.1184,-4.1184,-4.1425,-4.1858,0.0,0.0,-4.2699,-4.2699,-4.2747,-4.2819,-4.2819,-4.3024,-4.3397,-4.3397,-4.3697,-4.4045,-4.4045,-4.4045,-4.4045,-4.4045,-4.4045,-4.4045,-4.4045,-4.4045,-4.4045,-4.4045,-4.4093,-4.4141,-4.4069,-4.4045,-4.3986,-4.3505,-4.3397,-4.3554,-4.3986,-4.4093,-4.3792,-4.2735,-4.2556,-4.2628,-4.2747,-4.2819,-4.2819,-4.2819,-4.2747,-4.2699,-4.2699,-4.2627,-4.241,-4.2011,-4.1962,-4.1782,-4.1393,-4.1299,-4.1492,-4.1997,-4.1483,-4.1184,-4.1184,-4.1184,-4.1184,-4.1184,-4.1184,-4.1184,-4.1184,-4.1184,-4.1184,-4.1184,-4.1184,-4.1184,-2.851,-2.8955,-2.9532,-2.9977,-3.0585,-3.1151,0.0,0.0,0.0,0.0,0.0,0.0,0.0,0.0,0.0,0.0,0.0,0.0,0.0,0.0,0.0,0.0,0.0,0.0,-4.1184,-4.1184,-4.1184,-4.1184,-4.1184,-4.1184,-4.1184,-4.1184,-4.1184,-4.1184,-4.1184,-4.1184,-4.1184,-4.1184,-4.1184,-4.1184,-4.1184,-4.1184,-4.1184,-4.1184,-4.1232,-4.1305,0.0,-4.1605,-4.2145,-4.2145,-4.2422,-4.2819,-4.2819,-4.2867,-4.294,-4.294,-4.2928,-4.3,-4.3,-4.3,-4.3,-4.3,-4.3,-4.3,-4.3,-4.3,-4.3,-4.3,-4.3313,-4.3541,-4.3108,-4.3,-4.2976,-4.2952,-4.294,-4.2928,-4.3035,-4.3023,-4.2735,-4.1674,-4.1424,-4.1709,-4.264,-4.2819,-4.2819,-4.2819,-4.2434,-4.2145,-4.2145,-4.1701,-4.1504,-4.1625,-4.1671,-4.1761,-4.194,-4.1675,-4.1712,-4.205,-4.152,-4.1184,-4.1184,-4.1184,-4.1184,-4.1184,-4.1184,-4.1184,-4.1184,-4.1184,-4.1184,-4.1184,-4.1184,-4.1184,-2.859,-2.9124,-2.9862,-3.0037,-3.0482,-3.1055,-3.1585,0.0,0.0,0.0,0.0,0.0,0.0,0.0,0.0,0.0,0.0,0.0,0.0,0.0,0.0,0.0,0.0,-4.1184,-4.1184,-4.1184,-4.1184,-4.1184,-4.1184,-4.1184,-4.1184,-4.1184,-4.1184,-4.1184,-4.1184,-4.1184,-4.1184,-4.1184,-4.1184,-4.1184,-4.1184,-4.1184,-4.1184,-4.1184,-4.1184,-4.1184,0.0,-4.1317,-4.1545,-4.1545,-4.1689,-4.1964,-4.1964,-4.2086,-4.2422,-4.2711,-4.2819,-4.2819,-4.2819,-4.2819,-4.2819,-4.2819,-4.2819,-4.2819,-4.2819,-4.2819,-4.2759,-4.247,-4.2699,-4.3048,-4.2879,-4.2819,-4.2747,-4.247,-4.2398,-4.2313,-4.1978,-4.1964,-4.1858,-4.1561,-4.1619,-4.1866,-4.236,-4.243,-4.243,-4.243,-4.2223,-4.2065,-4.2065,-4.1858,-4.1745,-4.1859,-4.1859,-4.1915,-4.211,-4.1972,-4.1802,-4.1643,-4.1516,-4.1344,-4.1184,-4.1184,-4.1184,-4.1184,-4.1184,-4.1184,-4.1184,-4.1184,-4.1184,-4.1184,-4.1184,-4.1184,-2.8855,-2.9432,-3.0161,-3.012,0.0,-3.1091,-3.1753,0.0,0.0,0.0,0.0,0.0,0.0,0.0,0.0,0.0,0.0,0.0,0.0,0.0,-4.0595,-4.1124,-4.1184,-4.1184,-4.1184,-4.1184,-4.1184,-4.1184,-4.1184,-4.1184,-4.1184,-4.1184,-4.1184,-4.1184,-4.1184,-4.1184,-4.1184,-4.1184,-4.1184,-4.1184,-4.1184,-4.1184,-4.1184,-4.1184,-4.1184,-4.1184,-4.1184,-4.1184,-4.1184,-4.1184,-4.1184,-4.1184,-4.1184,-4.1425,-4.1834,-4.2301,-4.2446,-4.2446,-4.2446,-4.2446,-4.2446,-4.2446,-4.2446,-4.2505,-4.2505,-4.2564,-4.2538,-4.2139,-4.2309,-4.2623,-4.2564,-4.2564,-4.2526,-4.2115,-4.2018,-4.1898,-4.1323,-4.1251,-4.1459,-4.1781,-4.2013,-4.2164,-4.2123,-4.211,-4.211,-4.211,-4.211,-4.211,-4.211,-4.211,-4.2098,-4.2211,-4.2211,-4.2211,-4.2211,-4.2211,-4.1984,-4.1414,-4.1504,-4.1504,-4.1184,-4.1184,-4.1184,-4.1184,-4.1184,-4.1184,-4.1184,-4.1184,-4.1184,-4.1184,-4.1184,-4.1184,-2.9341,-2.9777,-3.0161,-3.012,-3.0482,0.0,-3.2202,-3.2466,0.0,0.0,0.0,0.0,0.0,0.0,0.0,0.0,0.0,0.0,0.0,0.0,-4.0595,-4.1124,-4.1184,-4.1184,-4.1184,-4.1184,-4.1184,-4.1184,-4.1184,-4.1184,-4.1184,-4.1184,-4.1184,-4.1184,-4.1184,-4.1184,-4.1184,-4.1184,-4.1184,-4.1184,-4.1184,-4.1184,-4.1184,-4.1184,-4.1184,-4.1184,-4.1184,-4.1184,-4.1184,-4.1184,-4.1184,-4.1184,-4.1184,-4.1208,-4.1244,-4.128,-4.1293,-4.1293,-4.1293,-4.1293,-4.1293,-4.1293,-4.1453,-4.1716,-4.1716,-4.1911,-4.2152,-4.2115,-4.2139,-4.2107,-4.1785,-4.1911,-4.2152,-4.2115,-4.2103,-4.1928,-4.1318,-4.1493,-4.1842,-4.2041,-4.2229,-4.231,-4.2123,-4.211,-4.211,-4.211,-4.211,-4.211,-4.211,-4.211,-4.2211,-4.2413,-4.2469,-4.2469,-4.2469,-4.2469,-4.2369,-4.2041,-4.1732,-4.1504,-4.1184,-4.1184,-4.1184,-4.1184,-4.1184,-4.1184,-4.1184,-4.1184,-4.1184,-4.1184,-4.1184,-4.1184,-2.9947,-3.0645,-3.1218,-3.075,0.0,0.0,0.0,0.0,0.0,0.0,0.0,0.0,0.0,0.0,0.0,0.0,0.0,0.0,0.0,-4.0343,-4.0956,-4.116,-4.1184,-4.1184,-4.1184,-4.1184,-4.1184,-4.1184,-4.1184,-4.1184,-4.1184,-4.1184,-4.1459,-4.196,-4.2017,-4.2287,-4.2824,-4.2287,-4.2017,-4.2017,-4.1459,-4.1184,-4.1184,-4.1184,-4.1184,-4.1184,-4.1184,-4.1184,-4.1184,-4.1184,-4.1184,-4.1184,-4.1184,-4.1184,-4.1184,-4.1184,-4.1184,-4.1184,-4.1184,-4.1287,-4.1447,-4.1242,-4.1516,-4.1859,-4.1663,-4.1846,-4.211,-4.211,-4.2211,-4.2256,-4.1972,-4.1984,-4.211,-4.211,-4.211,-4.2004,-4.1643,-4.1911,-4.2179,-4.2287,-4.2556,-4.2731,-4.2663,-4.265,-4.265,-4.265,-4.265,-4.265,-4.265,-4.265,-4.2706,-4.2806,-4.2806,-4.275,-4.2525,-4.2525,-4.23,-4.1846,-4.1663,-4.1549,-4.1447,-4.1287,-4.1184,-4.1184,-4.1184,-4.1184,-4.1184,-4.1184,-4.1184,-4.1184,-4.1184,-4.1184,-3.0355,-3.1254,-3.2036,0.0,0.0,0.0,0.0,0.0,0.0,0.0,0.0,0.0,0.0,0.0,0.0,0.0,0.0,0.0,0.0,-4.0511,-4.1184,-4.1184,-4.1459,-4.1516,-4.1242,-4.1459,-4.1631,-4.1631,-4.1631,-4.1631,-4.1631,-4.1631,-4.1745,-4.2073,-4.2073,-4.2513,-4.3381,-4.2781,-4.2625,-4.2893,-4.2287,-4.1732,-4.1184,-4.1184,-4.1184,-4.1184,-4.1184,-4.1184,-4.1184,-4.1184,-4.1242,-4.1344,-4.1344,-4.1344,-4.1344,-4.1242,-4.1242,-4.1344,-4.1344,-4.1504,-4.1732,-4.1516,-4.1814,-4.2199,-4.1948,-4.213,-4.2381,-4.2381,-4.2538,-4.2638,-4.2425,-4.2381,-4.2381,-4.2381,-4.2381,-4.2369,-4.2194,-4.2381,-4.26,-4.2569,-4.2812,-4.2975,-4.2986,-4.2974,-4.2974,-4.2974,-4.2974,-4.2974,-4.2974,-4.2974,-4.2974,-4.2974,-4.2974,-4.2862,-4.2525,-4.2413,-4.2187,-4.1777,-4.1561,-4.1447,-4.1447,-4.1287,-4.1184,-4.1184,-4.1184,-4.1184,-4.1184,-4.1184,-4.1184,-4.1184,-4.1184,-4.1184,-3.0482,-3.1565,0.0,0.0,0.0,0.0,0.0,0.0,0.0,0.0,0.0,0.0,0.0,0.0,0.0,-3.7942,-3.89,-3.9609,-3.9609,-4.0511,-4.1184,-4.1184,-4.196,-4.2187,-4.1287,-4.2017,-4.2525,-4.2525,-4.2525,-4.2525,-4.2525,-4.2525,-4.213,-4.123,-4.1242,-4.1688,-4.2513,-4.2513,-4.2949,-4.381,-4.381,-4.288,-4.1242,-4.1242,-4.1184,-4.1184,-4.1184,-4.1184,-4.1184,-4.1184,-4.1344,-4.1606,-4.1606,-4.1606,-4.1549,-4.1287,-4.1402,-4.1606,-4.1606,-4.1789,-4.211,-4.211,-4.2256,-4.2525,-4.2525,-4.275,-4.2974,-4.2974,-4.2974,-4.2974,-4.2974,-4.2974,-4.2974,-4.2974,-4.2974,-4.2974,-4.2974,-4.2974,-4.2974,-4.2974,-4.2974,-4.2974,-4.2974,-4.2974,-4.2974,-4.2974,-4.2974,-4.2974,-4.2974,-4.2974,-4.2974,-4.2974,-4.2974,-4.2862,-4.2525,-4.2256,-4.211,-4.211,-4.1528,-4.1184,-4.1184,-4.1184,-4.1184,-4.1184,-4.1184,-4.1184,-4.1184,-4.1184,-4.1184,-4.1184,-4.1184,-4.1184,-3.2086,-3.2278,0.0,0.0,0.0,0.0,0.0,0.0,0.0,0.0,0.0,0.0,0.0,0.0,0.0,-3.8727,-3.9267,-3.9818,-4.0384,-4.1441,-4.1915,-4.1299,-4.25,-4.3202,-4.2731,-4.3454,-4.4004,-4.4004,-4.4004,-4.3797,-4.3436,-4.3797,-4.3962,-4.3932,-4.4331,-4.4765,-4.5315,-4.4655,-4.4152,-4.381,-4.381,-4.3534,-4.2992,-4.24,-4.213,-4.2073,-4.1459,-4.1184,-4.1184,-4.139,-4.1549,-4.1606,-4.1846,-4.1972,-4.1915,-4.1871,-4.1871,-4.1972,-4.1972,-4.2142,-4.2369,-4.2155,-4.2425,-4.2806,-4.2581,-4.275,-4.2974,-4.2974,-4.2974,-4.2974,-4.2974,-4.2974,-4.2974,-4.2974,-4.2974,-4.2974,-4.2974,-4.2974,-4.2974,-4.2974,-4.2974,-4.2974,-4.2974,-4.2974,-4.2974,-4.2974,-4.2974,-4.2974,-4.2974,-4.2974,-4.2974,-4.2974,-4.2974,-4.2806,-4.2256,-4.2155,-4.1928,-4.1471,-4.1299,-4.1287,-4.1447,-4.1287,-4.1184,-4.1184,-4.1184,-4.1184,-4.1184,-4.1184,-4.1184,-4.1184,-4.1184,-4.1184,-3.2487,0.0,0.0,0.0,0.0,0.0,0.0,0.0,0.0,0.0,0.0,0.0,0.0,0.0,0.0,-3.9622,-4.0006,-4.0504,-4.12,-4.2112,-4.2531,-4.225,-4.3492,-4.418,-4.3855,-4.4617,-4.5222,-4.5435,-4.5489,-4.5342,-4.5034,-4.5289,-4.5395,-4.5235,-4.5529,-4.5979,-4.6585,-4.6033,-4.5702,-4.5515,-4.5515,-4.5515,-4.5462,-4.3755,-4.2625,-4.196,-4.1561,-4.1344,-4.139,-4.1777,-4.1948,-4.2004,-4.2199,-4.2256,-4.2256,-4.2155,-4.2155,-4.2256,-4.2256,-4.2425,-4.2694,-4.2481,-4.2706,-4.2974,-4.275,-4.2862,-4.2974,-4.2974,-4.2974,-4.2974,-4.2974,-4.2974,-4.2974,-4.2974,-4.2974,-4.2974,-4.2974,-4.2974,-4.2974,-4.2974,-4.2974,-4.2974,-4.2974,-4.2974,-4.2974,-4.2974,-4.2974,-4.2974,-4.2974,-4.2974,-4.2974,-4.2806,-4.2806,-4.2581,-4.1972,-4.1915,-4.1688,-4.1242,-4.1184,-4.1287,-4.1447,-4.1287,-4.1184,-4.1184,-4.1184,-4.1184,-4.1184,-4.1184,-4.1184,-4.1184,-4.1184,-4.1184,0.0,0.0,0.0,0.0,0.0,0.0,0.0,0.0,0.0,0.0,0.0,0.0,0.0,0.0,-4.0516,-4.0566,-4.0978,-4.1491,-4.2188,-4.2701,-4.3187,-4.3647,-4.4539,-4.5009,-4.4635,-4.5435,-4.6184,-4.6782,-4.6888,-4.6864,-4.6813,-4.6919,-4.6594,-4.5687,-4.5674,-4.6083,-4.6895,-4.6895,-4.727,-4.7962,-4.8078,-4.8013,-4.7745,-4.5235,-4.3091,-4.1447,-4.1606,-4.1663,-4.1663,-4.2231,-4.2525,-4.2525,-4.2513,-4.2525,-4.2525,-4.2268,-4.2312,-4.2525,-4.2525,-4.275,-4.2974,-4.2974,-4.2974,-4.2974,-4.2974,-4.2974,-4.2974,-4.2974,-4.2974,-4.2974,-4.2974,-4.2974,-4.2974,-4.2974,-4.2974,-4.2974,-4.2974,-4.2974,-4.2974,-4.2974,-4.2974,-4.2974,-4.2974,-4.2974,-4.2974,-4.2974,-4.2974,-4.2974,-4.2974,-4.2974,-4.2862,-4.2581,-4.2525,-4.2287,-4.172,-4.1606,-4.1492,-4.1242,-4.1242,-4.1242,-4.1184,-4.1184,-4.1184,-4.1184,-4.1184,-4.1184,-4.1184,-4.1184,-4.1184,-4.1184,-4.1184,-4.1184,0.0,0.0,0.0,0.0,0.0,0.0,0.0,0.0,0.0,0.0,0.0,0.0,0.0,0.0,-4.1219,-4.1864,-4.1905,-4.2261,-4.3439,-4.3723,-4.3635,-4.3087,-4.4376,-4.5206,-4.4885,-4.5605,-4.6342,-4.6924,-4.7412,-4.7468,-4.7033,-4.7947,-4.8151,-4.7513,-4.7934,-4.8035,-4.781,-4.781,-4.7592,-4.7102,-4.7745,-4.7345,-4.5964,-4.6123,-4.5061,-4.3164,-4.2344,-4.1972,-4.2041,-4.2356,-4.2525,-4.2525,-4.2806,-4.2862,-4.2862,-4.2818,-4.2818,-4.2862,-4.2862,-4.2918,-4.2974,-4.2974,-4.2974,-4.2974,-4.2974,-4.2974,-4.2974,-4.2974,-4.2974,-4.2974,-4.2974,-4.2974,-4.2974,-4.2974,-4.2974,-4.2974,-4.2974,-4.2974,-4.2974,-4.2974,-4.2974,-4.2974,-4.2974,-4.2974,-4.2974,-4.2974,-4.2974,-4.2974,-4.2974,-4.2974,-4.2974,-4.2918,-4.2638,-4.2356,-4.2041,-4.1732,-4.1492,-4.1242,-4.139,-4.1447,-4.1184,-4.1184,-4.1184,-4.1184,-4.1184,-4.1184,-4.1184,-4.1184,-4.1184,-4.1184,-4.1184,-4.1184,0.0,0.0,0.0,0.0,0.0,0.0,0.0,0.0,0.0,0.0,0.0,0.0,0.0,-4.2563,-4.2867,-4.3314,-4.3223,-4.3473,-4.4505,-4.4663,-4.462,-4.4455,-4.5225,-4.5832,-4.5902,-4.6306,-4.6818,-4.7357,-4.7645,-4.7722,-4.7447,-4.8018,-4.8238,-4.7981,-4.8238,-4.8238,-4.7981,-4.7981,-4.7722,-4.7299,-4.802,-4.8041,-4.7429,-4.6567,-4.5794,-4.5168,-4.3742,-4.3116,-4.3116,-4.2849,-4.275,-4.275,-4.2918,-4.2974,-4.2974,-4.2974,-4.2974,-4.2974,-4.2974,-4.2974,-4.2974,-4.2974,-4.2974,-4.2974,-4.2974,-4.2974,-4.2974,-4.2974,-4.2974,-4.2974,-4.2974,-4.2974,-4.2974,-4.2974,-4.2974,-4.2974,-4.2974,-4.2974,-4.2974,-4.2974,-4.2974,-4.2974,-4.2974,-4.2974,-4.2974,-4.2974,-4.2974,-4.2974,-4.2974,-4.2974,-4.2918,-4.2806,-4.2581,-4.2356,-4.2098,-4.1915,-4.1802,-4.1643,-4.1745,-4.1802,-4.1643,-4.1643,-4.1471,-4.1184,-4.1184,-4.1184,-4.1184,-4.1184,-4.1184,-4.1184,-4.1184,-4.1184,0.0,0.0,0.0,0.0,0.0,0.0,0.0,0.0,0.0,0.0,0.0,0.0,0.0,-4.4373,-4.4504,-4.4504,-4.4504,-4.472,-4.5336,-4.5312,-4.5447,-4.5954,-4.6011,-4.6169,-4.6614,-4.6662,-4.6885,-4.7448,-4.755,-4.7622,-4.7622,-4.7724,-4.7782,-4.7782,-4.7782,-4.7782,-4.7782,-4.7782,-4.7782,-4.7796,-4.8319,-4.8841,-4.9286,-4.6906,-4.6258,-4.6947,-4.5289,-4.4589,-4.4481,-4.3657,-4.3394,-4.356,-4.3141,-4.3141,-4.324,-4.3085,-4.2974,-4.2974,-4.2974,-4.2974,-4.2974,-4.2974,-4.2974,-4.2974,-4.2974,-4.2974,-4.2974,-4.2974,-4.2974,-4.2974,-4.2974,-4.2974,-4.2974,-4.2974,-4.2974,-4.2974,-4.2974,-4.2974,-4.2974,-4.2974,-4.2974,-4.2974,-4.2974,-4.2974,-4.2974,-4.2974,-4.2974,-4.2974,-4.2974,-4.2974,-4.2918,-4.2638,-4.2513,-4.2413,-4.2211,-4.2098,-4.211,-4.211,-4.2155,-4.2155,-4.211,-4.2155,-4.1928,-4.1357,-4.1287,-4.1287,-4.1287,-4.1242,-4.1184,-4.1184,-4.1184,-4.1184,0.0,0.0,0.0,0.0,0.0,0.0,0.0,0.0,0.0,0.0,0.0,0.0,-4.3395,-4.4341,-4.4986,-4.4986,-4.4986,-4.5213,-4.5724,-4.5436,-4.5143,-4.5228,-4.5242,-4.5289,-4.5335,-4.5335,-4.5565,-4.6096,-4.665,-4.6908,-4.6908,-4.7477,-4.7782,-4.7782,-4.7782,-4.7782,-4.7782,-4.7782,-4.7782,-4.7782,-4.7869,-4.7956,-4.8029,-4.7668,-4.7614,-4.7768,-4.6542,-4.6018,-4.5965,-4.4886,-4.5034,-4.5648,-4.3768,-4.3615,-4.4357,-4.3351,-4.2974,-4.2974,-4.2974,-4.2974,-4.2974,-4.2974,-4.2974,-4.2974,-4.2974,-4.2974,-4.2974,-4.2974,-4.2974,-4.2974,-4.2974,-4.2974,-4.2974,-4.2974,-4.2974,-4.2974,-4.2974,-4.2974,-4.2974,-4.2974,-4.2974,-4.2974,-4.2974,-4.2974,-4.2974,-4.2974,-4.2974,-4.2974,-4.2974,-4.2974,-4.2974,-4.2918,-4.2694,-4.2469,-4.2469,-4.2211,-4.211,-4.211,-4.2312,-4.2369,-4.211,-4.2312,-4.2312,-4.1997,-4.1675,-4.1549,-4.1549,-4.1287,-4.1184,-4.1184,-4.1184,-4.1184,0.0,0.0,0.0,0.0,0.0,0.0,0.0,0.0,0.0,0.0,0.0,0.0,-4.407,-4.4665,-4.5117,-4.5492,-4.5549,-4.564,-4.588,-4.57,-4.5549,-4.5549,-4.5549,-4.5549,-4.5549,-4.5549,-4.564,-4.588,-4.6142,-4.6301,-4.6301,-4.6563,-4.6722,-4.6722,-4.6722,-4.6722,-4.6722,-4.6722,-4.6896,-4.7245,-4.7245,-4.7433,-4.7782,-4.7782,-4.8023,-4.8324,-4.7237,-4.6603,-4.6228,-4.5141,-4.4615,-4.4344,-4.3394,-4.3295,-4.367,-4.3197,-4.2974,-4.2974,-4.2974,-4.2974,-4.3085,-4.3725,-4.3932,-4.3932,-4.3932,-4.3932,-4.3835,-4.3197,-4.2974,-4.2974,-4.2974,-4.2974,-4.2974,-4.2974,-4.2974,-4.2974,-4.2974,-4.2974,-4.2974,-4.2974,-4.2974,-4.2974,-4.2974,-4.2974,-4.2974,-4.2974,-4.2974,-4.2974,-4.2974,-4.2974,-4.2974,-4.2974,-4.2862,-4.2806,-4.2806,-4.2638,-4.2594,-4.2594,-4.2694,-4.275,-4.2594,-4.2706,-4.2638,-4.2312,-4.1834,-4.1606,-4.1606,-4.1344,-4.1184,-4.1184,-4.1184,-4.1184,0.0,0.0,0.0,0.0,0.0,0.0,0.0,0.0,0.0,0.0,0.0,0.0,-4.4197,-4.4661,-4.5111,-4.5779,-4.588,-4.588,-4.588,-4.588,-4.588,-4.588,-4.588,-4.588,-4.588,-4.588,-4.588,-4.588,-4.588,-4.588,-4.588,-4.588,-4.588,-4.588,-4.588,-4.588,-4.588,-4.588,-4.6127,-4.6592,-4.6592,-4.6838,-4.7303,-4.7303,-4.7651,-4.8213,-4.7732,-4.7297,-4.684,-4.5912,-4.5195,-4.4602,-4.3768,-4.3615,-4.3768,-4.3184,-4.2974,-4.2974,-4.2974,-4.2974,-4.3141,-4.3987,-4.4261,-4.4261,-4.4261,-4.4261,-4.4097,-4.324,-4.2974,-4.2974,-4.2974,-4.2974,-4.2974,-4.2974,-4.2974,-4.2974,-4.2974,-4.2974,-4.2974,-4.2974,-4.2974,-4.2974,-4.2974,-4.2974,-4.2974,-4.2974,-4.2974,-4.2974,-4.2974,-4.2974,-4.2974,-4.2974,-4.2974,-4.2974,-4.2974,-4.2974,-4.2974,-4.2974,-4.2974,-4.2974,-4.2974,-4.2974,-4.2862,-4.2525,-4.2004,-4.1663,-4.1606,-4.1344,-4.1184,-4.1184,-4.1184,-4.1184,0.0,0.0,0.0,0.0,0.0,0.0,0.0,0.0,0.0,0.0,0.0,0.0,-4.2977,-4.4081,-4.5111,-4.5779,-4.588,-4.588,-4.588,-4.588,-4.588,-4.588,-4.588,-4.588,-4.588,-4.588,-4.588,-4.588,-4.588,-4.588,-4.588,-4.588,-4.588,-4.588,-4.588,-4.588,-4.588,-4.588,-4.5909,-4.5938,-4.5938,-4.5953,-4.5982,-4.5982,-4.633,-4.6952,-4.8108,-4.8596,-4.8524,-4.8034,-4.8424,-4.905,-4.5873,-4.5235,-4.586,-4.3768,-4.2974,-4.2974,-4.2974,-4.2974,-4.303,-4.3085,-4.3085,-4.3085,-4.3085,-4.3085,-4.3085,-4.303,-4.2974,-4.2974,-4.2974,-4.2974,-4.2974,-4.2974,-4.2974,-4.2974,-4.2974,-4.2974,-4.2974,-4.2974,-4.2974,-4.2974,-4.2974,-4.2974,-4.2974,-4.2974,-4.2974,-4.2974,-4.2974,-4.2974,-4.2974,-4.2974,-4.2974,-4.2974,-4.2974,-4.2974,-4.2974,-4.2974,-4.2974,-4.2974,-4.2974,-4.2974,-4.2862,-4.2525,-4.2199,-4.1915,-4.1606,-4.1344,-4.1184,-4.1184,-4.1184,-4.1184,0.0,0.0,0.0,0.0,0.0,0.0,0.0,0.0,0.0,0.0,0.0,0.0,-4.2876,-4.3355,-4.4023,-4.5082,-4.5242,-4.5401,-4.5822,-4.588,-4.588,-4.588,-4.588,-4.588,-4.588,-4.588,-4.588,-4.588,-4.588,-4.588,-4.588,-4.588,-4.588,-4.588,-4.588,-4.588,-4.588,-4.588,-4.588,-4.588,-4.588,-4.588,-4.588,-4.588,-4.6011,-4.6272,-4.7129,-4.7333,-4.7005,-4.6827,-4.6839,-4.6851,-4.5608,-4.5642,-4.6215,-4.5382,-4.5128,-4.5128,-4.5128,-4.5128,-4.5235,-4.5965,-4.6189,-4.6189,-4.6189,-4.6189,-4.5978,-4.4757,-4.3749,-4.301,-4.301,-4.5141,-4.7055,-4.6129,-4.5002,-4.4302,-4.4967,-4.3974,-4.2974,-4.2974,-4.2974,-4.2974,-4.2974,-4.2974,-4.2974,-4.2974,-4.2974,-4.2974,-4.2974,-4.2974,-4.2974,-4.2974,-4.2974,-4.2974,-4.2974,-4.2974,-4.2974,-4.2974,-4.2974,-4.2974,-4.2974,-4.2974,-4.2862,-4.2525,-4.2413,-4.213,-4.1606,-4.1344,-4.1184,-4.1184,-4.1184,-4.1184,0.0,0.0,0.0,0.0,0.0,0.0,0.0,0.0,0.0,0.0,0.0,0.0,-4.2571,-4.2687,-4.3108,-4.4385,-4.4589,-4.4734,-4.5184,-4.5242,-4.5242,-4.5242,-4.5242,-4.5242,-4.5242,-4.5242,-4.5329,-4.5532,-4.5547,0.0,-4.588,-4.588,-4.588,-4.588,-4.588,-4.588,-4.588,-4.588,-4.588,-4.588,-4.588,-4.588,-4.588,-4.588,-4.588,-4.5909,-4.633,-4.6422,-4.6352,-4.6565,-4.6503,-4.6112,-4.5393,-4.5588,-4.6161,-4.5641,-4.5669,-4.601,-4.6213,-4.6281,-4.6424,-4.7177,-4.7448,-4.7448,-4.7448,-4.7448,-4.7108,-4.5639,-4.4664,-4.3966,-4.3206,-4.6347,-4.9354,-4.7871,-4.6354,-4.5449,-4.6176,-4.4872,-4.367,-4.4029,-4.3823,-4.356,-4.356,-4.356,-4.3462,-4.303,-4.2974,-4.2974,-4.2974,-4.2974,-4.2974,-4.2974,-4.2974,-4.2974,-4.2974,-4.2974,-4.2974,-4.2974,-4.2974,-4.2974,-4.2974,-4.2974,-4.2862,-4.2525,-4.2525,-4.2243,-4.1789,-4.1573,-4.1471,-4.1471,-4.1471,-4.1471,0.0,0.0,0.0,0.0,0.0,0.0,0.0,0.0,0.0,0.0,0.0,0.0,-4.1947,-4.2092,-4.2498,-4.3732,-4.395,-4.3964,-4.3993,-4.3993,-4.3993,-4.3993,-4.3993,-4.3993,-4.3993,-4.3993,-4.424,-4.4821,-4.4864,-4.514,-4.5793,-4.5837,-4.5851,-4.5851,-4.588,-4.588,-4.588,-4.588,-4.588,-4.588,-4.588,-4.588,-4.588,-4.588,-4.588,-4.588,-4.588,-4.6229,-4.6807,-4.7477,-4.7738,-4.755,-4.5488,-4.5291,-4.5965,-4.4473,-4.4583,-4.5557,-4.6141,-4.6358,-4.6358,-4.6372,-4.6372,-4.6372,-4.6385,-4.6372,-4.6252,-4.5509,-4.5867,-4.5932,-4.3782,-4.6413,-4.9326,-4.7909,-4.6919,-4.6385,-4.6372,-4.5555,-4.5101,-4.6123,-4.5449,-4.4724,-4.4724,-4.4724,-4.4357,-4.324,-4.3085,-4.3085,-4.303,-4.3085,-4.3085,-4.303,-4.303,-4.303,-4.2974,-4.2974,-4.2974,-4.2974,-4.303,-4.303,-4.303,-4.3085,-4.2918,-4.2581,-4.2569,-4.2413,-4.2155,-4.2155,-4.2155,-4.2155,-4.2155,-4.2211,-3.4414,0.0,0.0,0.0,0.0,0.0,0.0,0.0,0.0,0.0,0.0,0.0,-4.1337,-4.1773,-4.2208,-4.2571,-4.2992,-4.3442,-4.3921,-4.3993,-4.3993,-4.3993,-4.3993,-4.3993,-4.3993,-4.3993,-4.4066,0.0,-4.424,-4.4313,-4.4501,-4.4922,-4.5169,-4.5169,-4.5634,-4.588,-4.588,-4.588,-4.588,-4.588,-4.588,-4.588,-4.588,-4.588,-4.588,-4.588,-4.588,-4.5982,-4.6156,-4.6345,-4.6679,-4.6992,-4.6436,-4.6675,-4.7281,-4.6863,-4.6872,-4.7213,-4.784,-4.8054,-4.814,-4.8581,-4.8774,-4.8624,-4.7805,-4.8122,-4.8745,-4.8489,-4.8615,-4.8603,-4.7992,-4.8786,-4.9592,-4.9216,-4.8294,-4.7754,-4.8574,-4.7906,-4.6919,-4.6385,-4.6071,-4.586,-4.586,-4.586,-4.5502,-4.4411,-4.4872,-4.5128,-4.4357,-4.4926,-4.5074,-4.4302,-4.4248,-4.389,-4.3085,-4.2974,-4.2974,-4.2974,-4.3768,-4.4248,-4.4248,-4.498,-4.498,-4.4084,-4.4084,-4.4029,-4.3974,-4.3522,-4.3343,-4.3343,-4.4116,-4.4483,-3.4414,0.0,0.0,0.0,0.0,0.0,-3.813,-3.8507,-3.887,0.0,-3.9784,0.0,-4.0641,-4.1221,-4.1671,-4.1671,-4.2208,-4.276,-4.3137,-4.3195,-4.3195,-4.3195,-4.3195,-4.3195,-4.3195,-4.3195,-4.3297,-4.3558,-4.3573,-4.3689,-4.3979,-4.4327,-4.4516,-4.4516,-4.4893,-4.5213,-4.5459,-4.5459,-4.5605,-4.588,-4.588,-4.588,-4.588,-4.588,-4.588,-4.588,-4.588,-4.588,-4.588,-4.588,-4.6113,-4.6386,-4.5944,-4.6267,-4.6966,-4.6839,-4.7034,-4.7477,-4.8116,-4.8333,-4.8435,-4.9074,-4.9277,-4.9223,-4.8816,-4.9164,-4.9692,-4.968,-4.9684,-4.9717,-4.9717,-4.9719,-4.9694,-4.9707,-4.9213,-4.8902,-4.9571,-4.9164,-4.8539,-4.7841,-4.7317,-4.6854,-4.6372,-4.6281,-4.5754,-4.4193,-4.4507,-4.4711,-4.4097,-4.4561,-4.4657,-4.4042,-4.3987,-4.3725,-4.303,-4.2974,-4.2974,-4.2974,-4.3615,-4.3987,-4.3987,-4.4615,-4.4602,-4.3987,-4.3987,-4.4193,-4.4683,-4.3852,-4.3479,-4.3466,-4.4455,-4.4968,-3.4617,-3.5444,-3.633,0.0,-3.7259,0.0,-3.8188,-3.8202,-3.8376,-3.8971,-3.9146,0.0,-3.99,-4.0539,-4.0989,-4.0989,-4.1482,-4.1932,-4.2078,-4.2092,-4.2092,-4.2092,-4.2092,-4.2092,-4.2092,-4.2092,-4.2324,-4.2861,-4.289,-4.3152,-4.3747,-4.3848,-4.3877,-4.3877,-4.395,-4.4255,-4.4777,-4.4792,-4.5111,-4.5779,-4.5779,-4.5822,-4.588,-4.588,-4.588,-4.588,-4.588,-4.588,-4.588,-4.588,-4.588,-4.579,-4.4851,-4.5049,-4.5863,-4.5505,-4.5952,-4.6763,-4.7448,-4.768,-4.7782,-4.842,-4.8624,-4.8677,-4.9131,-4.946,-4.9582,-4.9703,-4.9717,-4.9717,-4.9717,-4.9717,-4.9717,-4.9717,-4.9717,-4.9717,-4.9717,-4.9717,-4.9717,-4.9717,-4.8902,-4.7855,-4.6854,-4.6698,-4.5965,-4.3878,-4.3657,-4.3713,-4.356,-4.367,-4.3713,-4.356,-4.356,-4.3504,-4.3394,-4.3338,-4.3338,-4.3338,-4.3504,-4.356,-4.356,-4.367,-4.3602,-4.3338,-4.3338,-4.3878,-4.4886,-4.3725,-4.324,-4.3394,-4.4126,-4.4657,0.0,0.0,0.0,0.0,-3.7302,0.0,-3.8086,-3.8202,-3.8246,0.0,-3.8826,0.0,0.0,-3.9886,-4.0292,-4.0292,-4.0394,-4.0858,-4.1947,-4.2092,-4.2092,-4.2092,-4.2092,-4.2092,-4.2092,-4.2092,-4.215,-4.2266,-4.2281,-4.2324,-4.2455,-4.2919,-4.3195,-4.3195,-4.3718,-4.4052,-4.4168,-4.4168,-4.4472,-4.5082,-4.5082,-4.5358,-4.588,-4.588,-4.588,-4.588,-4.588,-4.588,-4.588,-4.588,-4.588,-4.588,-4.5685,-4.573,-4.5895,-4.583,-4.5919,-4.6156,-4.6795,-4.7027,-4.7114,-4.7753,-4.797,-4.7829,-4.7025,-4.7778,-4.9016,-4.9538,-4.9717,-4.9717,-4.9717,-4.9717,-4.9717,-4.9717,-4.9717,-4.9717,-4.9717,-4.9717,-4.9717,-4.9717,-4.9522,-4.9311,-4.91,-4.905,-4.8574,-4.7242,-4.7805,-4.8058,-4.7126,-4.7855,-4.8058,-4.7126,-4.7023,-4.666,-4.5754,-4.5648,-4.5648,-4.5648,-4.649,-4.7023,-4.7023,-4.7906,-4.7536,-4.5701,-4.5648,-4.5754,-4.5965,-4.4886,-4.4819,-4.5648,-4.5807,-4.6438,0.0,0.0,0.0,-3.723,-3.7535,0.0,0.0,-3.8202,-3.8202,-3.8202,-3.8463,-3.8696,-3.8696,0.0,-3.9654,-3.9654,-3.99,-4.0321,-4.1004,-4.1381,-4.1729,-4.2049,-4.2092,-4.2092,-4.2092,-4.2092,-4.2092,-4.2092,-4.2092,-4.2092,-4.2092,-4.2382,-4.2542,-4.2542,-4.2876,-4.3195,-4.3485,-4.3485,-4.3819,-4.4443,-4.4443,-4.4763,-4.5387,-4.5387,-4.5576,-4.588,-4.588,-4.588,-4.588,-4.588,-4.588,-4.588,-4.588,-4.588,-4.588,-4.588,-4.588,-4.5924,-4.6258,-4.6359,-4.6475,-4.71,-4.7303,-4.7268,-4.7024,-4.8013,-4.9253,-4.9591,-4.9722,-4.9703,-4.9688,-4.9717,-4.9717,-4.9717,-4.9717,-4.9717,-4.9717,-4.9717,-4.9717,-4.9717,-4.9717,-4.9522,-4.8951,-4.8852,-4.8489,-4.7331,-4.7638,-4.7791,-4.7229,-4.7638,-4.7791,-4.7229,-4.7177,-4.6919,-4.6333,-4.6281,-4.6281,-4.6281,-4.6867,-4.7177,-4.7177,-4.7689,-4.7485,-4.6333,-4.6281,-4.6281,-4.6281,-4.5767,-4.5754,-4.6333,-4.6854,-4.7434,0.0,0.0,0.0,0.0,0.0,-3.8202,0.0,0.0,0.0,0.0,0.0,0.0,0.0,0.0,0.0,0.0,0.0,0.0,0.0,-4.0394,0.0,-4.1628,-4.17,-4.1758,-4.1889,-4.202,-4.2092,-4.2092,-4.2092,-4.2092,-4.2092,-4.2092,-4.2092,-4.2092,-4.2092,-4.2324,-4.2818,-4.2818,-4.3152,-4.3805,-4.3805,-4.4124,-4.4719,-4.4719,-4.5082,-4.5692,-4.5692,-4.5764,-4.588,-4.588,-4.588,-4.588,-4.588,-4.588,-4.588,-4.588,-4.588,-4.588,-4.588,-4.588,-4.5967,-4.649,-4.665,-4.678,-4.748,-4.8299,-4.9093,-4.9556,-4.9336,-4.9014,-4.9267,-4.9378,-4.9465,-4.9494,-4.963,-4.9717,-4.9717,-4.9717,-4.9717,-4.9717,-4.9717,-4.941,-4.8489,-4.8338,-4.8021,-4.7112,-4.6943,-4.6943,-4.6943,-4.6943,-4.6943,-4.6943,-4.6943,-4.6943,-4.6943,-4.6943,-4.6943,-4.6943,-4.6943,-4.6943,-4.6943,-4.675,-4.675,-4.6957,-4.675,-4.675,-4.6943,-4.6943,-4.675,-4.6333,-4.7229,-4.7819,0.0,0.0,0.0,0.0,-3.8144,-3.8202,0.0,0.0,-3.8202,-3.8202,0.0,0.0,0.0,0.0,0.0,0.0,0.0,0.0,-3.9218,-3.9363,-3.9639,-4.0249,-4.0321,-4.0554,-4.1149,-4.1744,-4.2092,-4.2092,-4.2092,-4.2092,-4.2092,-4.2092,-4.2092,-4.2092,-4.2092,-4.2121,-4.2194,-4.2194,-4.2498,-4.3108,-4.3108,-4.3442,-4.4095,-4.4095,-4.4429,-4.4995,-4.4995,-4.5343,-4.588,-4.588,-4.588,-4.588,-4.588,-4.588,-4.588,-4.588,-4.588,-4.588,-4.588,-4.588,-4.5895,-4.5967,-4.5996,-4.6172,-4.6988,-4.685,-4.6787,-4.9063,-4.8079,-4.6565,-4.7731,-4.8286,-4.8615,-4.8764,-4.9262,-4.9717,-4.9717,-4.9717,-4.9717,-4.9717,-4.9717,-4.9669,-4.9522,-4.9522,-4.9459,-4.9311,-4.9297,-4.9297,-4.9297,-4.9297,-4.9297,-4.9297,-4.9297,-4.9297,-4.9297,-4.9297,-4.9297,-4.9297,-4.9297,-4.9297,-4.9297,-4.8324,-4.8274,-4.9297,-4.8324,-4.8324,-4.9297,-4.9297,-4.826,-4.6281,-4.6438,-4.7009,0.0,0.0,0.0,0.0,0.0,0.0,-3.8202,0.0,-3.8202,0.0,0.0,0.0,0.0,0.0,0.0,0.0,-3.8202,0.0,0.0,0.0,-3.8986,0.0,0.0,0.0,-4.0481,-4.112,-4.1512,-4.1512,-4.1874,-4.2092,-4.2092,-4.2092,-4.2092,-4.2092,-4.2092,-4.2092,-4.2092,-4.2092,-4.2223,-4.2469,-4.2469,-4.2803,-4.3413,-4.3413,-4.3761,-4.4371,-4.4371,-4.4734,-4.53,-4.53,-4.5532,-4.588,-4.588,-4.588,-4.588,-4.588,-4.588,-4.588,-4.588,-4.588,-4.588,-4.588,-4.588,-4.5953,-4.6318,-4.6183,-4.6121,-4.7175,-4.6723,-4.6125,-4.7171,-4.8021,-4.8619,-4.8663,-4.9204,-4.9717,-4.9717,-4.9717,-4.9717,-4.9717,-4.9717,-4.9717,-4.9717,-4.9717,-4.9717,-4.9717,-4.9717,-4.9717,-4.9717,-4.9717,-4.9717,-4.9717,-4.9717,-4.9717,-4.9717,-4.9717,-4.9717,-4.9717,-4.9717,-4.9717,-4.9717,-4.9262,-4.9213,-4.9669,-4.9213,-4.9213,-4.9717,-4.9717,-4.9198,-4.826,-4.826,-4.8524,-3.8202,0.0,0.0,0.0,0.0,0.0,0.0,0.0,0.0,0.0,0.0,0.0,0.0,0.0,0.0,0.0,0.0,-3.8202,0.0,-3.8202,0.0,0.0,0.0,0.0,0.0,-4.0437,-4.0829,-4.0829,-4.1439,-4.1816,-4.1816,-4.199,-4.2092,-4.2092,-4.2092,-4.2092,-4.2092,-4.2092,-4.2092,-4.2092,-4.2092,-4.2324,-4.2745,-4.2745,-4.3108,-4.3718,-4.3718,-4.4066,-4.4632,-4.4632,-4.5024,-4.5619,-4.5619,-4.5721,-4.588,-4.588,-4.588,-4.588,-4.588,-4.588,-4.588,-4.588,-4.588,-4.588,-4.588,-4.588,-4.5879,-4.5883,-4.5895,-4.6071,-4.6697,-4.7514,-4.8155,-4.8155,-4.8827,-4.9422,-4.9422,-4.9553,-4.9717,-4.9717,-4.9717,-4.9717,-4.9717,-4.9717,-4.9717,-4.9717,-4.9717,-4.9717,-4.9717,-4.9717,-4.9717,-4.9717,-4.9717,-4.9717,-4.9717,-4.9717,-4.9717,-4.9717,-4.9717,-4.9717,-4.9717,-4.9717,-4.9717,-4.9717,-4.9717,-4.9717,-4.9717,-4.9717,-4.9717,-4.9717,-4.9717,-4.9717,0.0,0.0,0.0,-3.8202,0.0,0.0,0.0,0.0,-3.8202,0.0,0.0,0.0,0.0,0.0,0.0,0.0,0.0,0.0,0.0,0.0,0.0,0.0,0.0,0.0,0.0,-3.977,-4.0133,-4.0133,-4.0742,-4.1134,-4.1134,-4.1744,-4.2092,-4.2092,-4.2092,-4.2092,-4.2092,-4.2092,-4.2092,-4.2092,-4.2092,-4.2107,-4.2121,-4.2121,-4.2455,-4.3021,-4.3021,-4.3398,-4.4023,-4.4023,-4.4371,-4.4922,-4.4922,-4.5314,-4.588,-4.588,-4.588,-4.588,-4.588,-4.588,-4.588,-4.588,-4.588,-4.588,-4.588,-4.588,-4.588,-4.5895,-4.5895,-4.5909,-4.5924,-4.6417,-4.6836,-4.6836,-4.7793,-4.8706,-4.8706,-4.9233,-4.9717,-4.9717,-4.9717,-4.9717,-4.9717,-4.9717,-4.9717,-4.9717,-4.9717,-4.9717,-4.9717,-4.9717,-4.9717,-4.9717,-4.9717,-4.9717,-4.9717,-4.9717,-4.9717,-4.9717,-4.9717,-4.9717,-4.9717,-4.9717,-4.9717,-4.9717,-4.9717,-4.9717,-4.9717,-4.9717,-4.9717,-4.9717,-4.9717,-4.9717,0.0,0.0,-3.8202,-3.8202,0.0,0.0,0.0,0.0,0.0,0.0,0.0,0.0,0.0,0.0,0.0,0.0,0.0,0.0,0.0,0.0,0.0,0.0,0.0,0.0,0.0,0.0,-3.9509,-3.9509,-4.0075,-4.0626,-4.1076,-4.1308,-4.1642,-4.2092,-4.2092,-4.2092,-4.2092,-4.2092,-4.2092,-4.2092,-4.2092,-4.2092,-4.2092,-4.2092,-4.2208,-4.2397,-4.2397,-4.276,-4.3326,-4.3326,-4.3718,-4.4327,-4.4734,-4.5024,-4.5271,-4.5721,-4.588,-4.588,-4.588,-4.588,-4.588,-4.588,-4.588,-4.588,-4.588,-4.588,-4.588,-4.588,-4.588,-4.588,-4.588,-4.6359,-4.6778,-4.6778,-4.7477,-4.8217,-4.8624,-4.8899,-4.9175,-4.9596,-4.9717,-4.9717,-4.9717,-4.9717,-4.9717,-4.9717,-4.9717,-4.9717,-4.9717,-4.9717,-4.9717,-4.9717,-4.9717,-4.9717,-4.9717,-4.9717,-4.9717,-4.9717,-4.9717,-4.9717,-4.9717,-4.9717,-4.9717,-4.9717,-4.9717,-4.9717,-4.9717,-4.9717,-4.9717,-4.9717,-4.9717,-4.9717,-3.9523,-3.9044,0.0,-3.8565,-3.8376,0.0,-3.8202,0.0,-3.8202,0.0,0.0,0.0,0.0,0.0,0.0,0.0,0.0,0.0,0.0,-3.8202,0.0,0.0,0.0,0.0,0.0,-3.8594,-3.8841,-3.8841,-3.9421,-3.9973,-4.0394,-4.0626,-4.1047,-4.1715,-4.1744,-4.186,-4.2092,-4.2092,-4.2092,-4.2092,-4.2092,-4.2092,-4.2092,-4.2092,-4.2092,-4.2092,-4.2092,-4.2324,-4.2673,-4.2673,-4.305,-4.3674,-4.4066,-4.4487,-4.4966,-4.5634,-4.588,-4.588,-4.588,-4.588,-4.588,-4.588,-4.588,-4.588,-4.588,-4.588,-4.588,-4.588,-4.588,-4.588,-4.588,-4.6185,-4.649,-4.649,-4.6983,-4.7622,-4.8246,-4.8566,-4.8914,-4.9553,-4.9717,-4.9717,-4.9717,-4.9717,-4.9717,-4.9717,-4.9717,-4.9717,-4.9717,-4.9717,-4.9717,-4.9717,-4.9717,-4.9717,-4.9717,-4.9717,-4.9717,-4.9717,-4.9717,-4.9717,-4.9717,-4.9717,-4.9567,-4.9349,-4.9553,-4.9567,-4.9335,-4.9567,-4.9717,-4.9717,-4.9717,-4.9717]},{"header":{"parameterUnit":"m.s-1","parameterCategory":1,"la1":30.6,"la2":29.2853,"lo1":-89.7004,"lo2":-87.6739,"dy":0.0162,"dx":0.0183,"nx":112,"ny":82,"refTime":"2023-06-08T06:00:00:Z","depth":0,"parameterNumber":3,"parameterNumberName":"V-component_of_WINDS"},"data":[0.0,0.0,0.0,0.0,0.0,0.0,0.0,0.0,0.0,0.0,0.0,0.0,0.0,0.0,0.0,0.0,0.0,0.0,0.0,0.0,0.0,0.0,0.0,0.0,0.0,0.0,0.0,0.0,0.0,0.0,0.0,0.0,0.0,0.0,0.0,0.0,0.0,0.0,0.0,0.0,0.0,0.0,0.0,0.0,0.0,0.0,0.0,0.0,0.0,0.0,0.0,0.0,0.0,0.0,0.0,0.0,0.0,0.0,0.0,0.0,0.0,0.0,0.0,0.0,0.0,0.0,0.0,0.0,0.0,0.0,0.0,0.0,0.0,0.0,0.0,0.0,0.0,0.0,0.0,0.0,0.0,0.0,0.0,0.0,0.0,0.0,0.0,0.0,0.0,0.0,-3.7061,-3.7738,-3.8323,-3.8662,-3.8662,-3.8662,-3.8616,-3.8523,0.0,0.0,0.0,0.0,0.0,0.0,0.0,0.0,0.0,0.0,0.0,0.0,0.0,0.0,0.0,0.0,0.0,0.0,0.0,0.0,0.0,0.0,0.0,0.0,0.0,0.0,0.0,0.0,0.0,0.0,0.0,0.0,0.0,0.0,0.0,0.0,0.0,0.0,0.0,0.0,0.0,0.0,0.0,0.0,0.0,0.0,0.0,0.0,0.0,0.0,0.0,0.0,0.0,0.0,0.0,0.0,0.0,0.0,0.0,0.0,0.0,0.0,0.0,0.0,0.0,0.0,0.0,0.0,0.0,0.0,0.0,0.0,0.0,0.0,0.0,0.0,0.0,0.0,0.0,0.0,0.0,0.0,0.0,0.0,0.0,0.0,0.0,0.0,0.0,0.0,0.0,0.0,0.0,0.0,0.0,0.0,0.0,0.0,0.0,0.0,0.0,0.0,0.0,0.0,-3.8462,-3.9105,-3.9308,-3.9336,-3.9336,-3.9336,-3.9123,-3.8554,0.0,0.0,0.0,0.0,0.0,0.0,0.0,0.0,0.0,0.0,0.0,0.0,0.0,0.0,0.0,0.0,0.0,0.0,0.0,0.0,0.0,0.0,0.0,0.0,0.0,0.0,0.0,0.0,0.0,0.0,0.0,0.0,0.0,0.0,0.0,0.0,0.0,0.0,0.0,0.0,0.0,0.0,0.0,0.0,0.0,0.0,0.0,0.0,0.0,0.0,0.0,0.0,0.0,0.0,0.0,0.0,0.0,0.0,0.0,0.0,0.0,0.0,0.0,0.0,0.0,0.0,0.0,0.0,0.0,0.0,0.0,0.0,0.0,0.0,0.0,0.0,0.0,0.0,0.0,0.0,0.0,0.0,0.0,0.0,0.0,0.0,0.0,0.0,0.0,0.0,0.0,0.0,0.0,0.0,0.0,0.0,0.0,0.0,0.0,0.0,0.0,0.0,0.0,-3.8646,-3.9136,-3.9493,-3.9813,-4.0028,-4.0028,-4.0028,-3.9905,-3.9582,-3.9567,0.0,0.0,0.0,0.0,0.0,0.0,0.0,0.0,0.0,0.0,0.0,0.0,0.0,0.0,0.0,0.0,0.0,0.0,0.0,0.0,0.0,0.0,0.0,0.0,0.0,0.0,0.0,0.0,0.0,0.0,0.0,0.0,0.0,0.0,0.0,0.0,0.0,0.0,0.0,0.0,0.0,0.0,0.0,0.0,0.0,0.0,0.0,0.0,0.0,0.0,0.0,0.0,0.0,0.0,0.0,0.0,0.0,0.0,0.0,0.0,0.0,0.0,0.0,0.0,0.0,0.0,0.0,0.0,0.0,0.0,0.0,0.0,0.0,0.0,0.0,0.0,0.0,0.0,0.0,0.0,0.0,0.0,0.0,0.0,0.0,0.0,0.0,0.0,0.0,0.0,0.0,0.0,0.0,0.0,0.0,0.0,0.0,0.0,0.0,0.0,0.0,0.0,-3.9413,-3.9721,-3.9721,-4.0182,-4.0489,-4.0489,-4.0489,-4.0489,-4.0489,-4.0489,0.0,0.0,0.0,0.0,0.0,0.0,0.0,0.0,0.0,0.0,0.0,0.0,0.0,0.0,0.0,0.0,0.0,0.0,0.0,0.0,0.0,0.0,0.0,0.0,0.0,0.0,0.0,0.0,0.0,0.0,0.0,0.0,0.0,0.0,0.0,0.0,0.0,0.0,0.0,0.0,0.0,0.0,0.0,0.0,0.0,0.0,0.0,0.0,0.0,0.0,0.0,0.0,0.0,0.0,0.0,0.0,0.0,0.0,0.0,0.0,0.0,0.0,0.0,0.0,0.0,0.0,0.0,0.0,0.0,0.0,0.0,0.0,0.0,0.0,0.0,0.0,0.0,0.0,0.0,0.0,0.0,0.0,0.0,0.0,0.0,0.0,0.0,0.0,0.0,0.0,0.0,0.0,0.0,0.0,0.0,0.0,0.0,0.0,0.0,0.0,0.0,0.0,-4.0397,-4.0428,-4.0428,-4.0459,-4.0489,-4.0489,-4.0489,-4.0489,-4.0489,-4.0489,0.0,0.0,0.0,0.0,0.0,0.0,0.0,0.0,0.0,0.0,0.0,0.0,0.0,0.0,0.0,0.0,0.0,0.0,0.0,0.0,0.0,0.0,0.0,0.0,0.0,0.0,0.0,0.0,0.0,0.0,0.0,0.0,0.0,0.0,0.0,0.0,0.0,0.0,0.0,0.0,0.0,0.0,0.0,0.0,0.0,0.0,0.0,0.0,0.0,0.0,0.0,0.0,0.0,0.0,0.0,0.0,0.0,0.0,0.0,0.0,0.0,0.0,0.0,0.0,0.0,0.0,0.0,0.0,0.0,0.0,0.0,0.0,0.0,0.0,0.0,0.0,0.0,0.0,0.0,0.0,0.0,0.0,0.0,0.0,0.0,0.0,0.0,0.0,0.0,0.0,0.0,0.0,0.0,0.0,0.0,0.0,0.0,0.0,0.0,0.0,0.0,0.0,-4.0489,-4.0489,-4.0489,-4.0489,-4.0489,-4.0489,-4.0489,-4.0489,-4.0489,0.0,0.0,0.0,0.0,0.0,0.0,0.0,0.0,0.0,0.0,0.0,0.0,0.0,0.0,0.0,0.0,0.0,0.0,0.0,0.0,0.0,0.0,0.0,0.0,0.0,0.0,0.0,0.0,0.0,0.0,0.0,0.0,0.0,0.0,0.0,0.0,0.0,0.0,0.0,0.0,0.0,0.0,0.0,0.0,0.0,0.0,0.0,0.0,0.0,0.0,0.0,0.0,0.0,0.0,0.0,0.0,0.0,0.0,0.0,0.0,0.0,0.0,0.0,0.0,0.0,0.0,0.0,0.0,0.0,0.0,0.0,0.0,0.0,0.0,0.0,0.0,0.0,0.0,0.0,0.0,0.0,0.0,0.0,0.0,0.0,0.0,0.0,0.0,0.0,0.0,0.0,0.0,0.0,0.0,0.0,0.0,0.0,0.0,0.0,0.0,0.0,0.0,-4.0489,-4.0689,-4.0863,-4.0863,-4.1028,-4.1074,-4.0858,-4.0863,-4.0735,-4.0505,0.0,0.0,0.0,0.0,0.0,0.0,0.0,0.0,0.0,0.0,0.0,0.0,0.0,0.0,0.0,0.0,0.0,0.0,0.0,0.0,0.0,0.0,0.0,0.0,0.0,0.0,0.0,0.0,0.0,0.0,0.0,0.0,0.0,0.0,0.0,0.0,0.0,0.0,0.0,0.0,0.0,0.0,0.0,0.0,0.0,0.0,0.0,0.0,0.0,0.0,0.0,0.0,0.0,0.0,0.0,0.0,0.0,0.0,0.0,0.0,0.0,0.0,0.0,0.0,0.0,0.0,0.0,0.0,0.0,0.0,0.0,0.0,0.0,0.0,0.0,0.0,0.0,0.0,0.0,0.0,0.0,0.0,0.0,0.0,0.0,0.0,0.0,0.0,0.0,0.0,0.0,0.0,0.0,0.0,0.0,0.0,0.0,0.0,0.0,0.0,0.0,0.0,-4.052,-4.117,-4.1617,-4.1617,-4.2202,-4.234,-4.1663,-4.1617,-4.1309,0.0,0.0,0.0,0.0,0.0,0.0,0.0,0.0,0.0,0.0,0.0,0.0,0.0,0.0,0.0,0.0,0.0,0.0,0.0,0.0,0.0,0.0,0.0,0.0,0.0,0.0,0.0,0.0,0.0,0.0,0.0,0.0,0.0,0.0,0.0,0.0,0.0,0.0,0.0,0.0,0.0,0.0,0.0,0.0,0.0,0.0,0.0,0.0,0.0,0.0,0.0,0.0,0.0,0.0,0.0,0.0,0.0,0.0,0.0,0.0,0.0,0.0,0.0,0.0,0.0,0.0,0.0,0.0,0.0,0.0,0.0,0.0,0.0,0.0,0.0,0.0,0.0,0.0,0.0,0.0,0.0,0.0,0.0,0.0,0.0,0.0,0.0,0.0,0.0,0.0,0.0,0.0,0.0,0.0,0.0,0.0,0.0,0.0,0.0,0.0,0.0,0.0,0.0,-4.194,-4.2186,-4.2309,-4.2309,-4.2494,-4.2525,-4.2325,-4.2309,-4.2217,-4.2001,0.0,0.0,0.0,0.0,0.0,0.0,0.0,0.0,0.0,0.0,0.0,0.0,0.0,0.0,0.0,0.0,0.0,0.0,0.0,0.0,0.0,0.0,0.0,0.0,0.0,0.0,0.0,0.0,0.0,0.0,0.0,0.0,0.0,0.0,0.0,0.0,0.0,0.0,0.0,0.0,0.0,0.0,0.0,0.0,0.0,0.0,0.0,0.0,0.0,0.0,0.0,0.0,0.0,0.0,0.0,0.0,0.0,0.0,0.0,0.0,0.0,0.0,0.0,0.0,0.0,0.0,0.0,0.0,0.0,0.0,0.0,0.0,0.0,0.0,0.0,0.0,0.0,0.0,0.0,0.0,0.0,0.0,0.0,0.0,0.0,0.0,0.0,0.0,0.0,0.0,0.0,0.0,0.0,0.0,0.0,0.0,0.0,0.0,0.0,0.0,0.0,0.0,-4.2556,-4.2833,-4.2987,-4.2987,-4.3233,-4.3279,-4.3017,-4.2987,-4.2879,-4.2633,0.0,0.0,0.0,0.0,0.0,0.0,0.0,0.0,0.0,0.0,0.0,0.0,0.0,0.0,0.0,0.0,0.0,0.0,0.0,0.0,0.0,0.0,0.0,0.0,0.0,0.0,0.0,0.0,0.0,0.0,0.0,0.0,0.0,0.0,0.0,0.0,0.0,0.0,0.0,0.0,0.0,0.0,0.0,0.0,0.0,0.0,0.0,0.0,0.0,0.0,0.0,0.0,0.0,0.0,0.0,0.0,0.0,0.0,0.0,0.0,0.0,0.0,0.0,0.0,0.0,0.0,0.0,0.0,0.0,0.0,0.0,0.0,0.0,0.0,0.0,0.0,0.0,0.0,0.0,0.0,0.0,0.0,0.0,0.0,0.0,0.0,0.0,0.0,0.0,0.0,0.0,0.0,0.0,0.0,0.0,0.0,0.0,0.0,0.0,0.0,0.0,0.0,-4.2786,-4.331,-4.3701,-4.3701,-4.4255,-4.4363,-4.3747,-4.3701,-4.3454,-4.2833,0.0,0.0,0.0,0.0,0.0,0.0,0.0,0.0,0.0,0.0,0.0,0.0,0.0,0.0,0.0,0.0,0.0,0.0,0.0,0.0,0.0,0.0,0.0,0.0,0.0,0.0,0.0,0.0,0.0,0.0,0.0,0.0,0.0,0.0,0.0,0.0,0.0,0.0,0.0,0.0,0.0,0.0,0.0,0.0,0.0,0.0,0.0,0.0,0.0,0.0,0.0,0.0,0.0,0.0,0.0,0.0,0.0,0.0,0.0,0.0,-4.0958,-4.0935,0.0,0.0,0.0,0.0,0.0,0.0,0.0,0.0,0.0,0.0,0.0,0.0,0.0,0.0,0.0,0.0,0.0,0.0,0.0,0.0,0.0,0.0,0.0,0.0,0.0,0.0,0.0,0.0,0.0,0.0,0.0,0.0,0.0,0.0,0.0,0.0,0.0,0.0,0.0,0.0,-4.4095,-4.4317,-4.4409,-4.4409,-4.4533,-4.4548,-4.4409,-4.4409,-4.4348,-4.4172,-4.4156,0.0,0.0,0.0,0.0,0.0,0.0,0.0,0.0,0.0,0.0,0.0,0.0,0.0,0.0,0.0,0.0,0.0,0.0,0.0,0.0,0.0,0.0,0.0,0.0,0.0,0.0,0.0,0.0,0.0,0.0,0.0,0.0,0.0,0.0,0.0,0.0,0.0,0.0,0.0,0.0,0.0,0.0,0.0,0.0,0.0,0.0,0.0,0.0,0.0,0.0,0.0,0.0,0.0,0.0,0.0,0.0,0.0,0.0,0.0,-4.1783,-4.1435,0.0,0.0,0.0,0.0,0.0,0.0,0.0,0.0,0.0,0.0,0.0,0.0,0.0,0.0,0.0,0.0,0.0,0.0,0.0,0.0,0.0,0.0,0.0,0.0,0.0,0.0,0.0,0.0,0.0,0.0,0.0,0.0,0.0,0.0,0.0,0.0,0.0,0.0,0.0,0.0,-4.4579,-4.461,-4.461,-4.461,-4.461,-4.461,-4.461,-4.461,-4.461,-4.461,-4.461,0.0,0.0,0.0,0.0,0.0,0.0,0.0,0.0,0.0,0.0,0.0,0.0,0.0,0.0,0.0,0.0,0.0,0.0,0.0,0.0,0.0,0.0,0.0,0.0,0.0,0.0,0.0,0.0,0.0,0.0,0.0,0.0,0.0,0.0,0.0,0.0,0.0,0.0,0.0,0.0,0.0,0.0,0.0,0.0,0.0,0.0,0.0,0.0,0.0,0.0,0.0,0.0,0.0,-4.3631,-4.4087,-4.4767,-4.4909,-4.4931,-4.4745,-4.2956,-4.239,-4.2807,-4.3335,0.0,0.0,0.0,0.0,0.0,0.0,0.0,0.0,0.0,0.0,0.0,0.0,0.0,0.0,0.0,0.0,0.0,0.0,0.0,0.0,0.0,0.0,-4.3007,-4.3007,-4.2881,-4.2783,-4.2777,0.0,0.0,0.0,0.0,0.0,0.0,0.0,0.0,0.0,0.0,0.0,-4.461,-4.461,-4.461,-4.461,-4.461,-4.461,-4.461,-4.461,-4.461,-4.461,-4.461,-4.461,0.0,0.0,0.0,0.0,0.0,0.0,0.0,0.0,0.0,0.0,0.0,0.0,0.0,0.0,0.0,0.0,0.0,0.0,0.0,0.0,0.0,0.0,0.0,0.0,0.0,0.0,0.0,0.0,0.0,0.0,0.0,0.0,-4.0912,-4.0912,0.0,0.0,0.0,0.0,0.0,0.0,0.0,0.0,0.0,0.0,0.0,0.0,0.0,-4.4164,-4.4166,-4.4912,-4.5883,-4.6986,-4.6189,-4.6077,-4.655,-4.6187,-4.5787,-4.539,-4.5517,0.0,-4.3774,-4.3481,0.0,0.0,0.0,0.0,0.0,0.0,0.0,0.0,0.0,0.0,0.0,0.0,0.0,0.0,0.0,0.0,0.0,0.0,0.0,0.0,0.0,0.0,-4.2674,-4.2674,-4.3069,-4.3454,-4.3472,-4.2998,-4.2602,-4.2674,-4.3085,-4.3516,0.0,0.0,0.0,0.0,0.0,0.0,-4.461,-4.461,-4.461,-4.461,-4.461,-4.461,-4.461,-4.461,-4.461,-4.461,-4.461,-4.461,-4.461,-4.461,0.0,0.0,0.0,0.0,0.0,0.0,0.0,0.0,0.0,0.0,0.0,0.0,0.0,0.0,0.0,0.0,0.0,0.0,0.0,0.0,0.0,0.0,0.0,0.0,0.0,0.0,0.0,0.0,0.0,-4.0721,-4.0631,-4.0871,-4.0827,-4.0983,0.0,0.0,0.0,0.0,0.0,0.0,0.0,0.0,0.0,-4.3906,-4.4853,-4.5185,-4.4757,-4.5604,-4.638,-4.7012,-4.6859,-4.7091,-4.7662,-4.7212,-4.6877,-4.6684,-4.6618,-4.6224,-4.5567,-4.4841,-4.4773,-4.5137,0.0,0.0,0.0,0.0,-4.445,-4.4388,-4.3993,-4.4172,-4.4577,-4.4383,0.0,0.0,0.0,0.0,0.0,0.0,0.0,-4.4268,-4.4268,-4.3991,-4.371,-4.371,-4.3925,-4.4178,-4.4178,-4.391,-4.371,-4.371,-4.3941,-4.4178,-4.4178,-4.4425,0.0,0.0,0.0,-4.461,-4.461,-4.4949,-4.5141,-4.5141,-4.548,-4.5557,-4.5172,-4.5141,-4.4987,-4.4641,-4.461,-4.461,-4.461,-4.461,-4.461,0.0,0.0,0.0,0.0,0.0,0.0,0.0,0.0,0.0,0.0,0.0,0.0,0.0,0.0,0.0,0.0,0.0,0.0,0.0,0.0,0.0,0.0,0.0,0.0,0.0,0.0,0.0,0.0,-4.0803,-4.0849,-4.114,-4.1282,-4.1596,0.0,0.0,0.0,0.0,0.0,0.0,-4.4364,-4.5033,-4.5438,-4.5569,-4.614,-4.6243,-4.5814,-4.6482,-4.7085,-4.7539,-4.762,-4.8032,-4.8662,-4.8315,-4.8097,-4.7927,-4.7722,-4.7566,-4.7364,-4.629,-4.5831,-4.5714,-4.5359,-4.5065,-4.4837,-4.4837,-4.4672,-4.4506,-4.4506,-4.4702,-4.493,-4.4813,-4.4689,-4.4628,-4.4628,0.0,0.0,0.0,0.0,-4.5108,-4.5279,-4.5062,-4.4918,-4.5049,-4.5095,-4.5095,-4.5095,-4.5095,-4.4987,-4.4687,-4.461,-4.461,-4.461,-4.461,0.0,-4.4841,0.0,-4.4933,-4.5064,-4.5541,-4.5849,-4.5849,-4.6296,-4.6388,-4.5895,-4.5849,-4.5634,-4.5126,-4.4926,-4.4872,-4.4872,-4.4702,-4.461,-4.461,0.0,0.0,0.0,0.0,0.0,0.0,0.0,0.0,0.0,0.0,0.0,0.0,0.0,0.0,0.0,0.0,0.0,0.0,0.0,0.0,0.0,0.0,0.0,0.0,0.0,0.0,0.0,0.0,0.0,-4.1947,-4.2605,0.0,0.0,0.0,0.0,-4.4557,-4.5093,-4.5398,-4.5431,-4.5884,-4.603,-4.5794,-4.6663,-4.7582,-4.8493,-4.856,-4.9209,-5.0376,-4.9403,-4.9189,-4.973,-4.9696,-4.9417,-4.8952,-4.9452,-4.9363,-4.8803,-4.7397,-4.6663,-4.647,-4.6437,-4.5783,-4.4886,-4.4886,-4.4357,-4.3658,-4.3658,-4.4379,-4.5195,-4.4846,-4.5183,-4.5737,-4.5737,-4.5463,0.0,0.0,-4.4918,-4.4764,-4.5411,-4.5565,-4.5695,-4.6342,-4.6496,-4.6496,-4.6496,-4.6496,-4.6111,-4.4872,-4.461,-4.461,-4.461,0.0,-4.4841,-4.5434,-4.5541,-4.5772,-4.6419,-4.6526,-4.6542,-4.6542,-4.6573,-4.6588,-4.6542,-4.6542,-4.6542,-4.6496,-4.5895,-4.5541,-4.5541,-4.4964,-4.461,-4.461,-4.461,0.0,0.0,0.0,0.0,0.0,0.0,0.0,0.0,0.0,0.0,0.0,0.0,0.0,0.0,0.0,0.0,0.0,0.0,0.0,0.0,0.0,0.0,0.0,0.0,0.0,0.0,0.0,0.0,-4.2453,-4.2707,0.0,-4.4255,-4.4736,-4.5033,-4.5216,-4.5788,-4.6225,-4.6369,-4.7009,-4.753,-4.7848,-4.8162,-4.8775,-4.9593,-4.961,-5.0268,-5.1631,-5.1241,-5.1426,-5.2031,-5.2031,-5.1972,-5.1799,-5.1972,-5.1766,-5.1295,-5.0781,-4.9611,-4.8074,-4.7829,-4.7506,-4.7104,-4.6837,-4.6548,-4.6308,-4.6308,-4.6592,-4.6835,-4.6463,-4.647,-4.6635,-4.6406,-4.6214,-4.6098,-4.6098,-4.5997,-4.5926,-4.6172,-4.6234,-4.6296,-4.6542,-4.6603,-4.6603,-4.6603,-4.6603,-4.6449,-4.5972,-4.588,-4.588,-4.588,-4.588,-4.5957,-4.6203,-4.6234,-4.6326,-4.6573,-4.6973,-4.7234,-4.7234,-4.7635,-4.7711,-4.7281,-4.7234,-4.7065,-4.6619,-4.6372,-4.6234,-4.6234,-4.5588,-4.5218,-4.5218,-4.4803,-4.461,0.0,0.0,0.0,0.0,0.0,0.0,0.0,0.0,0.0,0.0,0.0,0.0,0.0,0.0,0.0,0.0,0.0,0.0,0.0,0.0,0.0,0.0,0.0,0.0,0.0,0.0,-4.2713,-4.3158,-4.3578,-4.4231,-4.5304,-4.5899,-4.6207,-4.6207,-4.6913,-4.743,-4.7607,-4.8317,-4.9046,-4.9726,-4.9969,-5.0438,-5.1183,-5.1183,-5.1653,-5.2576,-5.2576,-5.2835,-5.3281,-5.3147,-5.3068,-5.3068,-5.2893,-5.2637,-5.2379,-5.2379,-5.1438,-4.9903,-4.919,-4.8523,-4.7943,-4.7678,-4.7525,-4.7409,-4.7563,-4.7525,-4.7371,-4.7255,-4.7099,-4.6943,-4.6667,-4.6603,-4.6603,-4.6603,-4.6603,-4.665,-4.688,-4.6942,-4.6988,-4.7219,-4.7281,-4.7281,-4.7281,-4.7281,-4.7281,-4.7281,-4.6911,-4.6603,-4.6603,-4.6603,-4.668,-4.6896,-4.6942,-4.7019,-4.725,-4.7665,-4.7942,-4.7942,-4.8343,-4.8435,-4.7989,-4.7942,-4.7758,-4.7296,-4.7065,-4.6942,-4.6942,-4.628,-4.5818,-4.5588,-4.4964,-4.4733,-4.4964,0.0,0.0,0.0,0.0,0.0,0.0,0.0,0.0,0.0,0.0,0.0,0.0,0.0,0.0,0.0,0.0,0.0,0.0,0.0,0.0,0.0,0.0,0.0,-4.2601,-4.3407,-4.4077,-4.4081,-4.5334,-4.6235,-4.6269,-4.7108,-4.7637,-4.7637,-4.8516,-4.9058,-4.9058,-4.9791,-5.0536,-5.1232,-5.1896,-5.2592,-5.3314,-5.3314,-5.333,-5.3385,-5.3385,-5.3346,-5.3346,-5.2877,-5.2661,-5.262,-5.2182,-5.1976,-5.1976,-5.1976,-5.1919,-5.1761,-5.046,-4.8883,-4.7341,-4.7302,-4.7067,-4.6766,-4.7146,-4.7028,-4.6806,-4.7185,-4.7043,-4.6726,-4.6726,-4.6726,-4.6726,-4.6726,-4.6726,-4.688,-4.7527,-4.7696,-4.7865,-4.8527,-4.8681,-4.8681,-4.8681,-4.8681,-4.8681,-4.8681,-4.7619,-4.6711,-4.6665,-4.6665,-4.688,-4.7542,-4.7635,0.0,-4.8527,-4.862,-4.862,-4.862,-4.862,-4.862,-4.862,-4.862,-4.862,-4.862,-4.8004,-4.7635,-4.7635,-4.6988,-4.6311,-4.5634,-4.501,-4.4972,-4.5618,0.0,0.0,0.0,0.0,0.0,0.0,0.0,0.0,0.0,0.0,0.0,0.0,0.0,0.0,0.0,0.0,0.0,0.0,0.0,0.0,0.0,0.0,-4.3479,-4.3115,-4.4227,-4.5332,-4.6012,-4.6453,-4.7106,-4.8117,-4.847,-4.8608,-4.8608,-4.9848,-5.06,-5.06,-5.1766,-5.2527,-5.2721,-5.2916,-5.3369,-5.4098,-5.4114,-5.4357,-5.4843,-5.4843,-5.4681,-5.4395,-5.4271,-5.4007,-5.3687,-5.3545,-5.329,-5.2973,-5.2973,-5.252,-5.1704,-5.1142,-5.0606,-5.0154,-4.9853,-4.9643,-4.9616,-4.9685,-4.9658,-4.9616,-4.9685,-4.9643,-4.9558,-4.9558,-4.9558,-4.9558,-4.9558,-4.9558,-4.9605,-4.9789,-4.9851,-4.9897,-5.0082,-5.0128,-5.0128,-5.0128,-5.0128,-5.0128,-5.0128,-4.982,-4.9251,-4.8235,-4.8065,-4.8127,-4.8312,-4.8343,0.0,-4.8589,-4.862,-4.862,-4.862,-4.862,-4.862,-4.862,-4.862,-4.862,-4.862,-4.8435,-4.8343,-4.8343,-4.7696,-4.7004,-4.6326,-4.6142,-4.6126,0.0,0.0,0.0,0.0,0.0,0.0,0.0,0.0,0.0,0.0,0.0,0.0,0.0,0.0,0.0,0.0,0.0,0.0,0.0,0.0,0.0,0.0,-4.4301,-4.4643,-4.4803,-4.5554,-4.6305,-4.6864,-4.741,-4.8107,-4.8897,-4.958,-4.9936,-4.9936,-5.1264,-5.2074,-5.2074,-5.3159,-5.3774,-5.3774,-5.4049,-5.4405,-5.4826,-5.4826,-5.494,-5.5164,-5.5328,-5.518,-5.4806,-5.4806,-5.4555,-5.4103,-5.3872,-5.3524,-5.3084,-5.3084,-5.2734,0.0,0.0,0.0,0.0,0.0,-5.0697,-5.0697,-5.0697,-5.0697,-5.0697,-5.0697,-5.0697,-5.0697,-5.0697,-5.0697,-5.0697,-5.0697,-5.0697,-5.0697,-5.0697,-5.0697,-5.0697,-5.0697,-5.0697,-5.0697,-5.0697,-5.0697,-5.0697,-5.0697,-5.0697,0.0,-4.962,-4.9481,-4.9481,-4.9481,-4.9481,-4.9481,-4.9481,-4.9481,-4.9481,-4.9481,-4.9481,-4.9481,-4.9481,-4.9481,0.0,0.0,0.0,-4.8927,-4.862,-4.7958,0.0,0.0,0.0,-4.6742,-4.7019,-4.6742,0.0,0.0,-4.5418,-4.5418,0.0,0.0,0.0,0.0,0.0,0.0,0.0,0.0,0.0,0.0,0.0,0.0,0.0,0.0,0.0,0.0,-4.5532,-4.6212,-4.7006,-4.72,-4.7249,-4.7249,-4.8447,-4.9269,-4.9333,-5.0579,-5.135,-5.135,-5.2595,-5.3355,-5.3355,0.0,0.0,0.0,0.0,-5.5303,-5.5246,-5.5303,-5.5164,-5.4806,-5.5122,-5.5097,-5.4723,-5.4681,-5.4386,-5.3915,-5.3524,-5.3084,-5.2713,-5.2713,-5.2713,-5.2652,-5.2052,-5.1451,-5.0928,-5.0928,-5.0928,-5.0928,-5.0928,0.0,0.0,-5.0928,-5.0928,-5.0928,-5.0928,-5.0928,-5.0928,-5.0928,-5.0928,-5.0928,-5.0928,-5.0928,-5.0928,-5.0928,-5.0928,-5.0928,-5.0928,-5.0928,-5.0928,-5.0928,-5.0928,-5.0928,-5.0928,-5.079,-5.0697,-5.0697,-5.0697,-5.0697,-5.0697,-5.0697,-5.0697,-5.0697,0.0,0.0,-5.0697,-5.0697,-5.0436,-4.9835,-4.9805,-4.9512,-4.8866,-4.8281,-4.8204,-4.8727,-4.7558,-4.7204,-4.7711,-4.7111,-4.6819,-4.6819,-4.6665,-4.6603,0.0,0.0,0.0,0.0,0.0,0.0,0.0,0.0,0.0,0.0,0.0,0.0,0.0,0.0,0.0,-4.6277,-4.6585,-4.7119,-4.8414,-4.9111,-4.9483,-4.9483,-5.0244,-5.0989,-5.1523,-5.2039,-5.2316,-5.2316,-5.3142,-5.3623,-5.3623,-5.4313,-5.4739,-5.4739,-5.4867,-5.4723,-5.4343,-5.4723,-5.489,-5.4806,0.0,0.0,-5.4215,-5.3856,-5.3437,-5.2982,-5.2877,-5.2788,-5.2713,-5.2713,-5.2713,-5.2698,-5.2575,-5.2436,-5.2313,-5.2313,-5.2313,-5.2313,-5.2313,-5.2313,-5.2313,-5.2313,-5.2313,-5.2313,-5.2313,-5.2313,0.0,-5.2313,-5.2313,-5.2313,-5.2313,-5.2313,-5.2313,-5.2313,-5.2313,-5.2313,-5.2313,-5.2313,-5.2313,-5.2313,-5.2313,-5.2313,-5.2313,-5.1421,-5.0697,-5.0697,-5.0697,-5.0697,-5.0697,-5.0697,-5.0697,-5.0697,-5.0697,-5.0697,-5.0697,-5.0697,-5.0636,-5.0497,-5.0497,-5.0436,-5.0297,-5.0174,-4.9897,-4.9481,-4.922,-4.8866,-4.8419,-4.8296,-4.8219,-4.8204,-4.7096,-4.6603,0.0,0.0,0.0,0.0,0.0,0.0,0.0,0.0,0.0,0.0,0.0,-4.435,0.0,0.0,-4.6196,-4.7281,-4.7734,-4.8262,-4.9126,-4.9724,-5.0154,-5.0284,-5.1151,-5.1807,-5.2013,-5.2708,-5.3043,-5.2797,-5.3506,-5.3903,-5.3903,-5.4237,-5.4428,-5.4428,-5.4428,-5.4343,-5.4103,-5.4343,-5.4343,-5.4114,-5.4087,-5.3958,-5.3742,-5.3742,-5.3481,-5.304,-5.304,-5.2922,-5.2713,-5.2713,-5.2713,-5.2713,-5.2713,-5.2713,-5.2713,-5.2713,-5.2713,-5.2713,-5.2713,-5.2713,-5.2713,-5.2713,-5.2713,-5.2713,-5.2713,-5.2713,-5.2713,-5.2713,-5.2713,-5.2713,-5.2713,-5.2713,-5.2713,-5.2713,-5.2713,-5.2713,-5.2713,-5.2713,-5.2713,-5.2713,-5.2713,-5.2713,-5.2713,-5.2144,-5.1698,-5.1698,-5.1698,-5.1698,-5.1698,-5.1698,-5.1698,-5.1698,-5.1698,-5.1698,-5.1698,-5.139,-5.1205,-5.1205,-5.0882,-5.0697,-5.0697,-5.0697,-5.0528,-5.0205,-5.0189,-5.002,-4.9651,-4.9651,-4.9651,-4.9635,-4.8958,-4.8266,0.0,0.0,0.0,0.0,0.0,0.0,0.0,0.0,-4.3489,-4.3751,-4.4315,-4.5025,-4.5855,-4.6532,-4.7289,-4.8162,-4.8723,-4.9227,-4.9651,-5.001,-5.0402,-5.0721,-5.1671,-5.2243,-5.2122,-5.3057,-5.3486,-5.3123,-5.3643,-5.3958,-5.3958,-5.3958,-5.3958,-5.3958,-5.3958,-5.3915,-5.3844,-5.3915,-5.3785,-5.3377,-5.3699,-5.3734,-5.3624,-5.3903,-5.3894,-5.365,-5.365,-5.3443,-5.3098,-5.3098,-5.3098,-5.3098,-5.3098,-5.3098,-5.3083,-5.2806,-5.2713,-5.2713,-5.2713,-5.2713,-5.2713,-5.2713,-5.2713,-5.2713,-5.2713,-5.2713,-5.2713,-5.2713,-5.2713,-5.2713,-5.2713,-5.2713,-5.2713,-5.2713,-5.2713,-5.2713,-5.2713,-5.2713,-5.2713,-5.2713,-5.2713,-5.2713,-5.2713,-5.2713,-5.2713,-5.2713,-5.2713,-5.2713,-5.2713,-5.2713,-5.2713,-5.2713,-5.2713,-5.2713,-5.2713,-5.2206,-5.1898,-5.1898,-5.139,-5.1082,-5.1082,-5.1082,-5.1021,-5.0897,-5.0897,-5.082,-5.0697,-5.0697,-5.0697,-5.0697,-5.0697,-5.0097,-3.7477,-3.8323,-3.9354,-4.0143,-4.1419,-4.2392,0.0,0.0,-4.4109,-4.4143,-4.4464,-4.5113,-4.653,-4.7081,-4.7798,-4.9106,-4.9395,-4.9683,-5.0317,-5.0644,-5.1055,-5.1679,-5.2203,-5.2635,-5.2855,-5.3208,-5.3399,-5.3356,-5.3418,-5.3465,-5.3465,-5.3465,-5.3465,-5.3465,-5.3465,-5.3261,-5.2833,-5.3261,-5.3465,-5.3393,-5.3011,-5.3365,-5.4298,-5.3909,-5.4021,-5.4545,-5.4545,-5.4499,-5.4468,-5.4468,-5.4468,-5.4468,-5.4468,-5.4468,-5.4314,-5.316,-5.2713,-5.2713,-5.2713,-5.2713,-5.2713,-5.2713,-5.2713,-5.2713,-5.2713,-5.2713,-5.2713,-5.2713,-5.2713,-5.2713,-5.2713,-5.2713,-5.2713,-5.2713,-5.2713,-5.2713,-5.2713,-5.2713,-5.2713,-5.2713,-5.2713,-5.2713,-5.2713,-5.2713,-5.2713,-5.2713,-5.2713,-5.2713,-5.2713,-5.2713,-5.2713,-5.2713,-5.2713,-5.2713,-5.2713,-5.2652,-5.2606,-5.2606,-5.2529,-5.2483,-5.2483,-5.2483,-5.2206,-5.1605,-5.159,-5.1298,-5.0697,-5.0697,-5.0697,-5.0697,-5.0697,-5.062,-3.7984,-3.9385,-4.0693,0.0,-4.1585,-4.2638,-4.2693,-4.347,-4.424,-4.4449,-4.5267,-4.6194,-4.7036,-4.7727,-4.8481,0.0,-4.9623,-4.9899,-5.0325,-5.0688,-5.1124,-5.1701,-5.2166,-5.2517,-5.2822,-5.3178,-5.3305,-5.2995,-5.2995,-5.2995,-5.2995,-5.2995,-5.2995,-5.2995,-5.2995,-5.2877,-5.2713,-5.2877,-5.3212,-5.3554,-5.3389,-5.3744,-5.4575,-5.4345,-5.4422,-5.4683,-5.4683,-5.4683,-5.4683,-5.4683,-5.4683,-5.4683,-5.4683,-5.4683,-5.4621,-5.4053,-5.3837,-5.3837,-5.3837,-5.3837,-5.3837,-5.3837,-5.3837,-5.3837,-5.3837,-5.3837,-5.3837,-5.3837,-5.3837,-5.3837,-5.3837,-5.3837,-5.3837,-5.3837,-5.3837,-5.3837,-5.3837,-5.3837,-5.3837,-5.3837,-5.3837,-5.3837,-5.3837,-5.3837,-5.3837,-5.3837,-5.3221,-5.2713,-5.2713,-5.2713,-5.2713,-5.2713,-5.2713,-5.2713,-5.2713,-5.2713,-5.2713,-5.2713,-5.2713,-5.2713,-5.2713,-5.2713,-5.2575,-5.2298,-5.2298,-5.2144,-5.1867,-5.1867,-5.1867,-5.1867,-5.1867,-5.1867,-3.9123,-4.0447,-4.1524,-4.1186,-4.2058,-4.3082,-4.3195,-4.3868,-4.4533,-4.4787,-4.5709,-4.6664,-4.7389,-4.8127,-4.8827,-4.9374,-4.96,-4.9873,-5.0252,-5.0585,-5.108,-5.1763,-5.2188,-5.2498,-5.2667,-5.3011,-5.3055,-5.2713,-5.2713,-5.2713,-5.2713,-5.2713,-5.2713,-5.2713,-5.2713,-5.2713,-5.2713,-5.2898,-5.3237,-5.3729,-5.3914,-5.4345,-5.5007,-5.5207,-5.5284,-5.5284,-5.5284,-5.5284,-5.5284,-5.5284,-5.5284,-5.5284,-5.5284,-5.5284,-5.5284,-5.5284,-5.5053,-5.4683,-5.4683,-5.4683,-5.4683,-5.4683,-5.4683,-5.4683,-5.4683,-5.4683,-5.4683,-5.4683,-5.4683,-5.4683,-5.4683,-5.4683,-5.4683,-5.4683,-5.4683,-5.4683,-5.4683,-5.4683,-5.4683,-5.4683,-5.4683,-5.4683,-5.4683,-5.4683,-5.4683,-5.4683,-5.3853,-5.3268,-5.3268,-5.3268,-5.3268,-5.3268,-5.3268,-5.3268,-5.3268,-5.3098,-5.2991,-5.2991,-5.2806,-5.2713,-5.2713,-5.2713,-5.2713,-5.2713,-5.2713,-5.2713,-5.2713,-5.2713,-5.2713,-5.2713,-5.2713,-5.2713,-4.114,-4.1555,-4.1755,-4.2386,-4.334,-4.4039,-4.3689,-4.44,-4.5179,-4.5179,-4.5439,-4.6098,-4.752,-4.809,-4.8544,-4.9175,-4.93,-4.9565,-5.0195,-5.0518,-5.1114,-5.2141,-5.2518,-5.2683,0.0,-5.2713,-5.2713,-5.2713,-5.2713,-5.2713,-5.2713,-5.2713,-5.2713,-5.2713,-5.2713,-5.2713,-5.2713,-5.336,-5.3698,-5.3729,-5.4345,-5.5037,-5.5684,-5.644,-5.6748,-5.6748,-5.6748,-5.6748,-5.6748,-5.6748,-5.6748,-5.6748,-5.6748,-5.6748,-5.6748,-5.6748,-5.5869,-5.4683,-5.4683,-5.4683,-5.4683,-5.4683,-5.4683,-5.4683,-5.4683,-5.4683,-5.4683,-5.4683,-5.4683,-5.4683,-5.4683,-5.4683,-5.4683,-5.4683,-5.4683,-5.4683,-5.4683,-5.4683,-5.4683,-5.4683,-5.4683,-5.4683,-5.4683,-5.4683,-5.4683,-5.4683,-5.4652,-5.4621,-5.4621,-5.4621,-5.4621,-5.4621,-5.4621,-5.4621,-5.4621,-5.4022,-5.3653,-5.3653,-5.3083,-5.2713,-5.2713,-5.2713,-5.2713,-5.2713,-5.2713,-5.2713,-5.2713,-5.2713,-5.2713,-5.2713,-5.2713,-5.2713,-4.134,-4.2248,-4.2992,-4.3223,-4.3852,-4.4421,-4.4271,-4.4516,-4.4799,-4.4799,-4.558,-4.6523,-4.7332,-4.8049,-4.867,-4.9203,-4.9031,-4.9228,-5.0387,-5.0629,-5.1156,-5.2399,-5.2664,0.0,0.0,0.0,0.0,-5.2713,-5.2713,-5.2713,-5.2713,-5.2713,-5.2713,-5.2713,-5.2713,-5.2929,-5.3375,-5.3606,-5.416,-5.5037,-5.5745,-5.6192,-5.6455,-5.6702,-5.681,-5.681,-5.681,-5.681,-5.681,-5.681,-5.681,-5.681,-5.681,-5.681,-5.681,-5.681,-5.6517,-5.6084,-5.6084,-5.6084,-5.6084,-5.6084,-5.6084,-5.6084,-5.6084,-5.6084,-5.6084,-5.6084,-5.6084,-5.6084,-5.6084,-5.6084,-5.6084,-5.6084,-5.6084,-5.6084,-5.6084,-5.6084,-5.6084,-5.6084,-5.6084,-5.6084,-5.6084,-5.6084,-5.6084,-5.6084,-5.5315,-5.4683,-5.4683,-5.4683,-5.4683,-5.4683,-5.4683,-5.4683,-5.4683,-5.4468,-5.4345,-5.4345,-5.4129,-5.3852,-5.3406,-5.3375,-5.316,-5.2729,-5.2713,-5.2713,-5.2713,-5.2713,-5.2713,-5.2713,-5.2713,-5.2713,-4.2048,-4.2961,-4.367,-4.3917,-4.4302,-4.461,-4.461,-4.461,-4.461,-4.461,-4.5464,-4.639,-4.6928,-4.7713,-4.8409,-4.8944,-4.8785,-4.9097,-5.0497,-5.0697,-5.1205,-5.2544,-5.2713,-5.2713,0.0,0.0,0.0,-5.2713,-5.2713,-5.2713,-5.2713,-5.2713,-5.2713,-5.2713,-5.2944,-5.3283,-5.3729,-5.4191,-5.4976,-5.6084,-5.6594,-5.681,-5.681,-5.681,-5.681,-5.681,-5.681,-5.681,-5.681,-5.681,-5.681,-5.681,-5.681,-5.681,-5.681,-5.681,-5.681,-5.681,-5.681,-5.681,-5.681,-5.681,-5.681,-5.681,-5.681,-5.681,-5.681,-5.681,-5.681,-5.681,-5.681,-5.681,-5.681,-5.681,-5.681,-5.681,-5.681,-5.681,-5.681,-5.681,-5.681,-5.681,-5.681,-5.681,-5.681,-5.681,-5.6023,-5.5453,-5.5453,-5.5453,-5.5453,-5.5453,-5.5453,-5.5453,-5.5453,-5.5222,-5.5068,-5.5068,-5.4806,-5.4498,-5.4053,-5.4037,-5.3822,-5.3437,-5.3191,-5.3083,-5.3083,-5.2837,-5.2713,-5.2713,-5.2713,-5.2713,-4.327,-4.3639,-4.3809,-4.4456,-4.461,-4.461,-4.461,-4.461,-4.461,-4.461,-4.511,-4.5788,0.0,0.0,-4.7819,-4.8466,-4.8589,-4.9097,-5.0497,-5.0697,-5.1205,0.0,0.0,0.0,0.0,0.0,0.0,-5.2713,0.0,-5.2713,-5.2713,-5.2713,-5.2729,-5.276,-5.3391,-5.3745,-5.3822,-5.5099,-5.6084,-5.681,-5.681,-5.681,-5.681,-5.681,-5.681,-5.681,-5.681,-5.681,-5.681,-5.681,-5.681,-5.681,-5.681,-5.681,-5.681,-5.681,-5.681,-5.681,-5.681,-5.681,-5.681,-5.681,-5.681,-5.681,-5.681,-5.681,-5.681,-5.681,-5.681,-5.681,-5.681,-5.681,-5.681,-5.681,-5.681,-5.681,-5.681,-5.681,-5.681,-5.681,-5.681,-5.681,-5.681,-5.681,-5.681,-5.681,-5.681,-5.681,-5.681,-5.681,-5.681,-5.681,-5.681,-5.681,-5.681,-5.613,-5.5745,-5.5745,-5.5176,-5.4775,-5.4729,-5.4729,-5.4714,-5.4683,-5.4053,-5.3714,-5.3729,-5.3083,-5.2744,-5.2713,-5.2713,-5.2713,-4.3516,-4.3978,-4.4409,-4.4579,-4.461,-4.461,-4.461,-4.461,-4.461,-4.461,-4.511,-4.5634,0.0,0.0,0.0,-4.7835,-4.8281,0.0,-5.0497,-5.0697,0.0,-5.2544,0.0,-5.2713,-5.2713,-5.2713,0.0,0.0,-5.2713,-5.2713,-5.2713,-5.2713,-5.2944,-5.3452,-5.3637,-5.4191,-5.5176,-5.6053,-5.6625,-5.681,-5.681,-5.681,-5.681,-5.681,-5.681,-5.681,-5.681,-5.681,-5.681,-5.681,-5.681,-5.681,-5.681,-5.681,-5.681,-5.681,-5.681,-5.681,-5.681,-5.681,-5.681,-5.681,-5.681,-5.681,-5.681,-5.681,-5.681,-5.681,-5.681,-5.681,-5.681,-5.681,-5.681,-5.681,-5.681,-5.681,-5.681,-5.681,-5.681,-5.681,-5.681,-5.681,-5.681,-5.681,-5.681,-5.681,-5.681,-5.681,-5.681,-5.681,-5.681,-5.681,-5.681,-5.681,-5.681,-5.664,-5.6532,-5.6532,-5.6378,-5.6007,-5.5468,-5.5453,-5.5222,-5.4698,-5.4514,-5.4176,-5.3729,-5.3545,-5.3206,-5.2713,-5.2713,-5.2713,-4.3978,-4.4317,-4.461,-4.461,-4.461,-4.461,-4.461,-4.461,-4.461,-4.461,-4.4918,0.0,0.0,0.0,0.0,0.0,0.0,0.0,-5.0451,-5.0697,-5.1205,0.0,-5.2713,0.0,-5.2713,-5.2713,-5.2713,0.0,-5.2713,-5.2713,-5.2713,-5.2713,-5.3021,-5.3698,-5.396,-5.4807,-5.6146,-5.6609,-5.681,-5.681,-5.681,-5.681,-5.681,-5.681,-5.681,-5.681,-5.681,-5.681,-5.681,-5.681,-5.681,-5.681,-5.681,-5.681,-5.681,-5.681,-5.681,-5.681,-5.681,-5.681,-5.681,-5.681,-5.681,-5.681,-5.681,-5.681,-5.681,-5.681,-5.681,-5.681,-5.681,-5.681,-5.681,-5.681,-5.681,-5.681,-5.681,-5.681,-5.681,-5.681,-5.681,-5.681,-5.681,-5.681,-5.681,-5.681,-5.681,-5.681,-5.681,-5.681,-5.681,-5.681,-5.681,-5.681,-5.681,-5.681,-5.681,-5.681,-5.681,-5.6625,-5.6176,-5.6161,-5.5992,-5.5622,-5.5315,-5.4961,-5.4591,-5.4006,-5.3529,-5.3144,-5.2852,-5.2713,-4.4456,-4.461,-4.461,-4.461,-4.461,-4.461,-4.461,-4.461,-4.461,-4.461,0.0,-4.4795,-4.5341,-4.5526,-4.6003,-4.7265,0.0,-4.8327,-5.0405,-5.0697,-5.1205,-5.2544,-5.2713,-5.2713,-5.2713,-5.2713,-5.2713,-5.2713,-5.2713,-5.2713,-5.2713,-5.279,-5.3191,-5.396,-5.4637,-5.5561,-5.6794,-5.681,-5.681,-5.681,-5.681,-5.681,-5.681,-5.681,-5.681,-5.681,-5.681,-5.681,-5.681,-5.681,-5.681,-5.681,-5.681,-5.681,-5.681,-5.681,-5.681,-5.681,-5.681,-5.681,-5.681,-5.681,-5.681,-5.681,-5.681,-5.681,-5.681,-5.681,-5.681,-5.681,-5.681,-5.681,-5.681,-5.681,-5.681,-5.681,-5.681,-5.681,-5.681,-5.681,-5.681,-5.681,-5.681,-5.681,-5.681,-5.681,-5.681,-5.681,-5.681,-5.681,-5.681,-5.681,-5.681,-5.681,-5.681,-5.681,-5.681,-5.681,-5.681,-5.681,-5.681,-5.681,-5.681,-5.681,-5.6146,-5.5792,-5.5684,-5.4453,-5.3806,-5.3653,-5.3021,-5.2713,-4.4579,-4.461,-4.461,-4.461,-4.461,-4.461,-4.461,-4.461,0.0,0.0,0.0,-4.4656,-4.4764,-4.5218,0.0,-4.665,0.0,0.0,0.0,0.0,-5.1205,0.0,0.0,0.0,0.0,0.0,0.0,0.0,-5.2713,-5.2713,-5.2713,-5.3252,-5.4099,-5.5315,-5.6038,-5.6563,-5.681,-5.681,-5.681,-5.681,-5.681,-5.681,-5.681,-5.681,-5.681,-5.681,-5.681,0.0,-5.681,-5.681,-5.681,-5.681,-5.681,-5.681,-5.681,-5.681,-5.681,-5.681,-5.681,-5.681,-5.681,-5.681,-5.681,-5.681,-5.681,-5.681,-5.681,-5.681,-5.681,-5.681,-5.681,-5.681,-5.681,-5.681,-5.681,-5.681,-5.681,-5.681,-5.681,-5.681,-5.681,-5.681,-5.681,-5.681,-5.681,-5.681,-5.681,-5.681,-5.681,-5.681,-5.681,-5.681,-5.681,-5.681,-5.681,-5.681,-5.681,-5.681,-5.681,-5.681,-5.681,-5.681,-5.681,-5.681,-5.6686,-5.6332,-5.5684,-5.493,-5.4222,-5.3653,-5.3021,-5.2713,-4.461,-4.461,-4.461,-4.461,-4.461,-4.461,-4.461,0.0,0.0,0.0,-4.4379,-4.4502,-4.4148,0.0,0.0,0.0,0.0,0.0,0.0,0.0,0.0,0.0,0.0,0.0,0.0,0.0,0.0,0.0,-5.2713,-5.2713,-5.2713,-5.3683,-5.4699,-5.5669,-5.644,-5.681,-5.681,-5.681,-5.681,-5.681,-5.681,-5.681,-5.681,-5.681,-5.681,-5.681,-5.681,-5.681,-5.681,-5.681,-5.681,-5.681,-5.681,-5.681,-5.681,-5.681,-5.681,-5.681,-5.681,-5.681,-5.681,-5.681,-5.681,-5.681,-5.681,-5.681,-5.681,-5.681,-5.681,-5.681,-5.681,-5.681,-5.681,-5.681,-5.681,-5.681,-5.681,-5.681,-5.681,-5.681,-5.681,-5.681,-5.681,-5.681,-5.681,-5.681,-5.681,-5.681,-5.681,-5.681,-5.681,-5.681,-5.681,-5.681,-5.681,-5.681,-5.681,-5.681,-5.681,-5.681,-5.681,-5.681,-5.681,-5.681,-5.681,-5.664,-5.6286,-5.5222,-5.4514,-5.4176,-5.3191,-5.2713,-4.4579,-4.461,-4.461,-4.461,-4.461,-4.4579,-4.4425,-4.4409,0.0,0.0,-4.3787,-4.4033,-4.3685,0.0,0.0,0.0,0.0,0.0,0.0,0.0,0.0,0.0,0.0,0.0,0.0,0.0,0.0,0.0,-5.2713,-5.2837,-5.3129,-5.4114,-5.5099,-5.5899,-5.6517,-5.681,-5.681,-5.681,-5.681,-5.681,-5.681,-5.681,-5.681,-5.681,-5.681,-5.681,-5.681,-5.681,-5.681,-5.681,-5.681,-5.681,-5.681,-5.681,-5.681,-5.681,-5.681,-5.681,-5.681,-5.681,-5.681,-5.681,-5.681,-5.681,-5.681,-5.681,-5.681,-5.681,-5.681,-5.681,-5.681,-5.681,-5.681,-5.681,-5.681,-5.681,-5.681,-5.681,-5.681,-5.681,-5.681,-5.681,-5.681,-5.681,-5.681,-5.681,-5.681,-5.681,-5.681,-5.681,-5.681,-5.681,-5.681,-5.681,-5.681,-5.681,-5.681,-5.681,-5.681,-5.681,-5.681,-5.681,-5.681,-5.681,-5.681,-5.681,-5.681,-5.5391,-5.4683,-5.4652,-5.3345,-5.2713,-4.444,-4.461,-4.461,-4.461,-4.461,-4.4456,-4.384,0.0,0.0,-4.2833,-4.274,-4.294,-4.3516,-4.3655,0.0,0.0,0.0,0.0,0.0,0.0,0.0,0.0,0.0,0.0,0.0,0.0,0.0,0.0,-5.2713,-5.3252,-5.4437,-5.4621,-5.533,-5.6671,-5.6779,-5.681,-5.681,-5.681,-5.681,-5.681,-5.681,-5.681,-5.681,-5.681,-5.681,-5.681,-5.681,-5.681,0.0,-5.681,-5.681,-5.681,-5.681,-5.681,-5.681,-5.681,-5.681,-5.681,-5.681,-5.681,-5.681,-5.681,-5.681,-5.681,-5.681,-5.681,-5.681,-5.681,-5.681,-5.681,-5.681,-5.681,-5.681,-5.681,-5.681,-5.681,-5.681,-5.681,-5.681,-5.681,-5.681,-5.681,-5.681,-5.681,-5.681,-5.681,-5.681,-5.681,-5.681,-5.681,-5.681,-5.681,-5.681,-5.681,-5.681,-5.681,-5.681,-5.681,-5.681,-5.681,-5.681,-5.681,-5.681,-5.681,-5.681,-5.681,-5.681,-5.5391,-5.4683,-5.4652,-5.3345,-5.2713,-4.3932,-4.4302,-4.461,-4.461,-4.4317,-4.3932,-4.367,0.0,0.0,-4.214,-4.2325,-4.2694,-4.294,-4.3347,-4.3917,0.0,0.0,0.0,0.0,0.0,0.0,0.0,0.0,0.0,0.0,0.0,0.0,0.0,-5.2713,-5.3129,-5.4022,-5.4468,-5.5161,-5.6084,-5.6579,-5.681,-5.681,-5.681,-5.681,-5.681,-5.681,-5.681,-5.681,-5.681,-5.681,-5.681,-5.681,-5.681,0.0,-5.681,-5.681,-5.681,-5.681,-5.681,-5.681,-5.681,-5.681,-5.681,-5.681,-5.681,-5.681,-5.681,-5.681,-5.681,-5.681,-5.681,-5.681,-5.681,-5.681,-5.681,-5.681,-5.681,-5.681,-5.681,-5.681,-5.681,-5.681,-5.681,-5.681,-5.681,-5.681,-5.681,-5.681,-5.681,-5.681,-5.681,-5.681,-5.681,-5.681,-5.681,-5.681,-5.681,-5.681,-5.681,-5.681,-5.681,-5.681,-5.681,-5.681,-5.681,-5.681,-5.681,-5.681,-5.681,-5.681,-5.6594,-5.6115,-5.5176,-5.4468,-5.4053,-5.316,-5.2713,-4.3171,-4.3633,-4.4002,-4.4002,-4.3633,-4.327,0.0,0.0,0.0,-4.1432,-4.1663,-4.2125,-4.2525,-4.2987,-4.3608,0.0,0.0,-4.6372,0.0,0.0,0.0,0.0,0.0,0.0,0.0,0.0,0.0,0.0,-5.2713,-5.2914,-5.3391,-5.4022,-5.473,-5.5391,-5.5899,-5.6161,-5.6161,-5.6161,-5.6253,-5.6486,-5.6486,-5.6609,-5.681,-5.681,-5.681,-5.681,-5.681,-5.681,0.0,-5.681,-5.681,-5.681,-5.681,-5.681,-5.681,-5.681,-5.681,-5.681,-5.681,-5.681,-5.681,-5.681,-5.681,-5.681,-5.681,-5.681,-5.681,-5.681,-5.681,-5.681,-5.681,-5.681,-5.681,-5.681,-5.681,-5.681,-5.681,-5.681,-5.681,-5.681,-5.681,-5.681,-5.681,-5.681,-5.681,-5.681,-5.681,-5.681,-5.681,-5.681,-5.681,-5.681,-5.681,-5.681,-5.681,-5.681,-5.681,-5.681,-5.681,-5.681,-5.681,-5.681,-5.681,-5.681,-5.6609,-5.6192,-5.5684,-5.4853,-5.4145,-5.3653,-5.3021,-5.2713,-4.2248,-4.2633,-4.2633,-4.2633,-4.2633,-4.2448,0.0,0.0,-4.1401,-4.0659,-4.0505,-4.0935,-4.2355,-4.2617,-4.3048,-4.4356,0.0,0.0,0.0,0.0,0.0,0.0,0.0,0.0,0.0,0.0,0.0,0.0,-5.2713,0.0,-5.2729,-5.3375,-5.4037,-5.4668,-5.4698,-5.4714,-5.4714,-5.4714,-5.5068,-5.5699,-5.5699,-5.6069,-5.681,-5.681,-5.681,-5.681,-5.681,-5.681,0.0,-5.681,-5.681,-5.681,-5.681,-5.681,-5.681,-5.681,-5.681,-5.681,-5.681,-5.681,-5.681,-5.681,-5.681,-5.681,-5.681,-5.681,-5.681,-5.681,-5.681,-5.681,-5.681,-5.681,-5.681,-5.681,-5.681,-5.681,-5.681,-5.681,-5.681,-5.681,-5.681,-5.681,-5.681,-5.681,-5.681,-5.681,-5.681,-5.681,-5.681,-5.681,-5.681,-5.681,-5.681,-5.681,-5.681,-5.681,-5.681,-5.681,-5.681,-5.681,-5.681,-5.681,-5.681,-5.681,-5.6069,-5.5699,-5.5684,-5.4376,-5.3729,-5.3653,-5.3021,-5.2713,-4.1028,-4.1878,-4.2602,-4.2602,-4.2263,-4.1863,-4.1648,0.0,-4.0766,-4.0551,-4.0489,-4.092,-4.2355,-4.2602,-4.3048,-4.4356,-4.5141,0.0,0.0,0.0,0.0,0.0,0.0,0.0,0.0,0.0,0.0,0.0,-5.2713,-5.2713,-5.2713,-5.2914,-5.3345,-5.3976,-5.4437,-5.4683,-5.4683,-5.4683,-5.4837,-5.5037,-5.5037,-5.5391,-5.6023,-5.6023,-5.6347,-5.681,-5.681,-5.681,-5.681,-5.681,-5.681,-5.681,-5.681,-5.681,-5.681,-5.681,-5.681,-5.681,-5.681,-5.681,-5.681,-5.681,-5.681,-5.681,-5.681,-5.681,-5.681,-5.681,-5.681,-5.681,-5.681,-5.681,-5.681,-5.681,-5.681,-5.681,-5.681,-5.681,-5.681,-5.681,-5.681,-5.681,-5.681,-5.681,-5.681,-5.681,-5.681,-5.681,-5.681,-5.681,-5.681,-5.681,-5.681,-5.681,-5.681,-5.681,-5.681,-5.681,-5.681,-5.6594,-5.6053,-5.6023,-5.5822,-5.5376,-5.5161,-5.4807,-5.4345,-5.3929,-5.3483,-5.3021,-5.2806,-5.2713,0.0,-4.0586,-4.1447,-4.1447,-4.1324,0.0,0.0,0.0,-4.0489,-4.0489,-4.0489,-4.092,-4.2355,-4.2602,-4.3048,-4.4356,0.0,0.0,0.0,0.0,0.0,0.0,0.0,0.0,0.0,0.0,0.0,-5.2713,-5.2713,-5.2713,-5.2713,-5.2713,-5.2898,-5.3329,-5.3745,-5.3929,-5.3929,-5.3929,-5.4053,-5.4299,-5.4299,-5.4699,-5.533,-5.533,-5.5699,-5.6361,-5.6361,-5.6563,0.0,-5.681,-5.681,-5.681,-5.681,-5.681,-5.681,-5.681,-5.681,-5.681,-5.681,-5.681,-5.681,-5.681,-5.681,-5.681,-5.681,-5.681,-5.681,-5.681,-5.681,-5.681,-5.681,-5.681,-5.681,-5.681,-5.681,-5.681,-5.681,-5.681,-5.681,-5.681,-5.681,-5.681,-5.681,-5.681,-5.681,-5.681,-5.681,-5.681,-5.681,-5.681,-5.6702,-5.644,-5.6361,-5.6253,-5.6023,-5.6223,-5.6361,-5.6361,-5.613,-5.5792,-5.5345,-5.533,-5.5145,-5.4698,-5.4437,-5.4145,-5.3729,-5.3468,-5.3129,-5.2713,-5.2713,-5.2713,0.0,0.0,0.0,0.0,0.0,0.0,0.0,0.0,0.0,-4.0489,-4.0489,-4.092,-4.2355,-4.2602,-4.3048,0.0,0.0,0.0,0.0,0.0,0.0,0.0,0.0,0.0,0.0,0.0,0.0,-5.2713,-5.2713,-5.2713,-5.2713,-5.2713,-5.2713,-5.2713,-5.2713,-5.2713,-5.2713,-5.2713,-5.3021,-5.3652,-5.3652,-5.4006,-5.4606,-5.4606,-5.5007,0.0,-5.5622,-5.6023,-5.6733,-5.6733,-5.6763,-5.681,-5.681,-5.681,-5.681,-5.681,-5.681,-5.681,-5.681,-5.681,-5.681,-5.681,-5.681,-5.681,-5.681,-5.681,-5.681,-5.681,-5.681,-5.681,-5.681,-5.681,-5.681,-5.681,-5.681,-5.681,-5.681,-5.681,-5.681,-5.681,-5.681,-5.681,-5.681,-5.681,-5.681,-5.681,-5.6779,-5.6733,-5.6733,-5.6686,-5.6409,-5.5684,-5.5622,-5.5376,-5.4729,-5.5284,-5.5622,-5.5622,-5.5053,-5.4668,-5.4606,-5.4606,-5.4591,-5.4545,-5.3929,-5.3652,-5.3652,-5.3021,-5.2713,-5.2713,-5.2713,-5.2713,-3.6923,0.0,-3.949,-3.949,-3.9982,0.0,0.0,0.0,0.0,0.0,0.0,0.0,0.0,0.0,0.0,0.0,0.0,0.0,0.0,0.0,0.0,0.0,0.0,0.0,0.0,0.0,-5.2713,-5.2713,-5.2713,-5.2713,-5.2713,-5.2713,-5.2713,-5.2713,-5.2713,-5.2713,-5.2713,-5.2713,-5.279,-5.296,-5.296,-5.3314,-5.3914,-5.3914,-5.433,-5.4961,-5.4961,-5.533,-5.5946,-5.5946,-5.6269,-5.681,-5.681,-5.681,-5.681,-5.681,-5.681,-5.681,-5.681,-5.681,-5.681,-5.681,-5.681,-5.681,-5.681,-5.681,-5.681,-5.681,-5.681,-5.681,-5.681,-5.681,-5.681,-5.681,-5.681,-5.681,-5.681,-5.681,-5.681,-5.681,-5.681,-5.681,-5.681,-5.681,-5.681,-5.681,-5.6347,-5.5946,-5.5946,-5.5515,-5.5145,-5.4929,-5.4961,-5.4852,-5.4698,-5.4821,-5.4961,-5.4961,-5.4775,-5.4452,-5.3976,-5.3914,-5.3668,-5.3191,-5.3037,-5.296,-5.2944,-5.279,-5.2713,-5.2713,-5.2713,-5.2713,-3.6492,-3.7738,-3.9046,-3.9046,-3.9767,-4.0489,0.0,0.0,0.0,0.0,0.0,0.0,0.0,0.0,0.0,0.0,0.0,0.0,0.0,0.0,0.0,0.0,0.0,0.0,0.0,0.0,-5.2713,-5.2713,-5.2713,-5.2713,-5.2713,-5.2713,-5.2713,-5.2713,-5.2713,-5.2713,-5.2713,-5.2713,-5.2713,-5.2713,-5.2713,-5.2898,-5.3252,-5.3252,-5.3637,-5.4222,-5.4222,-5.4637,-5.5253,-5.5253,-5.5484,-5.5838,-5.5838,-5.6007,-5.6317,-5.6317,-5.6532,-5.681,-5.681,-5.681,-5.681,-5.681,-5.681,-5.681,-5.681,-5.681,-5.681,-5.681,-5.681,-5.681,-5.681,-5.681,-5.6733,-5.6394,-5.6317,-5.6205,-5.5888,-5.5824,-5.586,-5.5821,-5.5838,-5.5838,-5.5838,-5.5838,-5.5838,-5.5838,-5.5499,-5.5253,-5.5253,-5.4898,-5.456,-5.4252,-5.4222,-5.4145,-5.3791,-5.376,-5.3883,-5.4206,-5.3929,-5.3591,-5.3268,-5.3252,-5.3083,-5.2729,-5.2713,-5.2713,-5.2713,-5.2713,-5.2713,-5.2713,-5.2713,-5.2713,-3.6492,-3.74,-3.8385,-3.8477,-3.9447,-4.0366,0.0,0.0,0.0,0.0,0.0,0.0,0.0,0.0,0.0,0.0,0.0,0.0,0.0,0.0,0.0,0.0,0.0,0.0,0.0,-5.2713,-5.2713,-5.2713,-5.2713,-5.2713,-5.2713,-5.2713,-5.2713,-5.2713,-5.2713,-5.2713,-5.2713,-5.2713,-5.2713,-5.2713,-5.2713,-5.2713,-5.2713,-5.2713,-5.3021,-5.3575,0.0,0.0,-5.4529,-5.4529,-5.4591,-5.4683,-5.4683,-5.5068,-5.5545,-5.5545,-5.593,-5.6502,-5.6502,-5.6502,-5.6502,-5.6502,-5.6502,-5.6502,-5.6502,-5.6502,-5.6502,-5.6502,-5.6563,-5.6625,-5.6532,-5.6502,-5.63,-5.5684,-5.5545,-5.5372,-5.4805,-5.4694,-5.4685,-5.4699,-5.4715,-5.4684,-5.4714,-5.4683,-5.4683,-5.4683,-5.4591,-5.4529,-5.4529,-5.4437,-5.416,-5.353,-5.3469,-5.3238,-5.2624,-5.2624,-5.2869,-5.3392,-5.2976,-5.2713,-5.2713,-5.2713,-5.2713,-5.2713,-5.2713,-5.2713,-5.2713,-5.2713,-5.2713,-5.2713,-5.2713,-5.2713,-3.6492,-3.7061,-3.78,-3.8369,-3.9059,-3.9782,0.0,0.0,0.0,0.0,0.0,0.0,0.0,0.0,0.0,0.0,0.0,0.0,0.0,0.0,0.0,0.0,0.0,0.0,-5.2713,-5.2713,-5.2713,-5.2713,-5.2713,-5.2713,-5.2713,-5.2713,-5.2713,-5.2713,-5.2713,-5.2713,-5.2713,-5.2713,-5.2713,-5.2713,-5.2713,-5.2713,-5.2713,-5.2713,-5.2775,-5.2867,0.0,-5.3252,-5.3822,-5.3822,-5.4176,-5.4683,-5.4683,-5.4745,-5.4837,-5.4837,-5.4945,-5.5037,-5.5037,-5.5037,-5.5037,-5.5037,-5.5037,-5.5037,-5.5037,-5.5037,-5.5037,-5.5037,-5.5438,-5.573,-5.5176,-5.5037,-5.5007,-5.4852,-5.4837,-5.4821,-5.4712,-5.4697,-5.4699,-5.468,-5.4722,-5.4726,-5.4699,-5.4683,-5.4683,-5.4683,-5.4191,-5.3822,-5.3822,-5.3375,-5.2885,-5.2565,-5.2505,-5.2383,-5.2139,-5.2276,-5.2322,-5.2276,-5.2549,-5.2713,-5.2713,-5.2713,-5.2713,-5.2713,-5.2713,-5.2713,-5.2713,-5.2713,-5.2713,-5.2713,-5.2713,-5.2713,-3.6429,-3.6779,-3.729,-3.8273,-3.9016,-3.9659,-4.0336,0.0,0.0,0.0,0.0,0.0,0.0,0.0,0.0,0.0,0.0,0.0,0.0,0.0,0.0,0.0,0.0,-5.2713,-5.2713,-5.2713,-5.2713,-5.2713,-5.2713,-5.2713,-5.2713,-5.2713,-5.2713,-5.2713,-5.2713,-5.2713,-5.2713,-5.2713,-5.2713,-5.2713,-5.2713,-5.2713,-5.2713,-5.2713,-5.2713,-5.2713,0.0,-5.2883,-5.3175,-5.3175,-5.336,-5.3591,-5.3591,-5.3868,-5.4176,-5.4545,-5.4683,-5.4683,-5.4683,-5.4683,-5.4683,-5.4683,-5.4683,-5.4683,-5.4683,-5.4683,-5.4606,-5.4237,-5.4653,-5.5099,-5.476,-5.4683,-5.4591,-5.4237,-5.4145,-5.4037,-5.3729,-5.3591,-5.3575,-5.3435,-5.339,-5.3346,-5.3254,-5.3223,-5.3223,-5.3223,-5.2963,-5.2765,-5.2765,-5.2505,-5.2246,-5.2155,-5.2155,-5.2109,-5.2002,-5.2063,-5.22,-5.2352,-5.2427,-5.2563,-5.2713,-5.2713,-5.2713,-5.2713,-5.2713,-5.2713,-5.2713,-5.2713,-5.2713,-5.2713,-5.2713,-5.2713,-3.6195,-3.6508,-3.6998,-3.8207,0.0,-3.9705,-4.0551,0.0,0.0,0.0,0.0,0.0,0.0,0.0,0.0,0.0,0.0,0.0,0.0,0.0,-5.1959,-5.2637,-5.2713,-5.2713,-5.2713,-5.2713,-5.2713,-5.2713,-5.2713,-5.2713,-5.2713,-5.2713,-5.2713,-5.2713,-5.2713,-5.2713,-5.2713,-5.2713,-5.2713,-5.2713,-5.2713,-5.2713,-5.2713,-5.2713,-5.2713,-5.2713,-5.2713,-5.2713,-5.2713,-5.2713,-5.2713,-5.2713,-5.2713,-5.3021,-5.3545,-5.4022,-5.4206,-5.4206,-5.4206,-5.4206,-5.4206,-5.4206,-5.4206,-5.416,-5.416,-5.4114,-5.396,-5.3454,-5.3668,-5.4067,-5.4114,-5.4114,-5.3944,-5.3423,-5.33,-5.3147,-5.2654,-5.2562,-5.2473,-5.2292,-5.2231,-5.2185,-5.2017,-5.2002,-5.2002,-5.2002,-5.2002,-5.2002,-5.2002,-5.2002,-5.1987,-5.1895,-5.1895,-5.1895,-5.1895,-5.1895,-5.2078,-5.2533,-5.2412,-5.2412,-5.2713,-5.2713,-5.2713,-5.2713,-5.2713,-5.2713,-5.2713,-5.2713,-5.2713,-5.2713,-5.2713,-5.2713,-3.5752,-3.6202,-3.6998,-3.8207,-3.9016,0.0,-4.1217,-4.1555,0.0,0.0,0.0,0.0,0.0,0.0,0.0,0.0,0.0,0.0,0.0,0.0,-5.1959,-5.2637,-5.2713,-5.2713,-5.2713,-5.2713,-5.2713,-5.2713,-5.2713,-5.2713,-5.2713,-5.2713,-5.2713,-5.2713,-5.2713,-5.2713,-5.2713,-5.2713,-5.2713,-5.2713,-5.2713,-5.2713,-5.2713,-5.2713,-5.2713,-5.2713,-5.2713,-5.2713,-5.2713,-5.2713,-5.2713,-5.2713,-5.2713,-5.2744,-5.279,-5.2837,-5.2852,-5.2852,-5.2852,-5.2852,-5.2852,-5.2852,-5.2701,-5.2444,-5.2444,-5.2337,-5.2169,-5.2124,-5.2154,-5.223,-5.2414,-5.2337,-5.2169,-5.2124,-5.2109,-5.2124,-5.2061,-5.2047,-5.2018,-5.2033,-5.2032,-5.2016,-5.2017,-5.2002,-5.2002,-5.2002,-5.2002,-5.2002,-5.2002,-5.2002,-5.1895,-5.168,-5.1634,-5.1634,-5.1634,-5.1634,-5.1741,-5.2033,-5.2231,-5.2412,-5.2713,-5.2713,-5.2713,-5.2713,-5.2713,-5.2713,-5.2713,-5.2713,-5.2713,-5.2713,-5.2713,-5.2713,-3.5219,-3.596,-3.6958,-3.7804,0.0,0.0,0.0,0.0,0.0,0.0,0.0,0.0,0.0,0.0,0.0,0.0,0.0,0.0,0.0,-5.1636,-5.2421,-5.2683,-5.2713,-5.2713,-5.2713,-5.2713,-5.2713,-5.2713,-5.2713,-5.2713,-5.2713,-5.2713,-5.2473,-5.2048,-5.2002,-5.1757,-5.1263,-5.1757,-5.2002,-5.2002,-5.2473,-5.2713,-5.2713,-5.2713,-5.2713,-5.2713,-5.2713,-5.2713,-5.2713,-5.2713,-5.2713,-5.2713,-5.2713,-5.2713,-5.2713,-5.2713,-5.2713,-5.2713,-5.2713,-5.2608,-5.2457,-5.2669,-5.2427,-5.2155,-5.2261,-5.2139,-5.2002,-5.2002,-5.1895,-5.1834,-5.2063,-5.2078,-5.2002,-5.2002,-5.2002,-5.1987,-5.2002,-5.1987,-5.1971,-5.1757,-5.1739,-5.1721,-5.1524,-5.1509,-5.1509,-5.1509,-5.1509,-5.1509,-5.1509,-5.1509,-5.1463,-5.1354,-5.1354,-5.1401,-5.1587,-5.1587,-5.1772,-5.2139,-5.2261,-5.2352,-5.2457,-5.2608,-5.2713,-5.2713,-5.2713,-5.2713,-5.2713,-5.2713,-5.2713,-5.2713,-5.2713,-5.2713,-3.4843,-3.5717,-3.6772,0.0,0.0,0.0,0.0,0.0,0.0,0.0,0.0,0.0,0.0,0.0,0.0,0.0,0.0,0.0,0.0,-5.1852,-5.2713,-5.2713,-5.2473,-5.2427,-5.2669,-5.2473,-5.2337,-5.2337,-5.2337,-5.2337,-5.2337,-5.2337,-5.2246,-5.1956,-5.1956,-5.1572,-5.0793,-5.1324,-5.1479,-5.1231,-5.1757,-5.2231,-5.2713,-5.2713,-5.2713,-5.2713,-5.2713,-5.2713,-5.2713,-5.2713,-5.2669,-5.2563,-5.2563,-5.2563,-5.2563,-5.2669,-5.2669,-5.2563,-5.2563,-5.2412,-5.2231,-5.2427,-5.2216,-5.188,-5.2033,-5.191,-5.1756,-5.1756,-5.1602,-5.1494,-5.1695,-5.1756,-5.1756,-5.1756,-5.1756,-5.1741,-5.1758,-5.1756,-5.1678,-5.1526,-5.1476,-5.1443,-5.1229,-5.1214,-5.1214,-5.1214,-5.1214,-5.1214,-5.1214,-5.1214,-5.1214,-5.1214,-5.1214,-5.1308,-5.1587,-5.168,-5.1864,-5.217,-5.2367,-5.2457,-5.2457,-5.2608,-5.2713,-5.2713,-5.2713,-5.2713,-5.2713,-5.2713,-5.2713,-5.2713,-5.2713,-5.2713,-3.4758,-3.5443,0.0,0.0,0.0,0.0,0.0,0.0,0.0,0.0,0.0,0.0,0.0,0.0,0.0,-4.8455,-4.9789,-5.0697,-5.0697,-5.1852,-5.2713,-5.2713,-5.2048,-5.1864,-5.2608,-5.2002,-5.1587,-5.1587,-5.1587,-5.1587,-5.1587,-5.1587,-5.191,-5.2653,-5.2669,-5.2291,-5.1572,-5.1572,-5.1184,-5.0397,-5.0397,-5.1216,-5.2669,-5.2669,-5.2713,-5.2713,-5.2713,-5.2713,-5.2713,-5.2713,-5.2563,-5.2306,-5.2306,-5.2306,-5.2352,-5.2608,-5.2518,-5.2306,-5.2306,-5.2185,-5.2002,-5.2002,-5.1834,-5.1587,-5.1587,-5.1401,-5.1214,-5.1214,-5.1214,-5.1214,-5.1214,-5.1214,-5.1214,-5.1214,-5.1214,-5.1214,-5.1214,-5.1214,-5.1214,-5.1214,-5.1214,-5.1214,-5.1214,-5.1214,-5.1214,-5.1214,-5.1214,-5.1214,-5.1214,-5.1214,-5.1214,-5.1214,-5.1214,-5.1308,-5.1587,-5.1834,-5.2002,-5.2002,-5.2443,-5.2713,-5.2713,-5.2713,-5.2713,-5.2713,-5.2713,-5.2713,-5.2713,-5.2713,-5.2713,-5.2713,-5.2713,-5.2713,-3.4333,-3.5458,0.0,0.0,0.0,0.0,0.0,0.0,0.0,0.0,0.0,0.0,0.0,0.0,0.0,-4.7931,-4.9475,-5.0509,-4.9982,-5.1061,-5.2109,-5.2624,-5.1557,-5.0919,-5.1264,-5.0653,-5.0176,-5.0176,-5.0176,-5.0383,-5.0745,-5.0383,-5.0239,-5.0316,-4.9887,-4.9499,-4.9128,-4.9703,-5.0124,-5.0397,-5.0397,-5.0636,-5.1122,-5.1665,-5.191,-5.1956,-5.2473,-5.2713,-5.2713,-5.2503,-5.2352,-5.2306,-5.2139,-5.2063,-5.2109,-5.217,-5.217,-5.2063,-5.2063,-5.1926,-5.1741,-5.1941,-5.1695,-5.1354,-5.1541,-5.1401,-5.1214,-5.1214,-5.1214,-5.1214,-5.1214,-5.1214,-5.1214,-5.1214,-5.1214,-5.1214,-5.1214,-5.1214,-5.1214,-5.1214,-5.1214,-5.1214,-5.1214,-5.1214,-5.1214,-5.1214,-5.1214,-5.1214,-5.1214,-5.1214,-5.1214,-5.1214,-5.1214,-5.1354,-5.1834,-5.1941,-5.2124,-5.2488,-5.2624,-5.2608,-5.2457,-5.2608,-5.2713,-5.2713,-5.2713,-5.2713,-5.2713,-5.2713,-5.2713,-5.2713,-5.2713,-5.2713,-3.4384,0.0,0.0,0.0,0.0,0.0,0.0,0.0,0.0,0.0,0.0,0.0,0.0,0.0,0.0,-4.7219,-4.8424,-4.9355,-4.9209,-5.0076,-5.1024,-5.1712,-5.0698,-5.0047,-5.0228,-4.9553,-4.9028,-4.883,-4.8781,-4.8944,-4.9254,-4.8993,-4.8894,-4.9042,-4.8717,-4.8346,-4.7925,-4.8402,-4.8688,-4.8809,-4.8809,-4.8809,-4.8859,-5.0445,-5.1479,-5.2048,-5.2367,-5.2563,-5.2503,-5.217,-5.2033,-5.1987,-5.188,-5.1834,-5.1834,-5.1941,-5.1941,-5.1834,-5.1834,-5.1695,-5.1448,-5.1649,-5.1463,-5.1214,-5.1401,-5.1308,-5.1214,-5.1214,-5.1214,-5.1214,-5.1214,-5.1214,-5.1214,-5.1214,-5.1214,-5.1214,-5.1214,-5.1214,-5.1214,-5.1214,-5.1214,-5.1214,-5.1214,-5.1214,-5.1214,-5.1214,-5.1214,-5.1214,-5.1214,-5.1214,-5.1214,-5.1354,-5.1354,-5.1541,-5.2063,-5.2109,-5.2291,-5.2669,-5.2713,-5.2608,-5.2457,-5.2608,-5.2713,-5.2713,-5.2713,-5.2713,-5.2713,-5.2713,-5.2713,-5.2713,-5.2713,-5.2713,0.0,0.0,0.0,0.0,0.0,0.0,0.0,0.0,0.0,0.0,0.0,0.0,0.0,0.0,-4.6403,-4.6359,-4.6933,-4.7625,-4.8106,-4.8799,-4.9463,-5.0099,-4.9465,-4.9011,-4.9247,-4.851,-4.7825,-4.7295,-4.7299,-4.7378,-4.7429,-4.7434,-4.7726,-4.8461,-4.8447,-4.8139,-4.7513,-4.7513,-4.7167,-4.6519,-4.6428,-4.6467,-4.6714,-4.9042,-5.1014,-5.2457,-5.2306,-5.2261,-5.2261,-5.1803,-5.1587,-5.1587,-5.1572,-5.1587,-5.1587,-5.1849,-5.1787,-5.1587,-5.1587,-5.1401,-5.1214,-5.1214,-5.1214,-5.1214,-5.1214,-5.1214,-5.1214,-5.1214,-5.1214,-5.1214,-5.1214,-5.1214,-5.1214,-5.1214,-5.1214,-5.1214,-5.1214,-5.1214,-5.1214,-5.1214,-5.1214,-5.1214,-5.1214,-5.1214,-5.1214,-5.1214,-5.1214,-5.1214,-5.1214,-5.1214,-5.1308,-5.1541,-5.1587,-5.1757,-5.2215,-5.2306,-5.2397,-5.2669,-5.2669,-5.2669,-5.2713,-5.2713,-5.2713,-5.2713,-5.2713,-5.2713,-5.2713,-5.2713,-5.2713,-5.2713,-5.2713,-5.2713,0.0,0.0,0.0,0.0,0.0,0.0,0.0,0.0,0.0,0.0,0.0,0.0,0.0,0.0,-4.5779,-4.519,-4.6133,-4.6628,-4.5775,-4.6581,-4.7515,-4.8275,-4.7173,-4.6406,-4.6581,-4.5904,-4.5243,-4.4724,-4.509,-4.554,-4.6018,-4.6,-4.6296,-4.6895,-4.6492,-4.6387,-4.6676,-4.6676,-4.687,-4.7308,-4.6714,-4.7036,-4.8225,-4.8181,-4.9176,-5.0875,-5.1711,-5.2063,-5.2033,-5.1726,-5.1587,-5.1587,-5.1354,-5.1308,-5.1308,-5.1369,-5.1369,-5.1308,-5.1308,-5.1261,-5.1214,-5.1214,-5.1214,-5.1214,-5.1214,-5.1214,-5.1214,-5.1214,-5.1214,-5.1214,-5.1214,-5.1214,-5.1214,-5.1214,-5.1214,-5.1214,-5.1214,-5.1214,-5.1214,-5.1214,-5.1214,-5.1214,-5.1214,-5.1214,-5.1214,-5.1214,-5.1214,-5.1214,-5.1214,-5.1214,-5.1214,-5.1261,-5.1494,-5.1726,-5.2033,-5.2231,-5.2397,-5.2669,-5.2503,-5.2457,-5.2713,-5.2713,-5.2713,-5.2713,-5.2713,-5.2713,-5.2713,-5.2713,-5.2713,-5.2713,-5.2713,-5.2713,0.0,0.0,0.0,0.0,0.0,0.0,0.0,0.0,0.0,0.0,0.0,0.0,0.0,-4.4559,-4.4294,-4.3885,-4.4466,-4.4822,-4.4408,-4.4858,-4.5504,-4.6236,-4.5621,-4.5039,-4.4911,-4.4523,-4.4042,-4.349,-4.3754,-4.4017,-4.4342,-4.4387,-4.4494,-4.4743,-4.4494,-4.4494,-4.4743,-4.4743,-4.499,-4.5378,-4.5272,-4.5789,-4.6813,-4.7698,-4.8468,-4.9077,-5.043,-5.1043,-5.1043,-5.1293,-5.1401,-5.1401,-5.1261,-5.1214,-5.1214,-5.1214,-5.1214,-5.1214,-5.1214,-5.1214,-5.1214,-5.1214,-5.1214,-5.1214,-5.1214,-5.1214,-5.1214,-5.1214,-5.1214,-5.1214,-5.1214,-5.1214,-5.1214,-5.1214,-5.1214,-5.1214,-5.1214,-5.1214,-5.1214,-5.1214,-5.1214,-5.1214,-5.1214,-5.1214,-5.1214,-5.1214,-5.1214,-5.1214,-5.1214,-5.1214,-5.1261,-5.1354,-5.1541,-5.1726,-5.1987,-5.2109,-5.22,-5.2352,-5.2246,-5.22,-5.2352,-5.2352,-5.2488,-5.2713,-5.2713,-5.2713,-5.2713,-5.2713,-5.2713,-5.2713,-5.2713,-5.2713,0.0,0.0,0.0,0.0,0.0,0.0,0.0,0.0,0.0,0.0,0.0,0.0,0.0,-4.2757,-4.279,-4.279,-4.279,-4.2904,-4.3305,-4.3472,-4.3697,-4.4184,-4.4238,-4.4101,-4.3659,-4.3608,-4.334,-4.2722,-4.2814,-4.2879,-4.2879,-4.2971,-4.3023,-4.3023,-4.3023,-4.3023,-4.3023,-4.3023,-4.3023,-4.3036,-4.3506,-4.3977,-4.4475,-4.6702,-4.7589,-4.7462,-4.8993,-4.963,-4.9727,-5.0555,-5.0807,-5.0665,-5.1073,-5.1073,-5.0964,-5.112,-5.1214,-5.1214,-5.1214,-5.1214,-5.1214,-5.1214,-5.1214,-5.1214,-5.1214,-5.1214,-5.1214,-5.1214,-5.1214,-5.1214,-5.1214,-5.1214,-5.1214,-5.1214,-5.1214,-5.1214,-5.1214,-5.1214,-5.1214,-5.1214,-5.1214,-5.1214,-5.1214,-5.1214,-5.1214,-5.1214,-5.1214,-5.1214,-5.1214,-5.1214,-5.1261,-5.1494,-5.1572,-5.168,-5.1895,-5.1987,-5.2002,-5.2002,-5.1941,-5.1941,-5.2002,-5.1941,-5.2124,-5.2578,-5.2608,-5.2608,-5.2608,-5.2669,-5.2713,-5.2713,-5.2713,-5.2713,0.0,0.0,0.0,0.0,0.0,0.0,0.0,0.0,0.0,0.0,0.0,0.0,-4.1998,-4.217,-4.2226,-4.2226,-4.2226,-4.2069,-4.1716,-4.2001,-4.2373,-4.2453,-4.2467,-4.2417,-4.2368,-4.2368,-4.212,-4.1596,-4.2004,-4.2329,-4.2329,-4.2748,-4.3023,-4.3023,-4.3023,-4.3023,-4.3023,-4.3023,-4.3023,-4.3023,-4.3101,-4.318,-4.3245,-4.3584,-4.4791,-4.6635,-4.7777,-4.8282,-4.8332,-4.9415,-4.9254,-4.8631,-5.046,-5.0618,-4.9917,-5.087,-5.1214,-5.1214,-5.1214,-5.1214,-5.1214,-5.1214,-5.1214,-5.1214,-5.1214,-5.1214,-5.1214,-5.1214,-5.1214,-5.1214,-5.1214,-5.1214,-5.1214,-5.1214,-5.1214,-5.1214,-5.1214,-5.1214,-5.1214,-5.1214,-5.1214,-5.1214,-5.1214,-5.1214,-5.1214,-5.1214,-5.1214,-5.1214,-5.1214,-5.1214,-5.1214,-5.1261,-5.1448,-5.1634,-5.1634,-5.1895,-5.2002,-5.2002,-5.1787,-5.1741,-5.2002,-5.1787,-5.1787,-5.2094,-5.2276,-5.2352,-5.2352,-5.2608,-5.2713,-5.2713,-5.2713,-5.2713,0.0,0.0,0.0,0.0,0.0,0.0,0.0,0.0,0.0,0.0,0.0,0.0,-4.0917,-4.1108,-4.1251,-4.1594,-4.1647,-4.1547,-4.1311,-4.1511,-4.1647,-4.1647,-4.1647,-4.1647,-4.1647,-4.1647,-4.1547,-4.1311,-4.1546,-4.169,-4.169,-4.1925,-4.2069,-4.2069,-4.2069,-4.2069,-4.2069,-4.2069,-4.2226,-4.2539,-4.2539,-4.2709,-4.3023,-4.3023,-4.3717,-4.5062,-4.6117,-4.7114,-4.808,-4.9155,-4.9659,-4.9902,-5.0807,-5.0917,-5.057,-5.1026,-5.1214,-5.1214,-5.1214,-5.1214,-5.112,-5.0522,-5.0316,-5.0316,-5.0316,-5.0316,-5.0427,-5.1026,-5.1214,-5.1214,-5.1214,-5.1214,-5.1214,-5.1214,-5.1214,-5.1214,-5.1214,-5.1214,-5.1214,-5.1214,-5.1214,-5.1214,-5.1214,-5.1214,-5.1214,-5.1214,-5.1214,-5.1214,-5.1214,-5.1214,-5.1214,-5.1214,-5.1308,-5.1354,-5.1354,-5.1494,-5.1556,-5.1556,-5.1448,-5.1401,-5.1556,-5.1463,-5.1494,-5.1787,-5.2124,-5.2306,-5.2306,-5.2563,-5.2713,-5.2713,-5.2713,-5.2713,0.0,0.0,0.0,0.0,0.0,0.0,0.0,0.0,0.0,0.0,0.0,0.0,-3.9795,-4.0213,-4.0618,-4.1219,-4.1311,-4.1311,-4.1311,-4.1311,-4.1311,-4.1311,-4.1311,-4.1311,-4.1311,-4.1311,-4.1311,-4.1311,-4.1311,-4.1311,-4.1311,-4.1311,-4.1311,-4.1311,-4.1311,-4.1311,-4.1311,-4.1311,-4.1533,-4.1951,-4.1951,-4.2173,-4.2592,-4.2592,-4.2905,-4.3507,-4.4608,-4.5774,-4.7045,-4.8275,-4.9106,-4.9645,-5.046,-5.0618,-5.046,-5.1011,-5.1214,-5.1214,-5.1214,-5.1214,-5.1073,-5.0268,-5.0028,-5.0028,-5.0028,-5.0028,-5.0172,-5.0964,-5.1214,-5.1214,-5.1214,-5.1214,-5.1214,-5.1214,-5.1214,-5.1214,-5.1214,-5.1214,-5.1214,-5.1214,-5.1214,-5.1214,-5.1214,-5.1214,-5.1214,-5.1214,-5.1214,-5.1214,-5.1214,-5.1214,-5.1214,-5.1214,-5.1214,-5.1214,-5.1214,-5.1214,-5.1214,-5.1214,-5.1214,-5.1214,-5.1214,-5.1214,-5.1308,-5.1587,-5.1987,-5.2261,-5.2306,-5.2563,-5.2713,-5.2713,-5.2713,-5.2713,0.0,0.0,0.0,0.0,0.0,0.0,0.0,0.0,0.0,0.0,0.0,0.0,-3.8697,-3.969,-4.0618,-4.1219,-4.1311,-4.1311,-4.1311,-4.1311,-4.1311,-4.1311,-4.1311,-4.1311,-4.1311,-4.1311,-4.1311,-4.1311,-4.1311,-4.1311,-4.1311,-4.1311,-4.1311,-4.1311,-4.1311,-4.1311,-4.1311,-4.1311,-4.1337,-4.1363,-4.1363,-4.1376,-4.1402,-4.1402,-4.1716,-4.2368,-4.3507,-4.4045,-4.4269,-4.5882,-4.5953,-4.5342,-4.8446,-4.9042,-4.8432,-5.046,-5.1214,-5.1214,-5.1214,-5.1214,-5.1167,-5.112,-5.112,-5.112,-5.112,-5.112,-5.112,-5.1167,-5.1214,-5.1214,-5.1214,-5.1214,-5.1214,-5.1214,-5.1214,-5.1214,-5.1214,-5.1214,-5.1214,-5.1214,-5.1214,-5.1214,-5.1214,-5.1214,-5.1214,-5.1214,-5.1214,-5.1214,-5.1214,-5.1214,-5.1214,-5.1214,-5.1214,-5.1214,-5.1214,-5.1214,-5.1214,-5.1214,-5.1214,-5.1214,-5.1214,-5.1214,-5.1308,-5.1587,-5.188,-5.2109,-5.2306,-5.2563,-5.2713,-5.2713,-5.2713,-5.2713,0.0,0.0,0.0,0.0,0.0,0.0,0.0,0.0,0.0,0.0,0.0,0.0,-3.8606,-3.9037,-3.9638,-4.0592,-4.0736,-4.088,-4.1259,-4.1311,-4.1311,-4.1311,-4.1311,-4.1311,-4.1311,-4.1311,-4.1311,-4.1311,-4.1311,-4.1311,-4.1311,-4.1311,-4.1311,-4.1311,-4.1311,-4.1311,-4.1311,-4.1311,-4.1311,-4.1311,-4.1311,-4.1311,-4.1311,-4.1311,-4.1428,-4.1664,-4.2435,-4.3372,-4.4412,-4.5023,-4.5629,-4.6342,-4.7539,-4.7992,-4.8066,-4.888,-4.9141,-4.9141,-4.9141,-4.9141,-4.9042,-4.8332,-4.8145,-4.8145,-4.8145,-4.8145,-4.8239,-4.8951,-4.9124,-4.9151,-4.9151,-4.9155,-4.9154,-4.9144,-4.9652,-4.9965,-4.9288,-5.0254,-5.1214,-5.1214,-5.1214,-5.1214,-5.1214,-5.1214,-5.1214,-5.1214,-5.1214,-5.1214,-5.1214,-5.1214,-5.1214,-5.1214,-5.1214,-5.1214,-5.1214,-5.1214,-5.1214,-5.1214,-5.1214,-5.1214,-5.1214,-5.1214,-5.1308,-5.1587,-5.168,-5.191,-5.2306,-5.2563,-5.2713,-5.2713,-5.2713,-5.2713,0.0,0.0,0.0,0.0,0.0,0.0,0.0,0.0,0.0,0.0,0.0,0.0,-3.8331,-3.8436,-3.8815,-3.9965,-4.0148,-4.0278,-4.0684,-4.0736,-4.0736,-4.0736,-4.0736,-4.0736,-4.0736,-4.0736,-4.0814,-4.0997,-4.101,0.0,-4.1311,-4.1311,-4.1311,-4.1311,-4.1311,-4.1311,-4.1311,-4.1311,-4.1311,-4.1311,-4.1311,-4.1311,-4.1311,-4.1311,-4.1311,-4.1337,-4.1716,-4.2631,-4.3795,-4.3996,-4.4712,-4.5811,-4.6496,-4.6797,-4.6974,-4.7886,-4.802,-4.7749,-4.7959,-4.803,-4.7864,-4.7177,-4.6933,-4.6933,-4.6933,-4.6933,-4.7108,-4.7779,-4.8001,-4.7981,-4.7985,-4.7993,-4.7974,-4.7975,-4.8528,-4.8844,-4.8131,-4.9401,-5.057,-5.0206,-5.0412,-5.0665,-5.0665,-5.0665,-5.0775,-5.1167,-5.1214,-5.1214,-5.1214,-5.1214,-5.1214,-5.1214,-5.1214,-5.1214,-5.1214,-5.1214,-5.1214,-5.1214,-5.1214,-5.1214,-5.1214,-5.1214,-5.1308,-5.1587,-5.1587,-5.1818,-5.2185,-5.2382,-5.2488,-5.2488,-5.2488,-5.2488,0.0,0.0,0.0,0.0,0.0,0.0,0.0,0.0,0.0,0.0,0.0,0.0,-3.7769,-3.79,-3.8266,-3.9377,-3.9573,-3.9586,-3.9612,-3.9612,-3.9612,-3.9612,-3.9612,-3.9612,-3.9612,-3.9612,-3.9834,-4.0357,-4.0396,-4.0644,-4.1232,-4.1272,-4.1285,-4.1285,-4.1311,-4.1311,-4.1311,-4.1311,-4.1311,-4.1311,-4.1311,-4.1311,-4.1311,-4.1311,-4.1311,-4.1311,-4.1311,-4.1625,-4.2238,-4.2748,-4.2984,-4.3192,-4.5192,-4.539,-4.4875,-4.7484,-4.7809,-4.7073,-4.7676,-4.7901,-4.7901,-4.7915,-4.7915,-4.7915,-4.7929,-4.7915,-4.7895,-4.7957,-4.7913,-4.7877,-4.7884,-4.7957,-4.7946,-4.7909,-4.7954,-4.7929,-4.7915,-4.8745,-4.9219,-4.8181,-4.8844,-4.9562,-4.9562,-4.9562,-4.9917,-5.0964,-5.112,-5.112,-5.1167,-5.112,-5.112,-5.1167,-5.1167,-5.1167,-5.1214,-5.1214,-5.1214,-5.1214,-5.1167,-5.1167,-5.1167,-5.112,-5.1261,-5.1541,-5.1526,-5.168,-5.1941,-5.1941,-5.1941,-5.1941,-5.1941,-5.1895,-3.0986,0.0,0.0,0.0,0.0,0.0,0.0,0.0,0.0,0.0,0.0,0.0,-3.722,-3.7612,-3.8004,-3.8331,-3.871,-3.9115,-3.9547,-3.9612,-3.9612,-3.9612,-3.9612,-3.9612,-3.9612,-3.9612,-3.9677,0.0,-3.9834,-3.9899,-4.0069,-4.0448,-4.0671,-4.0671,-4.1089,-4.1311,-4.1311,-4.1311,-4.1311,-4.1311,-4.1311,-4.1311,-4.1311,-4.1311,-4.1311,-4.1311,-4.1311,-4.1402,-4.1559,-4.1729,-4.203,-4.2498,-4.3019,-4.3336,-4.3515,-4.4278,-4.4383,-4.422,-4.4807,-4.5008,-4.5088,-4.5502,-4.5582,-4.5741,-4.6569,-4.6269,-4.5755,-4.6621,-4.6235,-4.5621,-4.5642,-4.6196,-4.6651,-4.5795,-4.6231,-4.6621,-4.5794,-4.6465,-4.7434,-4.7929,-4.8231,-4.8432,-4.8432,-4.8432,-4.8795,-4.9868,-4.9401,-4.9141,-4.9917,-4.9352,-4.919,-4.9965,-5.0013,-5.0379,-5.112,-5.1214,-5.1214,-5.1214,-5.046,-5.0013,-5.0013,-4.9303,-4.9303,-5.0158,-5.0158,-5.0206,-5.0254,-5.0621,-5.0748,-5.0748,-4.9974,-4.9621,-3.0986,0.0,0.0,0.0,0.0,0.0,-3.4332,-3.4672,-3.4999,0.0,-3.5822,0.0,-3.6593,-3.7116,-3.7521,-3.7521,-3.8004,-3.8501,-3.8841,-3.8893,-3.8893,-3.8893,-3.8893,-3.8893,-3.8893,-3.8893,-3.8985,-3.922,-3.9233,-3.9337,-3.9599,-3.9913,-4.0082,-4.0082,-4.0422,-4.071,-4.0932,-4.0932,-4.1063,-4.1311,-4.1311,-4.1311,-4.1311,-4.1311,-4.1311,-4.1311,-4.1311,-4.1311,-4.1311,-4.1311,-4.152,-4.1858,-4.2285,-4.2396,-4.2382,-4.3014,-4.3004,-4.2748,-4.3323,-4.352,-4.3611,-4.4186,-4.4369,-4.4516,-4.5422,-4.5248,-4.4841,-4.5523,-4.5229,-4.4668,-4.4668,-4.5161,-4.5536,-4.4855,-4.5194,-4.5502,-4.483,-4.5248,-4.5861,-4.6503,-4.7009,-4.7471,-4.7915,-4.803,-4.8532,-5.0061,-4.9757,-4.9547,-5.0172,-4.9708,-4.9596,-5.022,-5.0268,-5.0522,-5.1167,-5.1214,-5.1214,-5.1214,-5.0618,-5.0268,-5.0268,-4.9659,-4.9645,-5.0268,-5.0268,-5.0061,-4.9625,-5.0335,-5.0683,-5.0668,-4.9698,-4.9182,-3.1169,-3.1914,-3.2712,0.0,-3.3548,0.0,-3.4384,-3.4397,-3.4554,-3.509,-3.5247,0.0,-3.5926,-3.6502,-3.6907,-3.6907,-3.7351,-3.7756,-3.7887,-3.79,-3.79,-3.79,-3.79,-3.79,-3.79,-3.79,-3.8109,-3.8593,-3.8619,-3.8854,-3.939,-3.9481,-3.9507,-3.9507,-3.9573,-3.9847,-4.0318,-4.0331,-4.0618,-4.1219,-4.1219,-4.1259,-4.1311,-4.1311,-4.1311,-4.1311,-4.1311,-4.1311,-4.1311,-4.1311,-4.1311,-4.1411,-4.2284,-4.2101,-4.1476,-4.29,-4.2851,-4.2198,-4.2722,-4.2931,-4.3023,-4.3598,-4.3781,-4.3926,-4.453,-4.4632,-4.4643,-4.4655,-4.4668,-4.4668,-4.4668,-4.4668,-4.4668,-4.4668,-4.4668,-4.4668,-4.4668,-4.4668,-4.4668,-4.4668,-4.5502,-4.6517,-4.7471,-4.7624,-4.8332,-5.0364,-5.0555,-5.0508,-5.0665,-5.057,-5.0508,-5.0665,-5.0665,-5.0713,-5.0807,-5.0855,-5.0855,-5.0855,-5.0713,-5.0665,-5.0665,-5.057,-5.0603,-5.0855,-5.0855,-5.0364,-4.9415,-5.0522,-5.0964,-5.0807,-5.0095,-4.9596,0.0,0.0,0.0,0.0,-3.3587,0.0,-3.4293,-3.4397,-3.4437,0.0,-3.4959,0.0,0.0,-3.5913,-3.6279,-3.6279,-3.6371,-3.6789,-3.7769,-3.79,-3.79,-3.79,-3.79,-3.79,-3.79,-3.79,-3.7952,-3.8057,-3.807,-3.8109,-3.8227,-3.8645,-3.8893,-3.8893,-3.9364,-3.9664,-3.9769,-3.9769,-4.0043,-4.0592,-4.0592,-4.084,-4.1311,-4.1311,-4.1311,-4.1311,-4.1311,-4.1311,-4.1311,-4.1311,-4.1311,-4.1311,-4.1498,-4.1448,-4.1324,-4.1629,-4.1618,-4.1559,-4.2134,-4.2343,-4.2422,-4.2997,-4.3193,-4.335,-4.4334,-4.4359,-4.4134,-4.4604,-4.4668,-4.4668,-4.4668,-4.4668,-4.4668,-4.4668,-4.4668,-4.4668,-4.4668,-4.4668,-4.4668,-4.4668,-4.4884,-4.5087,-4.5288,-4.5342,-4.5794,-4.7139,-4.6569,-4.6308,-4.7229,-4.6517,-4.6308,-4.7229,-4.7331,-4.7689,-4.8532,-4.8631,-4.8631,-4.8631,-4.7827,-4.7331,-4.7331,-4.6465,-4.6816,-4.8582,-4.8631,-4.8532,-4.8332,-4.9415,-4.945,-4.8631,-4.8482,-4.7878,0.0,0.0,0.0,-3.3522,-3.3796,0.0,0.0,-3.4397,-3.4397,-3.4397,-3.4633,-3.4842,-3.4842,0.0,-3.5704,-3.5704,-3.5926,-3.6305,-3.692,-3.726,-3.7573,-3.7861,-3.79,-3.79,-3.79,-3.79,-3.79,-3.79,-3.79,-3.79,-3.79,-3.8161,-3.8305,-3.8305,-3.8606,-3.8893,-3.9155,-3.9155,-3.9455,-4.0017,-4.0017,-4.0305,-4.0867,-4.0867,-4.1036,-4.1311,-4.1311,-4.1311,-4.1311,-4.1311,-4.1311,-4.1311,-4.1311,-4.1311,-4.1311,-4.1311,-4.1311,-4.135,-4.1651,-4.1742,-4.1847,-4.2409,-4.2592,-4.2747,-4.3563,-4.3612,-4.3575,-4.4165,-4.4281,-4.4362,-4.4642,-4.4668,-4.4668,-4.4668,-4.4668,-4.4668,-4.4668,-4.4668,-4.4668,-4.4668,-4.4668,-4.4884,-4.5449,-4.5555,-4.5914,-4.7023,-4.6712,-4.6556,-4.7126,-4.6712,-4.6556,-4.7126,-4.7177,-4.7434,-4.7979,-4.803,-4.803,-4.803,-4.7485,-4.7177,-4.7177,-4.666,-4.6867,-4.7979,-4.803,-4.803,-4.803,-4.8546,-4.8532,-4.7979,-4.7471,-4.6919,0.0,0.0,0.0,0.0,0.0,-3.4397,0.0,0.0,0.0,0.0,0.0,0.0,0.0,0.0,0.0,0.0,0.0,0.0,0.0,-3.6371,0.0,-3.7482,-3.7547,-3.7599,-3.7717,-3.7835,-3.79,-3.79,-3.79,-3.79,-3.79,-3.79,-3.79,-3.79,-3.79,-3.8109,-3.8553,-3.8553,-3.8854,-3.9442,-3.9442,-3.973,-4.0265,-4.0265,-4.0592,-4.1141,-4.1141,-4.1206,-4.1311,-4.1311,-4.1311,-4.1311,-4.1311,-4.1311,-4.1311,-4.1311,-4.1311,-4.1311,-4.1311,-4.1311,-4.1389,-4.186,-4.2004,-4.2121,-4.2657,-4.2825,-4.2958,-4.3555,-4.3745,-4.3843,-4.4263,-4.446,-4.4539,-4.4565,-4.4589,-4.4668,-4.4668,-4.4668,-4.4668,-4.4668,-4.4668,-4.4979,-4.5914,-4.6072,-4.6374,-4.7215,-4.7355,-4.7355,-4.7355,-4.7355,-4.7355,-4.7355,-4.7355,-4.7355,-4.7355,-4.7355,-4.7355,-4.7355,-4.7355,-4.7355,-4.7355,-4.7573,-4.7573,-4.7369,-4.7573,-4.7573,-4.7355,-4.7355,-4.7573,-4.7979,-4.7126,-4.6583,0.0,0.0,0.0,0.0,-3.4345,-3.4397,0.0,0.0,-3.4397,-3.4397,0.0,0.0,0.0,0.0,0.0,0.0,0.0,0.0,-3.5312,-3.5443,-3.5691,-3.624,-3.6305,-3.6515,-3.705,-3.7586,-3.79,-3.79,-3.79,-3.79,-3.79,-3.79,-3.79,-3.79,-3.79,-3.7926,-3.7991,-3.7991,-3.8266,-3.8815,-3.8815,-3.9115,-3.9703,-3.9703,-4.0004,-4.0514,-4.0514,-4.0827,-4.1311,-4.1311,-4.1311,-4.1311,-4.1311,-4.1311,-4.1311,-4.1311,-4.1311,-4.1311,-4.1311,-4.1311,-4.1324,-4.1389,-4.1415,-4.1483,-4.2123,-4.2277,-4.2405,-4.2933,-4.3101,-4.3139,-4.3166,-4.3572,-4.3965,-4.4004,-4.4356,-4.4668,-4.4668,-4.4668,-4.4668,-4.4668,-4.4668,-4.4722,-4.4884,-4.4884,-4.4925,-4.5087,-4.5073,-4.5073,-4.5073,-4.5073,-4.5073,-4.5073,-4.5073,-4.5073,-4.5073,-4.5073,-4.5073,-4.5073,-4.5073,-4.5073,-4.5073,-4.6058,-4.6111,-4.5073,-4.6058,-4.6058,-4.5073,-4.5073,-4.6098,-4.803,-4.7878,-4.7317,0.0,0.0,0.0,0.0,0.0,0.0,-3.4397,0.0,-3.4397,0.0,0.0,0.0,0.0,0.0,0.0,0.0,-3.4397,0.0,0.0,0.0,-3.5103,0.0,0.0,0.0,-3.6449,-3.7024,-3.7377,-3.7377,-3.7704,-3.79,-3.79,-3.79,-3.79,-3.79,-3.79,-3.79,-3.79,-3.79,-3.8018,-3.824,-3.824,-3.854,-3.9089,-3.9089,-3.9403,-3.9952,-3.9952,-4.0278,-4.0788,-4.0788,-4.0997,-4.1311,-4.1311,-4.1311,-4.1311,-4.1311,-4.1311,-4.1311,-4.1311,-4.1311,-4.1311,-4.1311,-4.1311,-4.1376,-4.1613,-4.1675,-4.1802,-4.2383,-4.2533,-4.2637,-4.2941,-4.3428,-4.3873,-4.3912,-4.4304,-4.4668,-4.4668,-4.4668,-4.4668,-4.4668,-4.4668,-4.4668,-4.4668,-4.4668,-4.4668,-4.4668,-4.4668,-4.4668,-4.4668,-4.4668,-4.4668,-4.4668,-4.4668,-4.4668,-4.4668,-4.4668,-4.4668,-4.4668,-4.4668,-4.4668,-4.4668,-4.514,-4.5194,-4.4722,-4.5194,-4.5194,-4.4668,-4.4668,-4.5181,-4.6098,-4.6098,-4.5847,-3.4397,0.0,0.0,0.0,0.0,0.0,0.0,0.0,0.0,0.0,0.0,0.0,0.0,0.0,0.0,0.0,0.0,-3.4397,0.0,-3.4397,0.0,0.0,0.0,0.0,0.0,-3.641,-3.6763,-3.6763,-3.7312,-3.7652,-3.7652,-3.7808,-3.79,-3.79,-3.79,-3.79,-3.79,-3.79,-3.79,-3.79,-3.79,-3.8109,-3.8488,-3.8488,-3.8815,-3.9364,-3.9364,-3.9677,-4.0187,-4.0187,-4.054,-4.1076,-4.1076,-4.1167,-4.1311,-4.1311,-4.1311,-4.1311,-4.1311,-4.1311,-4.1311,-4.1311,-4.1311,-4.1311,-4.1311,-4.1311,-4.14,-4.186,-4.1963,-4.2032,-4.2417,-4.297,-4.3454,-4.3454,-4.3964,-4.45,-4.45,-4.4617,-4.4668,-4.4668,-4.4668,-4.4668,-4.4668,-4.4668,-4.4668,-4.4668,-4.4668,-4.4668,-4.4668,-4.4668,-4.4668,-4.4668,-4.4668,-4.4668,-4.4668,-4.4668,-4.4668,-4.4668,-4.4668,-4.4668,-4.4668,-4.4668,-4.4668,-4.4668,-4.4668,-4.4668,-4.4668,-4.4668,-4.4668,-4.4668,-4.4668,-4.4668,0.0,0.0,0.0,-3.4397,0.0,0.0,0.0,0.0,-3.4397,0.0,0.0,0.0,0.0,0.0,0.0,0.0,0.0,0.0,0.0,0.0,0.0,0.0,0.0,0.0,0.0,-3.5809,-3.6136,-3.6136,-3.6684,-3.7037,-3.7037,-3.7586,-3.79,-3.79,-3.79,-3.79,-3.79,-3.79,-3.79,-3.79,-3.79,-3.7913,-3.7926,-3.7926,-3.8227,-3.8736,-3.8736,-3.9076,-3.9638,-3.9638,-3.9952,-4.0448,-4.0448,-4.0801,-4.1311,-4.1311,-4.1311,-4.1311,-4.1311,-4.1311,-4.1311,-4.1311,-4.1311,-4.1311,-4.1311,-4.1311,-4.1311,-4.1324,-4.1324,-4.1337,-4.135,-4.1794,-4.2264,-4.2264,-4.3127,-4.3952,-4.3952,-4.433,-4.4668,-4.4668,-4.4668,-4.4668,-4.4668,-4.4668,-4.4668,-4.4668,-4.4668,-4.4668,-4.4668,-4.4668,-4.4668,-4.4668,-4.4668,-4.4668,-4.4668,-4.4668,-4.4668,-4.4668,-4.4668,-4.4668,-4.4668,-4.4668,-4.4668,-4.4668,-4.4668,-4.4668,-4.4668,-4.4668,-4.4668,-4.4668,-4.4668,-4.4668,0.0,0.0,-3.4397,-3.4397,0.0,0.0,0.0,0.0,0.0,0.0,0.0,0.0,0.0,0.0,0.0,0.0,0.0,0.0,0.0,0.0,0.0,0.0,0.0,0.0,0.0,0.0,-3.5574,-3.5574,-3.6083,-3.658,-3.6985,-3.7194,-3.7495,-3.79,-3.79,-3.79,-3.79,-3.79,-3.79,-3.79,-3.79,-3.79,-3.79,-3.79,-3.8004,-3.8174,-3.8174,-3.8501,-3.9011,-3.9011,-3.9364,-3.9913,-4.0278,-4.054,-4.0762,-4.1167,-4.1311,-4.1311,-4.1311,-4.1311,-4.1311,-4.1311,-4.1311,-4.1311,-4.1311,-4.1311,-4.1311,-4.1311,-4.1311,-4.1311,-4.1311,-4.1742,-4.2211,-4.2211,-4.2748,-4.3415,-4.3781,-4.4029,-4.4278,-4.4657,-4.4668,-4.4668,-4.4668,-4.4668,-4.4668,-4.4668,-4.4668,-4.4668,-4.4668,-4.4668,-4.4668,-4.4668,-4.4668,-4.4668,-4.4668,-4.4668,-4.4668,-4.4668,-4.4668,-4.4668,-4.4668,-4.4668,-4.4668,-4.4668,-4.4668,-4.4668,-4.4668,-4.4668,-4.4668,-4.4668,-4.4668,-4.4668,-3.5587,-3.5155,0.0,-3.4724,-3.4554,0.0,-3.4397,0.0,-3.4397,0.0,0.0,0.0,0.0,0.0,0.0,0.0,0.0,0.0,0.0,-3.4397,0.0,0.0,0.0,0.0,0.0,-3.475,-3.4972,-3.4972,-3.5495,-3.5992,-3.6371,-3.658,-3.6959,-3.756,-3.7586,-3.7691,-3.79,-3.79,-3.79,-3.79,-3.79,-3.79,-3.79,-3.79,-3.79,-3.79,-3.79,-3.8109,-3.8423,-3.8423,-3.8762,-3.9324,-3.9677,-4.0056,-4.0488,-4.1089,-4.1311,-4.1311,-4.1311,-4.1311,-4.1311,-4.1311,-4.1311,-4.1311,-4.1311,-4.1311,-4.1311,-4.1311,-4.1311,-4.1311,-4.1311,-4.1585,-4.186,-4.186,-4.2304,-4.2879,-4.3441,-4.3729,-4.4042,-4.4617,-4.4668,-4.4668,-4.4668,-4.4668,-4.4668,-4.4668,-4.4668,-4.4668,-4.4668,-4.4668,-4.4668,-4.4668,-4.4668,-4.4668,-4.4668,-4.4668,-4.4668,-4.4668,-4.4668,-4.4668,-4.4668,-4.4668,-4.463,-4.4434,-4.4617,-4.463,-4.4421,-4.463,-4.4668,-4.4668,-4.4668,-4.4668]}]]